GFSCGP_sfc_thetae_000.txt.gz
Theta_e
308 302 299 302 303 303 303 300 299 303 306 302 300 301 303 307 305 304 304 305 306 306 308 306 304 301 300 300 300 300 301 300 299 299 298 297 297 298 300 300 301 301 303 303
304 298 305 307 307 304 302 299 298 302 305 302 301 300 304 305 305 305 304 305 306 307 307 306 303 300 299 299 299 299 300 300 299 300 298 298 297 298 299 301 301 302 301 302
301 305 307 305 304 302 301 298 298 298 303 302 300 297 299 303 305 307 307 307 307 307 306 305 301 299 299 298 299 299 299 300 300 299 299 299 299 299 299 299 300 301 301 301
304 306 303 302 300 302 296 303 302 301 297 291 299 289 297 301 302 303 306 306 306 307 308 306 302 300 298 298 300 300 300 299 300 300 298 296 295 295 296 297 298 299 300 299
301 301 300 300 300 303 300 304 302 301 296 294 296 291 294 301 299 302 304 305 306 307 307 306 304 302 300 299 299 299 299 299 299 298 298 297 296 297 297 297 297 297 298 299
302 305 304 302 305 304 304 301 301 299 295 288 293 294 293 298 300 302 304 305 306 306 306 306 305 304 300 300 301 300 299 298 299 299 298 297 296 296 295 295 295 296 297 298
300 301 303 305 300 303 301 296 289 288 288 287 297 293 296 301 301 300 302 303 304 305 305 304 303 303 300 299 300 300 300 299 299 298 297 296 296 296 295 295 295 295 295 296
295 292 300 303 300 297 297 296 290 284 286 290 295 289 294 302 302 302 304 304 305 304 304 303 302 302 301 300 300 299 299 298 298 297 296 296 296 297 296 296 295 295 295 296
295 295 304 303 303 302 298 293 299 292 293 289 292 296 300 301 299 300 301 302 303 303 303 302 302 303 302 301 300 300 299 299 298 297 296 294 294 294 295 296 296 296 296 299
300 294 302 302 303 302 299 302 292 292 283 282 289 290 293 297 298 298 298 298 301 303 303 302 302 302 303 301 302 301 300 298 298 297 295 295 294 294 295 295 295 295 296 297
302 298 298 298 296 295 295 294 296 295 291 284 284 289 298 297 298 299 298 299 301 302 303 302 301 301 302 301 300 299 298 297 296 296 295 294 294 294 294 294 295 295 296 296
304 299 293 295 301 302 300 296 297 290 288 291 291 291 302 299 299 300 299 300 301 303 303 302 301 300 300 299 298 297 296 296 296 296 294 294 294 294 293 293 294 295 295 296
303 297 290 293 296 299 296 298 298 297 295 290 288 291 300 298 299 299 299 300 301 301 302 301 300 300 299 299 298 296 296 295 296 294 293 293 293 293 293 294 294 295 295 295
308 299 295 289 294 297 293 296 298 296 291 291 291 294 298 297 297 298 298 300 300 301 302 300 299 299 298 298 297 296 295 296 295 294 293 293 293 293 294 294 294 295 295 295
303 294 296 298 299 300 299 297 296 294 295 291 294 295 299 301 301 299 300 300 300 300 300 300 300 299 297 297 296 296 295 294 293 293 293 293 293 294 294 294 294 295 295 295
299 293 297 294 298 298 296 299 299 296 296 296 297 296 303 303 301 300 301 301 300 300 301 301 301 300 299 297 295 295 294 293 293 292 292 293 294 293 293 294 294 294 294 294
290 290 291 289 296 296 292 297 299 299 299 297 293 298 301 301 302 303 302 301 300 300 301 301 300 300 299 297 297 294 293 293 292 292 292 292 293 293 293 294 293 293 292 293
290 289 288 286 292 285 296 303 302 300 301 301 300 301 302 303 304 304 302 301 299 300 300 300 300 299 298 297 295 294 293 292 292 291 291 292 292 292 293 293 292 292 292 292
297 293 288 286 287 293 297 300 300 297 296 303 301 302 303 304 303 301 303 301 301 299 299 299 299 298 298 295 295 293 292 292 292 291 291 292 292 292 292 292 291 292 292 292
298 298 291 288 285 284 295 302 303 300 291 301 302 303 303 303 296 300 302 301 299 300 299 299 298 298 295 294 294 292 292 291 291 292 292 292 292 292 292 292 291 292 292 293
288 288 284 284 281 289 299 303 303 290 292 301 302 302 302 300 302 302 301 300 299 299 299 299 296 294 293 294 294 292 291 290 293 293 293 293 293 292 292 292 292 291 291 292
286 284 283 286 282 282 298 298 292 295 298 299 300 301 299 301 299 298 298 298 299 298 297 296 293 292 293 293 292 291 290 293 293 293 293 292 292 294 294 291 291 291 291 290
283 290 286 288 289 295 297 299 299 299 300 298 299 300 301 298 297 297 297 297 297 296 295 295 293 292 293 293 292 290 292 293 293 292 291 291 292 292 292 290 289 290 290 291
288 293 289 288 293 294 297 298 299 301 299 300 299 300 300 299 298 296 296 296 296 296 294 294 293 292 292 292 293 292 293 293 292 290 290 291 290 291 291 292 291 290 290 290
289 291 288 288 291 294 296 298 299 301 302 301 301 300 300 299 298 297 296 296 296 295 295 293 292 292 292 293 292 293 294 293 291 290 290 290 291 290 290 291 290 291 290 292
290 289 287 287 294 294 294 297 301 300 301 302 300 300 300 301 299 298 297 296 296 295 294 293 294 294 292 292 292 293 294 293 291 290 290 290 290 290 290 290 290 298 298 299

GFSCGP_sfc_thetae_003.txt.gz
Theta_e
302 295 292 295 296 297 296 295 294 296 302 298 297 298 299 302 302 300 300 300 302 303 305 303 301 300 299 298 296 296 297 296 297 296 295 294 294 295 296 297 299 299 300 301
297 293 299 302 301 299 297 294 293 297 302 299 296 297 300 300 302 303 302 301 302 303 302 302 300 298 297 297 296 295 297 297 296 296 296 295 294 295 296 298 298 299 299 299
294 299 304 301 300 298 297 294 294 294 298 298 296 292 296 300 302 304 304 304 304 303 302 301 298 297 296 295 296 295 296 297 297 297 297 296 296 295 295 296 296 298 299 299
297 303 301 299 297 298 293 300 299 297 293 287 294 286 292 297 298 299 303 302 302 304 305 302 299 296 296 296 295 296 296 296 297 297 296 294 293 292 294 294 296 296 297 297
296 297 297 297 298 299 295 300 298 297 292 289 290 287 289 295 295 297 299 303 303 304 304 302 300 299 297 297 295 296 296 296 297 296 296 295 294 294 295 295 294 294 296 297
297 302 300 299 301 301 301 298 296 294 291 283 289 289 291 292 296 297 298 300 304 304 304 303 302 300 297 297 297 296 296 295 296 296 296 295 294 294 293 293 293 294 295 296
295 298 299 302 297 299 297 291 284 283 283 282 291 289 293 295 298 299 300 299 302 304 303 301 299 299 297 296 297 297 296 295 295 296 295 295 294 294 293 293 293 292 293 294
288 287 296 299 298 293 293 292 284 279 281 286 293 286 292 299 303 300 301 301 300 302 303 302 301 300 298 297 297 298 296 296 296 295 295 294 294 294 294 294 293 293 293 294
289 290 299 299 300 299 293 290 295 287 286 283 287 290 295 297 296 298 298 299 300 301 301 301 301 301 298 297 298 298 297 297 297 295 294 293 293 292 294 294 294 293 294 297
294 290 297 299 299 299 295 296 288 287 280 278 284 286 288 293 298 296 295 298 299 300 299 300 300 300 299 298 298 298 298 297 297 296 294 294 292 292 293 293 293 293 294 294
298 292 293 295 293 293 292 292 292 290 286 280 280 283 293 296 297 295 298 297 299 300 300 300 299 300 300 299 298 298 298 298 297 296 294 293 292 293 292 292 292 293 294 294
300 295 290 293 297 299 297 294 295 288 283 287 288 288 295 295 297 297 296 298 298 301 300 300 298 298 299 298 298 299 298 297 297 296 294 292 293 293 291 291 292 293 293 294
302 295 288 290 292 294 292 295 294 295 289 288 286 289 298 300 299 296 297 296 298 301 300 299 297 297 299 298 298 297 297 296 295 294 292 292 292 291 291 291 292 293 293 293
303 297 293 288 291 294 290 293 295 293 288 290 290 292 294 294 294 295 295 296 298 300 301 299 298 298 298 298 297 296 294 295 294 293 291 291 290 291 291 292 292 293 293 293
295 291 293 292 292 294 295 295 294 292 293 289 292 292 296 298 296 295 296 296 296 297 299 299 298 297 296 296 296 295 295 294 294 292 291 291 291 292 292 292 292 292 293 293
295 286 287 284 290 290 288 293 294 295 295 294 295 294 298 300 298 297 295 297 297 298 299 300 300 298 296 296 295 295 294 294 293 291 291 292 292 292 291 291 292 292 292 291
290 288 284 280 288 286 282 290 295 297 297 296 291 297 299 300 301 302 300 296 297 298 299 300 300 299 298 297 295 294 294 293 291 291 291 291 291 291 291 292 291 291 290 290
289 286 287 281 284 277 288 300 300 298 300 300 299 300 299 301 303 302 301 299 298 300 299 300 300 299 298 295 295 294 293 292 291 290 290 290 290 290 291 290 290 290 290 290
291 288 285 282 282 286 290 296 294 293 292 299 299 301 299 301 301 301 303 300 299 298 298 300 300 298 296 295 294 293 291 291 290 289 289 290 290 290 290 290 289 290 290 290
291 290 286 284 280 277 288 295 300 297 289 297 296 295 295 299 294 300 301 300 298 298 297 297 297 297 295 293 293 292 290 290 289 290 291 291 290 290 290 290 289 289 290 290
281 282 281 282 281 284 292 295 298 286 287 295 296 296 295 293 299 304 304 298 297 297 297 297 297 295 293 292 292 291 289 289 291 292 292 291 291 290 290 290 289 289 289 289
281 280 279 280 279 277 297 297 291 294 295 296 295 295 295 297 297 298 299 297 297 296 297 296 294 293 292 292 292 290 289 291 292 292 291 290 290 292 293 289 288 288 288 287
279 285 281 283 283 291 292 293 300 300 297 296 296 297 299 298 297 295 294 295 296 295 294 294 293 291 291 291 292 289 290 291 291 290 290 290 291 290 290 288 288 287 287 288
286 287 284 284 288 290 292 295 296 298 298 298 301 301 303 298 298 295 294 295 294 293 292 292 292 291 289 290 291 290 291 292 290 289 288 289 288 289 289 289 289 287 287 287
286 285 284 283 287 289 291 295 297 297 298 300 302 303 303 301 300 297 295 294 293 293 293 293 292 291 291 291 291 291 291 292 290 289 288 288 289 288 288 288 288 288 288 290
287 285 281 281 288 288 290 294 295 295 296 298 299 300 304 305 303 301 295 295 294 293 293 293 293 293 292 291 291 291 293 292 291 289 288 288 288 288 288 288 288 295 298 299

GFSCGP_sfc_thetae_006.txt.gz
Theta_e
300 293 291 294 295 294 292 291 291 294 299 297 296 297 299 300 300 301 300 300 300 302 305 303 302 300 298 296 295 295 295 294 295 294 294 293 293 294 295 296 298 297 298 299
295 291 297 299 298 296 294 291 290 295 299 297 295 295 299 298 300 301 302 300 300 302 302 302 302 299 299 296 295 294 296 295 295 295 294 294 293 294 295 296 297 297 298 298
291 296 301 299 297 296 295 293 291 293 296 296 294 293 294 298 300 303 304 304 303 302 302 302 301 300 298 297 296 295 295 296 296 296 295 294 294 294 294 295 295 296 298 298
295 301 299 297 296 297 292 297 297 296 292 286 294 287 290 294 296 297 301 303 303 303 304 303 302 300 297 298 297 296 296 296 296 295 295 294 293 292 293 293 294 295 296 295
293 296 296 296 297 297 294 299 297 295 290 287 289 285 287 292 292 296 297 300 303 305 304 303 302 300 299 298 297 296 295 296 296 295 295 294 292 293 294 293 293 293 294 295
296 300 298 297 300 299 299 296 294 292 288 282 289 288 291 291 295 298 300 298 300 303 303 304 303 301 298 297 296 295 295 296 295 295 294 294 293 293 292 292 292 293 293 294
291 294 298 300 295 298 296 290 283 281 281 283 290 287 292 292 294 295 298 299 297 302 302 302 300 298 297 295 296 296 295 295 295 295 295 294 294 293 293 292 292 292 292 293
286 286 294 298 297 294 292 291 284 279 280 285 289 284 290 296 301 302 300 299 297 300 302 300 300 299 297 296 296 296 295 295 294 295 295 294 294 294 293 293 293 292 292 293
287 288 297 298 300 298 292 288 293 286 283 281 285 289 293 295 296 296 296 297 298 300 301 301 300 299 298 297 296 297 296 296 295 295 295 293 293 293 293 293 293 292 292 295
291 287 295 298 297 296 295 295 286 285 280 278 283 283 287 290 296 297 295 296 298 299 299 300 299 299 298 298 297 297 297 296 296 295 295 294 292 292 292 292 292 292 293 293
294 290 292 294 291 291 291 291 290 288 286 283 282 286 291 295 296 295 295 297 299 299 300 300 300 300 298 297 297 297 296 296 296 296 295 293 292 291 291 291 292 292 292 292
300 296 289 292 297 298 297 294 294 288 285 283 287 288 293 293 294 295 298 297 297 299 299 299 298 297 297 296 296 296 296 296 297 297 295 294 292 291 290 291 291 291 291 292
299 293 288 290 293 293 291 293 294 293 292 288 285 289 297 298 298 296 295 295 297 299 298 297 295 297 298 297 296 296 296 297 297 296 295 293 291 291 290 290 290 291 291 291
300 293 292 286 288 288 287 287 292 289 287 289 289 291 296 295 293 295 295 295 295 298 300 298 297 297 298 298 297 297 297 297 297 296 294 292 291 291 290 290 291 291 291 291
296 287 289 289 290 290 288 287 286 286 287 283 288 291 296 299 299 300 299 294 294 295 298 298 298 297 297 297 297 297 297 296 296 295 293 292 291 290 291 291 291 291 291 291
292 284 288 285 288 287 284 287 289 288 287 289 293 292 300 301 299 299 299 295 295 295 298 300 300 298 297 297 297 297 295 295 295 294 292 292 291 290 290 290 290 290 290 290
287 285 281 278 285 285 280 285 287 289 291 291 287 293 296 293 296 299 298 298 298 298 297 299 300 299 298 297 298 295 294 294 294 292 292 291 291 291 290 290 290 289 289 289
286 285 283 279 281 274 286 292 292 290 291 295 295 295 294 293 295 296 301 303 301 298 298 299 300 300 299 298 297 295 294 293 292 291 291 291 290 290 290 289 288 288 288 288
288 288 283 280 277 283 286 290 293 291 290 294 292 293 293 293 294 295 301 300 301 300 299 301 301 301 297 296 295 294 293 292 291 290 290 290 290 289 289 288 288 288 288 288
287 289 283 278 270 271 283 291 297 296 283 294 295 293 292 292 285 291 299 300 301 299 302 299 298 296 295 294 294 292 291 291 290 290 290 290 289 289 288 288 288 288 288 289
280 281 279 280 278 282 290 293 295 281 285 295 296 294 294 291 293 297 301 301 300 300 297 297 297 296 295 293 293 291 290 290 291 291 291 290 289 289 289 288 288 288 288 288
280 279 278 280 277 272 294 290 284 288 294 296 295 295 296 297 299 300 302 300 295 295 296 296 293 292 292 293 293 290 290 290 291 291 291 289 289 291 291 288 288 287 287 286
277 282 280 281 279 287 290 291 294 294 291 294 294 296 299 298 299 301 299 301 293 294 294 294 292 290 290 291 292 289 289 291 291 290 289 288 289 289 289 287 287 286 286 286
283 287 284 284 287 289 291 292 292 292 292 295 297 296 300 298 300 300 299 301 295 293 292 292 291 290 289 290 291 291 291 292 291 289 288 288 288 288 288 288 288 286 286 286
285 285 284 284 287 289 290 290 290 292 293 294 295 295 298 300 301 300 300 300 301 293 292 293 292 291 290 291 291 292 292 292 290 288 288 288 288 290 289 288 287 287 287 288
287 286 283 282 288 287 287 291 292 292 292 293 293 294 297 301 301 302 301 302 302 293 292 291 291 291 291 292 292 292 293 292 291 289 288 288 288 288 288 287 288 294 296 297

GFSCGP_sfc_thetae_009.txt.gz
Theta_e
298 292 290 293 294 291 290 289 288 291 296 296 294 296 298 299 299 300 300 301 301 302 306 304 303 302 298 296 295 296 296 295 295 293 292 292 293 293 294 295 297 296 297 298
293 290 295 297 297 295 292 289 289 292 296 295 294 294 298 300 297 301 301 301 302 303 304 302 302 300 299 297 296 296 297 295 296 296 293 293 292 293 294 296 296 296 296 297
290 294 300 297 294 293 293 291 290 290 294 294 292 293 293 297 299 300 301 303 304 303 303 303 302 301 300 298 296 296 296 296 296 295 294 293 293 293 294 294 295 295 296 297
293 298 297 295 294 295 290 296 295 294 290 287 292 286 289 293 295 297 300 301 301 302 303 304 303 302 300 299 298 297 297 296 297 295 294 293 293 291 292 293 294 294 295 295
292 294 294 294 295 296 293 297 295 294 289 287 288 285 286 290 291 294 297 298 301 303 303 303 303 303 302 301 297 297 297 296 297 296 296 294 292 292 292 292 293 292 293 294
294 298 297 296 298 298 298 294 293 290 287 282 288 287 290 292 293 295 298 298 298 300 301 304 305 304 302 300 298 296 296 296 296 295 295 294 293 292 292 291 292 292 292 293
290 292 296 298 293 296 294 289 282 281 280 283 288 286 291 291 293 294 297 299 299 296 298 302 301 301 300 298 297 297 296 295 295 295 295 294 293 293 292 292 292 291 291 292
285 286 292 296 294 292 291 291 285 278 279 284 287 283 290 295 297 299 298 299 299 299 299 300 301 301 299 297 297 297 295 295 295 295 294 294 294 294 293 293 292 292 292 292
286 286 295 297 297 296 290 287 294 286 289 280 287 288 293 294 294 296 295 296 297 300 298 299 299 300 298 296 296 297 296 295 295 295 295 294 294 293 293 293 292 292 292 294
291 286 294 296 296 295 293 294 286 284 280 280 285 282 286 289 292 295 295 296 296 298 297 298 299 299 298 297 297 297 297 295 295 295 295 295 294 294 294 292 292 292 292 292
297 291 292 294 292 292 292 289 289 288 286 283 281 285 292 294 296 296 295 294 296 297 297 297 297 298 297 297 297 296 295 295 295 295 295 295 294 293 292 291 292 292 292 292
298 295 289 292 298 300 297 292 290 286 285 285 286 287 293 292 294 294 294 295 296 296 298 298 297 296 295 295 296 296 296 295 295 295 295 294 294 292 290 290 290 291 291 292
296 291 283 285 290 291 288 290 290 288 287 284 282 286 296 295 295 298 298 297 297 296 297 297 295 296 296 295 295 296 296 296 296 295 294 294 293 291 290 290 290 290 290 291
297 290 286 281 286 289 286 288 289 287 281 281 282 284 288 291 292 296 297 299 299 295 296 297 295 296 296 296 295 295 295 296 296 295 294 293 292 292 291 291 290 290 290 290
291 283 285 285 286 287 286 287 288 285 285 281 283 284 287 291 294 294 296 297 296 298 299 297 297 297 296 296 295 295 295 296 296 295 294 294 293 292 291 290 290 290 290 290
289 282 284 281 284 284 283 285 286 286 286 285 286 285 292 294 297 295 294 295 296 297 299 299 299 299 296 297 296 296 295 295 296 295 294 294 292 291 291 290 290 289 289 289
284 282 279 277 282 282 278 282 283 285 287 287 284 290 294 293 293 292 292 295 296 297 299 299 299 299 299 298 298 296 296 296 295 295 294 292 292 291 290 290 289 289 288 288
283 282 282 278 280 273 283 288 289 287 289 291 293 293 293 292 294 294 295 297 296 298 300 301 301 300 300 299 298 298 296 295 295 294 292 292 292 291 290 289 288 287 287 288
286 282 279 274 275 280 283 286 286 285 286 293 286 291 294 295 293 293 297 298 298 300 302 302 303 302 300 297 298 296 294 294 294 292 291 291 291 290 289 288 287 287 287 287
286 285 279 278 274 271 282 287 291 290 280 291 290 291 291 292 285 289 297 299 300 301 301 301 298 298 299 297 296 294 293 293 292 291 291 291 291 290 289 288 287 287 287 288
278 278 276 275 272 278 285 289 292 278 280 289 291 292 292 290 292 296 299 300 302 300 301 300 297 298 298 295 295 293 292 291 293 292 291 290 290 289 289 287 287 287 287 287
276 273 274 274 271 271 290 289 283 288 292 292 291 291 292 294 296 297 299 301 300 299 300 297 294 294 294 294 294 291 291 291 290 290 290 289 288 290 290 287 287 287 286 285
277 281 279 279 279 287 290 289 292 292 291 291 291 293 293 292 293 297 298 299 299 299 300 295 290 290 291 293 293 290 288 290 290 290 289 288 288 289 288 287 287 286 285 285
281 286 283 283 285 287 289 291 292 292 290 291 293 292 293 292 293 293 295 300 300 301 301 293 291 289 289 290 291 290 290 291 291 289 288 288 288 288 288 289 288 286 286 285
285 286 284 284 286 288 289 289 289 291 292 292 293 293 293 292 292 294 297 300 301 301 302 294 292 291 290 290 290 292 292 292 290 289 288 289 290 290 288 288 287 287 287 288
287 285 283 281 287 287 288 291 292 290 291 291 291 291 292 293 293 294 295 301 302 302 302 298 293 292 291 291 291 292 293 292 291 289 289 290 289 290 289 288 288 295 296 298

GFSCGP_sfc_thetae_012.txt.gz
Theta_e
296 291 287 290 292 292 288 287 287 289 294 293 292 294 296 299 297 298 298 299 299 301 305 305 303 303 302 299 297 297 298 297 296 294 293 291 292 292 293 294 296 296 297 298
292 288 293 295 294 294 292 289 289 291 294 293 292 292 296 298 297 299 300 300 301 302 303 301 302 301 301 300 299 298 298 297 297 297 293 293 292 292 294 295 295 296 296 297
289 291 298 295 292 291 291 289 289 289 292 292 291 291 293 295 298 297 299 302 303 302 303 304 302 301 302 301 299 298 298 297 297 297 294 292 293 292 293 293 294 295 295 296
291 296 295 292 292 292 287 293 293 292 288 286 290 285 288 291 294 294 297 299 300 301 303 304 303 302 301 302 300 300 299 297 297 296 295 293 293 291 292 293 294 294 295 295
290 292 292 292 293 294 291 296 293 292 288 286 287 284 291 290 289 293 295 296 299 301 302 302 303 304 304 303 300 300 298 297 297 296 297 295 291 292 292 292 293 292 293 293
294 296 295 295 297 296 296 292 291 289 286 281 288 286 289 290 291 293 295 296 297 298 299 301 304 304 304 303 301 299 297 297 297 296 296 295 294 292 291 291 291 291 292 292
288 291 295 296 291 293 293 288 281 280 280 282 288 286 291 291 290 293 295 297 299 297 295 296 299 301 302 300 299 298 297 296 296 296 295 295 295 293 293 292 292 291 291 291
283 284 290 294 291 288 288 288 282 278 277 281 285 282 289 292 294 294 296 296 296 297 297 295 298 300 301 299 298 298 296 296 295 296 295 295 294 294 294 293 292 292 292 292
286 284 296 299 298 294 288 285 290 285 288 283 286 288 294 295 294 294 295 295 296 298 299 297 298 298 298 298 297 297 296 296 295 295 295 295 294 294 293 292 293 292 292 294
293 288 295 296 298 296 291 292 285 284 279 279 283 283 286 291 294 294 293 295 297 298 299 298 297 298 298 297 297 297 297 296 295 295 295 295 294 294 294 293 292 292 292 293
294 291 290 294 292 291 292 290 288 288 288 282 280 284 289 287 290 292 294 296 298 299 300 298 299 297 297 295 296 296 296 296 295 295 295 295 294 294 293 293 293 292 292 292
294 291 284 286 292 296 294 292 291 284 282 282 281 282 292 292 292 293 293 296 299 300 301 300 297 296 294 294 294 295 296 295 295 296 295 294 294 293 292 292 292 292 292 292
291 284 277 279 282 288 286 290 290 287 285 280 278 281 294 293 291 292 292 296 298 299 299 300 298 295 294 293 293 294 295 295 295 295 294 294 293 293 292 292 291 291 290 290
294 285 282 277 280 285 282 284 285 283 278 278 280 283 287 289 289 291 293 296 296 296 298 299 299 298 295 294 293 294 294 295 294 294 294 293 292 293 292 292 290 290 290 289
287 280 282 283 284 284 283 282 283 281 281 278 281 282 286 290 291 292 295 295 295 294 297 298 299 300 299 294 293 294 295 295 294 294 293 293 293 293 292 291 290 290 289 290
286 281 283 280 283 282 280 282 283 283 283 282 283 283 290 294 295 295 294 295 293 293 297 298 300 301 301 298 296 294 294 294 295 294 293 294 293 292 291 291 290 289 289 289
283 280 276 275 281 280 276 281 283 284 286 285 281 286 288 288 289 292 294 294 294 294 296 298 300 301 302 302 299 296 295 296 294 294 294 293 293 292 291 291 290 289 288 287
282 281 281 276 277 268 279 286 286 285 286 289 288 288 290 289 291 293 296 295 294 296 298 299 301 301 302 301 301 298 296 294 294 294 294 293 293 292 291 290 289 287 287 287
285 280 276 272 271 277 280 285 284 282 282 290 288 289 290 292 293 292 296 295 296 297 299 301 302 301 302 299 298 298 295 295 294 294 293 293 293 291 290 289 288 287 287 286
284 283 279 275 272 269 279 285 288 289 278 289 289 288 289 290 283 287 294 296 297 298 300 302 301 301 301 297 298 297 295 294 294 294 294 293 293 291 290 289 288 286 287 288
277 276 275 275 272 275 283 286 290 276 278 289 289 289 289 286 289 292 295 294 296 298 301 301 301 300 297 295 297 297 295 293 295 295 293 292 292 291 290 288 288 287 287 287
274 272 272 273 273 270 287 287 282 286 290 290 289 290 289 290 291 292 293 293 295 295 298 301 301 299 293 292 295 296 294 295 294 293 291 291 290 291 290 288 287 287 287 287
275 280 276 279 278 285 288 288 291 291 289 289 289 290 290 290 290 292 292 292 293 295 300 302 301 295 290 291 294 293 292 292 291 291 290 289 289 289 289 288 287 286 286 286
281 286 281 281 284 285 288 291 292 291 290 291 291 291 291 290 291 291 292 292 294 296 300 302 301 296 289 289 290 291 291 291 290 289 288 289 288 288 289 289 289 288 286 285
283 284 283 283 285 287 287 290 291 291 292 291 292 291 291 291 290 291 292 293 295 297 302 302 301 296 292 290 290 290 290 290 289 288 288 289 291 289 289 289 289 289 287 289
287 284 282 280 287 287 288 291 292 290 289 290 290 290 292 292 291 292 292 294 295 296 302 300 300 297 293 291 290 291 291 291 289 288 289 290 290 290 290 289 289 294 293 296

GFSCGP_sfc_thetae_015.txt.gz
Theta_e
300 295 291 294 297 295 293 291 291 295 297 295 296 296 299 302 301 302 303 304 304 305 309 310 311 311 311 312 311 309 309 308 306 303 302 302 301 301 303 304 304 306 306 305
295 292 295 295 295 295 294 292 292 295 297 295 295 294 298 300 301 303 303 304 305 306 307 308 309 309 309 310 310 308 308 307 305 306 305 304 303 302 303 304 304 304 305 305
291 293 297 296 294 293 293 291 291 291 295 296 293 293 297 299 301 302 302 305 306 306 306 308 308 308 308 308 308 308 307 307 306 306 303 300 301 301 301 301 302 302 303 305
294 297 296 294 293 294 289 295 294 293 291 288 295 287 295 298 299 299 301 303 304 306 307 307 308 307 307 308 309 309 307 307 306 305 302 301 302 301 302 302 302 302 303 303
293 295 295 294 295 296 294 296 294 294 291 291 292 290 295 298 297 299 303 303 302 304 306 306 307 309 309 310 309 308 307 306 306 302 304 303 304 305 302 301 301 302 302 302
295 298 298 296 298 297 299 296 294 292 291 286 291 290 292 295 296 298 301 302 303 303 303 304 306 308 309 310 310 308 306 305 305 303 304 303 303 301 300 300 301 301 301 301
290 292 297 298 294 296 296 291 285 284 284 285 291 290 293 297 300 299 299 300 300 303 304 303 302 304 307 309 308 306 305 304 304 302 303 303 304 302 302 300 301 299 299 299
286 287 293 298 297 294 293 292 286 280 282 285 291 286 292 298 298 298 299 299 301 303 304 305 305 305 305 306 308 306 304 303 303 302 302 303 304 302 303 302 301 300 300 301
290 288 298 299 299 296 292 290 293 287 290 285 289 292 297 300 296 295 296 296 297 300 302 304 305 305 306 304 305 304 303 303 302 301 302 302 302 302 301 301 301 301 301 300
294 286 295 298 299 297 295 295 287 288 281 279 286 288 289 295 291 294 294 295 295 299 302 303 304 305 306 304 304 303 303 301 301 301 302 301 301 301 302 301 299 300 300 301
294 291 289 292 289 289 289 286 287 289 287 281 280 285 291 291 293 291 292 295 296 299 300 302 304 305 305 303 301 301 301 300 300 300 301 301 300 300 300 300 300 300 300 300
292 290 282 283 290 292 290 289 286 279 278 280 277 276 291 293 291 291 293 295 297 298 300 302 303 303 304 304 301 299 300 300 300 300 300 300 300 300 300 300 300 300 299 300
290 284 277 278 283 287 284 286 285 285 283 277 274 276 289 290 290 293 293 296 297 299 300 300 300 302 304 305 303 300 299 299 300 299 299 300 299 299 299 299 299 299 299 299
293 286 282 276 279 285 281 283 285 283 277 278 279 280 285 288 289 292 294 296 297 298 299 299 300 302 303 305 305 302 299 299 299 299 298 298 298 299 300 300 299 298 298 298
288 281 283 283 284 284 283 282 283 281 282 278 281 281 286 288 289 290 292 294 295 297 298 299 299 301 302 304 305 305 299 298 299 297 298 298 299 299 299 299 298 298 297 297
288 280 283 280 283 283 280 283 283 283 283 283 284 283 290 290 292 291 292 293 294 296 297 298 299 300 302 303 304 304 304 299 298 297 297 299 298 298 298 298 297 297 296 296
284 282 280 275 281 280 277 281 282 282 284 284 280 286 290 289 290 291 292 293 294 296 297 298 298 300 301 303 304 304 304 303 298 297 297 298 297 297 297 297 296 296 296 295
283 282 281 276 278 271 281 286 285 284 286 287 287 289 290 290 291 293 295 293 295 295 296 297 298 299 302 305 304 305 304 300 299 296 297 297 297 296 296 296 296 296 296 295
286 282 278 274 274 279 281 284 283 282 282 288 287 288 289 291 291 291 294 295 295 295 296 297 299 300 303 304 304 304 300 298 299 296 297 297 297 296 296 295 295 295 295 295
284 284 280 278 272 270 280 285 289 289 278 288 289 288 289 290 283 287 293 294 295 296 297 297 299 299 303 304 305 299 296 296 298 297 297 297 297 296 295 296 295 295 295 294
279 279 275 276 275 278 284 287 291 277 280 289 290 290 290 287 290 292 294 294 295 296 296 297 298 300 303 304 301 295 293 293 298 299 298 297 297 296 297 296 295 294 294 294
277 275 275 276 273 271 287 287 281 286 290 290 291 291 290 291 292 292 293 294 294 295 295 297 298 302 303 303 298 292 291 294 300 299 298 296 296 296 295 295 294 294 294 293
277 281 279 280 279 286 289 288 291 292 290 291 291 292 292 291 291 292 292 293 294 294 296 297 299 303 303 301 295 291 292 297 299 298 296 295 295 295 294 293 293 292 293 293
282 286 282 281 285 286 288 290 292 292 291 293 293 292 292 291 292 292 292 293 294 295 295 297 300 301 300 298 293 292 292 295 296 295 293 293 293 292 293 293 293 292 292 292
284 285 283 283 285 287 289 291 292 292 292 292 292 292 292 292 292 292 292 293 293 294 295 297 299 301 299 296 293 292 292 293 293 292 292 291 293 292 292 293 293 293 294 294
286 284 282 281 288 288 288 292 293 291 290 291 290 291 293 293 291 292 292 293 293 293 295 296 299 301 297 295 294 294 293 292 291 290 291 292 291 292 292 292 293 296 295 296

GFSCGP_sfc_thetae_018.txt.gz
Theta_e
305 300 298 300 301 300 298 296 296 300 303 301 300 300 303 306 306 306 308 308 309 310 313 315 318 319 319 321 323 325 329 328 327 322 318 316 313 313 313 313 313 313 313 312
301 298 301 299 299 299 298 296 296 300 301 300 300 300 304 306 306 308 308 308 310 311 313 314 315 317 317 318 320 321 324 327 327 323 321 318 316 315 314 313 312 313 312 311
297 299 300 298 298 297 298 296 297 297 300 302 301 300 304 307 307 308 309 310 311 311 312 314 315 316 317 317 318 319 321 322 326 321 320 317 316 314 311 310 310 310 311 310
299 301 298 298 298 299 296 300 299 298 297 294 301 292 301 305 305 306 308 310 310 310 310 310 311 312 314 316 318 318 319 319 322 321 318 314 312 308 310 310 310 309 309 309
299 298 298 297 299 300 297 301 299 298 297 297 297 294 299 304 302 303 306 306 307 309 309 309 310 312 314 314 315 317 318 318 319 318 318 315 313 314 313 311 310 309 308 309
300 303 300 300 300 300 301 299 300 299 297 290 296 295 296 299 300 303 304 305 304 304 306 307 309 310 311 315 315 316 316 316 318 318 317 316 315 314 314 311 309 308 308 308
298 298 300 302 299 302 301 298 291 290 290 290 296 294 297 302 302 301 300 301 301 302 302 304 306 307 310 312 314 313 314 314 315 315 315 314 316 316 313 310 310 308 308 307
294 291 297 302 299 296 298 296 290 283 286 288 295 290 296 304 305 304 303 302 300 300 301 303 305 307 308 310 312 312 312 313 313 313 312 312 314 315 314 311 311 310 309 308
293 292 300 299 301 300 296 293 297 291 292 287 291 295 300 302 302 298 299 299 297 299 301 302 304 306 308 309 311 311 310 312 312 312 311 310 312 313 312 312 311 311 309 308
295 286 293 298 298 300 293 295 285 288 279 280 286 287 289 293 291 293 294 295 297 299 300 302 305 306 307 309 311 312 310 309 310 310 310 309 310 311 311 312 310 309 309 308
292 290 290 292 288 287 287 287 289 289 287 280 279 283 293 289 290 290 293 296 297 299 301 303 304 305 307 309 310 312 311 308 308 309 309 308 309 309 310 309 309 309 308 307
291 287 282 285 290 291 290 289 287 281 279 282 281 280 291 291 291 293 294 297 298 300 301 302 303 305 305 307 308 310 311 309 307 307 308 307 308 308 308 308 308 308 307 307
290 286 280 283 288 291 286 287 287 286 286 279 277 280 292 292 292 294 295 296 298 299 299 300 302 303 304 304 306 308 310 310 308 306 306 306 306 306 306 307 308 307 306 306
293 287 284 280 282 286 283 284 286 285 280 281 281 282 287 289 291 294 295 296 297 298 298 300 301 301 302 302 303 306 307 309 310 306 305 305 305 306 306 307 307 306 306 304
290 283 285 286 286 285 284 284 284 283 284 280 283 283 287 289 292 293 295 295 295 296 297 299 299 299 299 300 302 305 307 307 309 306 304 304 305 306 305 306 306 306 305 304
290 282 284 281 284 284 282 284 285 285 285 284 284 284 291 293 295 294 294 294 294 295 297 298 298 299 300 301 301 304 305 306 308 307 304 304 303 304 304 305 305 305 304 304
287 284 281 277 283 283 279 284 284 285 286 285 282 287 291 292 292 293 293 294 294 295 296 297 298 299 301 301 303 304 306 308 306 305 303 303 303 303 303 304 304 305 304 303
286 284 282 278 281 273 284 289 288 286 286 288 288 290 292 291 293 294 296 295 294 295 296 298 299 300 301 303 303 305 306 306 305 303 302 303 302 302 303 303 304 303 303 303
290 287 281 278 278 282 283 286 286 284 284 290 289 290 291 293 294 293 296 297 296 297 298 299 300 301 301 301 303 306 305 305 304 302 300 300 302 301 301 302 303 303 303 302
289 289 283 281 275 273 283 288 291 290 281 291 291 290 291 292 284 291 296 297 297 298 299 299 300 300 300 301 303 306 304 304 301 299 297 300 302 301 302 302 303 304 304 302
283 284 280 280 277 281 288 289 291 279 282 291 292 292 291 289 291 295 297 297 298 298 298 299 299 299 300 301 304 304 304 302 301 299 297 298 301 301 302 302 303 303 302 301
281 280 279 280 277 275 290 289 282 288 293 292 292 293 292 293 294 294 295 295 296 296 297 298 298 298 300 301 303 302 300 302 298 296 296 298 301 299 300 301 302 301 301 300
280 284 282 283 282 290 292 291 294 295 291 293 293 294 293 292 292 293 294 295 295 296 297 298 297 297 299 301 301 296 298 298 295 295 298 301 300 299 299 300 300 300 299 298
287 290 285 284 287 289 291 293 294 294 294 294 295 294 294 292 293 293 294 295 295 295 296 297 296 296 297 301 297 296 298 296 294 295 299 300 299 299 299 300 300 299 299 297
287 288 285 285 288 290 292 293 293 294 294 294 294 293 293 293 292 293 294 294 295 295 295 296 295 295 296 299 297 296 297 295 294 297 298 297 299 299 298 299 299 298 298 298
289 287 284 284 290 289 290 293 294 292 292 293 292 293 293 293 292 293 294 294 294 294 295 296 295 295 295 298 297 297 297 295 293 293 294 295 297 296 296 296 297 302 301 301

GFSCGP_sfc_thetae_021.txt.gz
Theta_e
308 301 300 302 303 302 300 298 297 301 305 303 302 302 305 309 310 310 310 311 311 312 315 316 318 318 318 320 321 324 326 331 334 331 326 323 321 321 320 320 318 317 316 316
303 301 303 302 302 300 300 299 299 304 306 304 303 302 306 309 310 311 310 310 311 312 314 314 315 316 317 318 320 321 322 326 332 332 329 325 322 322 321 321 319 319 317 316
301 304 303 300 301 300 301 300 300 299 302 304 303 301 305 309 311 310 310 311 311 310 310 311 313 314 316 316 317 319 320 322 327 333 330 327 324 323 320 319 317 317 316 316
303 304 300 301 300 302 298 302 301 299 298 294 303 292 301 305 306 306 307 307 306 306 308 309 310 311 312 314 316 318 317 319 322 328 330 326 322 319 319 318 317 315 315 314
300 301 300 299 300 302 298 302 300 300 298 298 299 296 301 305 302 304 304 304 303 303 304 305 306 309 310 312 313 316 317 317 320 321 328 327 323 322 321 318 315 315 314 314
302 306 302 301 302 302 303 302 302 302 300 292 298 297 298 300 302 302 303 304 305 302 302 305 306 307 308 311 314 316 315 315 318 321 323 327 323 321 318 316 314 314 313 312
301 300 302 305 301 304 302 297 291 291 292 292 299 294 298 303 303 301 299 301 301 301 301 303 304 306 307 310 312 313 315 316 315 316 319 322 323 322 320 318 315 313 311 310
296 294 299 302 299 297 298 296 290 284 287 290 296 290 296 304 303 302 299 299 299 300 302 303 304 306 307 308 310 311 311 313 314 313 316 318 321 321 319 320 317 314 312 311
293 294 300 299 301 299 296 292 296 291 292 288 291 295 300 302 298 296 295 296 296 299 300 302 303 305 306 307 308 309 311 313 314 312 313 314 316 318 318 319 320 315 314 312
295 286 294 297 297 299 297 294 286 289 281 281 287 288 289 292 291 292 293 294 296 299 300 301 303 304 305 307 308 309 310 312 313 313 311 312 313 315 316 317 318 315 314 313
293 289 290 296 291 290 290 288 290 290 288 282 280 284 294 291 291 291 293 294 296 298 299 300 301 303 305 306 307 307 307 310 312 313 311 310 311 312 312 314 316 316 315 313
292 288 283 287 293 293 291 289 288 283 282 284 283 282 293 293 293 293 293 295 298 299 299 300 301 302 303 305 304 303 304 307 310 311 312 309 309 310 310 311 313 315 313 312
291 287 282 287 290 292 289 291 289 288 288 281 278 280 293 293 293 293 293 295 297 298 299 299 301 301 302 302 302 303 303 306 308 309 310 309 308 308 308 309 312 313 312 311
293 287 284 281 285 289 285 287 288 286 282 282 282 283 288 290 290 292 294 295 297 297 298 299 300 300 301 301 301 302 303 305 307 308 308 309 307 307 308 309 310 311 311 310
291 285 287 288 288 287 286 285 286 284 285 281 283 283 287 289 291 293 295 295 295 296 296 297 298 299 300 300 302 303 304 305 306 307 308 308 308 307 307 307 309 310 310 309
291 284 286 283 286 286 283 286 286 286 286 285 285 284 291 292 293 293 294 294 294 295 296 297 297 299 299 300 301 303 304 304 307 306 306 307 307 306 306 307 306 308 309 308
288 287 284 279 285 284 280 285 286 286 287 286 282 287 291 291 292 293 293 294 294 296 296 297 298 299 300 301 302 301 302 304 305 306 306 306 304 305 304 305 306 307 308 308
288 286 285 280 283 275 286 291 290 287 288 289 289 290 291 292 294 295 295 295 295 296 297 298 299 300 301 302 302 303 302 302 305 304 305 305 303 303 304 304 304 306 307 306
291 287 283 279 279 283 285 288 287 285 285 290 289 291 292 293 293 293 296 296 296 296 298 298 299 300 301 301 302 302 301 302 304 304 304 303 302 300 301 302 303 304 306 306
290 289 285 282 277 274 284 289 292 291 281 291 291 290 290 292 286 291 295 296 296 297 298 298 299 299 300 301 301 301 300 302 303 304 303 302 302 299 299 302 304 305 305 305
284 285 282 282 280 282 289 291 292 279 282 292 293 292 292 289 292 295 296 296 297 297 298 299 299 299 300 300 300 299 300 301 303 303 302 301 299 298 298 302 304 305 305 304
282 281 281 282 279 276 291 290 284 289 293 293 293 294 292 294 295 295 296 296 296 296 297 298 298 298 299 300 299 298 299 302 302 301 301 300 298 298 298 301 303 304 304 303
282 286 284 284 284 291 293 291 295 296 293 294 293 294 294 294 293 294 294 295 296 296 297 298 298 298 299 299 298 297 300 301 300 299 299 297 298 300 300 300 301 301 303 302
288 291 286 287 289 290 291 293 295 296 294 295 295 294 294 293 294 294 295 295 295 296 296 297 297 296 297 299 298 298 298 301 299 298 298 296 299 302 300 301 301 301 301 301
288 289 286 286 289 291 292 294 294 294 295 294 294 294 294 293 293 293 294 295 294 295 296 297 296 296 297 298 298 298 297 299 296 297 296 297 300 299 298 299 299 301 302 302
290 288 286 285 290 291 291 294 294 293 293 293 293 293 295 294 293 294 293 294 294 295 296 296 296 296 296 297 297 298 297 298 295 295 294 296 297 297 298 297 299 303 304 304

GFSCGP_sfc_thetae_024.txt.gz
Theta_e
310 301 298 300 301 300 298 296 295 299 304 302 301 301 303 306 306 305 306 306 306 307 309 310 310 311 312 313 314 313 315 317 326 330 327 319 315 313 313 312 311 310 310 310
303 299 303 303 303 301 299 297 297 301 305 301 299 299 303 305 306 305 304 303 303 303 304 305 307 308 309 309 311 312 314 314 315 327 328 325 318 315 314 313 312 311 311 310
300 303 305 301 301 299 299 297 297 297 300 301 299 297 301 304 305 304 302 301 300 299 300 302 303 304 306 307 308 310 311 313 314 314 325 321 318 315 313 313 313 312 311 310
301 304 301 301 299 300 295 301 299 298 295 290 299 287 296 300 300 300 299 299 299 298 300 301 302 303 303 304 308 309 310 311 313 313 313 320 320 316 315 314 314 311 311 310
299 301 300 298 299 301 296 302 299 299 295 294 295 291 295 300 297 298 299 299 297 298 299 300 301 303 304 305 307 308 309 309 311 312 312 312 318 320 317 315 312 312 311 310
301 306 303 300 303 303 303 300 298 296 294 288 294 294 293 295 296 294 295 295 295 296 298 300 301 303 303 305 306 306 307 308 310 310 310 310 311 318 318 314 312 311 310 310
300 301 303 304 297 304 300 294 286 286 287 288 295 291 292 296 295 292 292 293 294 295 297 298 299 300 302 303 304 306 306 306 308 309 309 308 309 312 319 317 314 309 309 308
293 292 299 300 297 294 294 293 287 281 283 286 293 286 292 296 294 294 294 294 294 294 296 297 298 299 301 302 303 304 304 304 307 309 309 308 308 310 314 319 317 311 310 309
290 293 299 298 299 298 294 289 292 287 289 285 288 292 296 293 291 292 292 293 293 294 296 297 298 299 299 300 301 303 304 303 304 306 309 308 308 308 309 316 317 315 312 310
292 283 292 297 298 297 294 295 285 285 278 277 283 284 285 286 288 290 291 291 292 294 296 297 298 299 299 301 301 304 301 300 302 304 309 309 309 307 307 309 314 314 313 310
292 287 289 292 291 288 289 287 288 287 284 277 277 281 289 288 289 289 291 292 292 293 295 296 297 298 299 300 301 300 300 300 300 303 307 307 308 308 307 307 309 312 313 311
291 286 281 285 292 293 290 287 287 282 280 281 278 279 291 290 291 292 291 292 293 295 296 297 297 297 297 298 299 299 300 300 300 302 304 306 307 309 307 305 305 306 310 312
290 285 279 284 289 291 289 290 290 287 285 280 276 278 292 291 291 292 291 291 293 295 295 296 297 296 295 297 298 299 300 301 302 301 302 304 306 308 306 305 305 306 308 311
292 285 282 278 282 287 284 286 287 285 279 279 280 281 286 288 289 290 290 292 293 294 294 295 295 296 295 297 298 299 299 301 302 302 302 302 305 306 306 306 304 305 307 310
291 283 285 286 287 286 285 284 285 283 283 279 281 282 286 288 288 289 291 292 293 293 294 295 296 296 296 297 297 299 300 300 300 300 302 303 304 306 305 305 304 304 306 307
291 283 285 283 286 286 283 285 285 285 285 284 284 283 289 290 290 290 291 292 292 293 295 296 296 296 296 297 297 298 298 299 300 299 299 303 304 305 304 304 304 304 304 305
287 285 282 277 284 283 279 284 285 285 286 285 280 285 289 289 290 290 291 292 292 293 294 294 295 295 296 296 297 297 298 299 299 299 299 301 304 303 303 304 304 303 303 304
286 285 284 279 281 272 285 289 289 286 287 288 287 289 291 290 292 292 293 292 293 294 293 294 295 295 296 297 297 298 298 298 298 298 298 301 302 301 302 301 302 302 303 302
289 285 280 276 277 281 284 287 286 284 283 289 288 290 290 292 291 290 294 295 295 295 295 295 295 295 296 296 297 297 297 297 297 297 299 301 301 299 300 299 300 301 302 303
290 288 283 280 274 271 283 289 292 290 278 290 289 289 289 290 283 286 293 295 295 297 296 295 295 296 295 296 297 296 296 296 296 297 300 301 300 299 298 298 298 301 303 303
282 283 279 280 277 281 288 290 291 276 279 289 289 290 290 287 289 292 295 295 296 296 294 296 295 294 295 296 297 295 295 294 296 298 300 299 299 298 299 298 296 301 302 302
281 279 279 280 276 274 291 289 282 286 290 291 291 292 291 292 292 293 294 294 294 293 294 295 294 294 295 296 295 294 294 296 296 297 299 298 298 298 299 295 296 301 302 301
280 284 281 282 281 289 291 289 292 292 291 292 291 292 292 291 291 292 292 293 293 293 294 295 294 293 294 295 295 293 295 296 296 295 295 297 297 297 297 295 295 298 301 300
286 289 284 284 286 288 290 292 293 293 292 293 293 293 293 290 291 291 292 292 292 293 293 294 293 292 293 294 295 294 295 296 295 293 294 297 297 296 295 299 298 299 300 300
286 287 284 284 287 289 290 291 293 292 293 293 293 293 291 291 290 290 290 290 290 291 291 292 291 291 292 293 294 294 294 294 294 293 295 295 295 293 296 298 299 300 301 302
288 285 283 282 288 287 289 292 293 291 291 291 290 290 290 289 288 289 288 289 289 289 290 290 290 291 291 291 291 292 293 293 293 293 295 294 293 292 296 297 298 304 303 304

GFSCGP_sfc_thetae_027.txt.gz
Theta_e
302 294 290 293 295 295 293 291 291 295 300 297 295 296 299 302 300 297 296 295 296 297 300 303 303 304 304 307 307 307 308 310 311 312 312 317 316 316 311 310 311 310 309 309
295 292 298 302 300 297 295 292 291 296 301 297 295 295 298 297 296 296 295 294 295 297 298 300 302 302 303 304 306 306 306 308 308 310 310 313 318 315 316 313 310 311 310 309
292 298 303 300 298 296 294 292 292 292 297 297 294 291 295 296 297 297 296 295 296 296 297 298 299 300 302 302 304 305 305 306 308 308 309 311 312 315 312 310 309 309 310 309
295 301 300 297 296 296 290 298 297 296 292 285 294 284 291 293 294 295 292 291 293 295 297 298 299 299 300 302 304 304 304 305 309 309 308 305 305 307 313 313 314 311 309 309
294 296 296 296 297 299 294 299 296 295 291 289 291 286 288 294 289 288 289 291 291 294 296 296 297 298 300 301 302 304 303 304 306 306 307 307 304 305 309 314 312 312 308 309
296 301 299 297 300 299 300 297 293 291 289 282 289 289 287 288 286 287 288 290 291 292 294 295 297 298 298 299 300 301 302 303 304 304 305 306 306 304 304 307 311 310 311 308
295 296 300 299 294 298 294 287 281 281 282 282 290 286 284 286 288 289 289 289 290 291 293 294 295 296 297 297 298 300 300 301 302 301 302 304 306 303 304 305 308 310 309 309
285 286 296 295 294 290 289 288 282 277 278 282 289 282 285 289 290 290 290 290 290 291 293 294 294 295 295 296 297 298 300 299 300 300 300 301 305 306 307 306 306 307 312 310
285 288 293 297 296 293 289 284 288 282 284 279 283 286 286 289 288 289 289 290 289 290 292 293 294 294 294 294 296 297 298 298 299 298 298 300 303 304 305 306 307 306 309 312
286 280 289 295 295 293 289 291 282 280 274 273 278 280 282 283 285 288 289 290 289 290 291 293 293 294 295 296 297 297 296 296 297 298 299 302 302 303 304 307 306 305 306 310
286 283 283 287 286 283 284 282 283 282 279 273 272 277 284 283 287 288 290 291 291 291 292 293 294 294 294 294 295 295 296 296 297 299 298 300 300 302 304 306 307 306 304 308
286 282 277 281 288 291 287 283 283 275 276 277 272 276 287 288 290 290 290 291 290 292 293 293 293 293 292 293 294 294 295 296 297 298 299 300 301 302 302 304 305 305 305 306
286 279 273 279 285 288 285 286 286 283 280 274 271 278 290 289 289 290 290 289 290 292 292 293 293 292 292 292 293 294 295 295 297 299 298 299 299 301 302 303 304 305 305 305
290 282 277 273 278 283 281 284 285 281 270 277 278 280 284 287 288 289 287 287 289 291 292 292 293 292 292 293 293 295 295 297 297 298 297 298 299 301 302 302 303 305 304 304
287 280 282 284 285 285 284 283 284 281 281 276 280 281 284 286 285 286 289 291 291 292 292 293 294 293 292 294 294 293 295 297 297 297 297 298 297 300 303 302 303 304 304 304
286 279 282 280 284 284 282 284 284 283 283 283 283 281 286 288 289 289 289 290 290 291 292 293 294 294 294 294 293 295 295 296 297 296 296 298 297 297 299 304 304 303 303 303
283 280 277 272 282 281 276 282 283 283 284 283 279 283 288 288 289 289 290 290 291 292 292 293 294 294 294 293 294 294 295 296 295 296 296 296 297 297 301 303 302 302 302 302
282 281 278 273 277 267 281 287 286 285 286 286 286 286 289 289 290 291 292 291 291 292 294 294 294 295 293 294 295 295 296 294 295 295 295 296 296 298 300 297 298 300 301 301
285 281 274 270 270 278 282 285 284 282 281 287 286 287 288 289 289 289 292 293 292 293 294 295 296 296 294 294 295 294 294 295 294 294 295 295 297 298 297 296 297 298 299 300
286 284 278 275 266 265 279 287 289 287 277 287 287 287 287 288 282 286 292 294 294 294 295 295 295 295 294 294 295 293 293 294 293 294 294 296 296 297 296 296 297 298 299 299
278 277 277 277 270 276 285 288 289 273 277 287 288 288 288 286 288 291 293 293 294 294 294 295 295 294 294 295 295 292 292 292 294 295 295 295 295 296 296 296 297 297 297 297
277 273 273 275 270 271 288 286 279 284 288 288 289 289 288 289 290 291 292 292 292 292 293 294 293 293 294 294 295 292 291 294 294 294 294 295 294 295 296 296 297 296 295 295
277 281 276 278 277 285 287 286 289 289 288 288 289 290 290 289 289 290 289 289 290 290 290 291 291 291 292 293 292 291 293 294 294 293 292 292 293 294 295 297 295 294 295 296
282 285 280 280 282 284 287 290 290 291 289 290 291 290 290 288 288 287 287 287 287 288 288 290 289 289 289 291 291 291 292 293 292 291 290 291 292 293 296 296 294 295 297 297
283 283 281 280 284 285 287 288 289 290 290 290 290 288 287 286 286 286 287 287 288 288 289 289 289 289 290 291 290 292 291 291 289 289 290 291 293 294 295 294 293 296 299 300
285 283 278 279 284 283 284 289 291 289 288 287 286 286 287 287 287 287 286 287 288 288 289 289 289 289 290 291 291 291 293 292 290 289 290 290 292 295 294 292 293 299 304 304

GFSCGP_sfc_thetae_030.txt.gz
Theta_e
300 293 289 292 293 294 291 289 289 292 298 295 293 292 293 294 293 292 291 292 293 295 297 299 300 300 301 302 302 301 304 304 308 309 309 309 309 317 316 312 311 309 308 309
294 290 297 298 298 296 294 290 290 294 299 295 293 290 293 293 292 292 292 291 293 294 295 296 298 299 300 299 300 302 301 304 305 306 306 305 305 311 314 315 311 311 309 308
291 296 301 299 296 294 292 290 290 291 295 294 292 289 290 293 292 292 292 293 293 293 294 294 295 296 298 298 298 301 301 303 304 304 305 306 306 307 308 310 313 312 309 310
293 299 298 296 294 294 289 296 296 294 291 284 293 281 288 290 287 288 287 288 291 292 294 295 295 296 296 297 298 300 301 301 304 303 302 302 302 302 303 305 310 312 310 308
292 294 294 294 295 297 293 297 295 294 290 287 288 285 285 287 284 285 287 288 288 291 292 293 295 296 296 297 297 298 299 300 302 301 300 300 299 302 303 303 303 305 310 310
296 299 297 296 298 298 297 293 290 289 287 280 286 287 285 282 283 285 287 288 289 289 292 293 294 296 296 296 296 297 298 298 300 299 299 298 297 300 300 301 301 303 305 309
292 295 297 297 292 295 292 286 280 280 280 280 288 284 281 284 286 286 287 288 289 289 292 293 293 293 295 295 295 297 296 297 298 296 297 297 297 300 301 301 301 301 303 305
283 284 291 294 292 288 288 286 280 275 276 280 287 280 281 287 288 288 288 289 289 289 291 292 293 293 293 295 294 295 296 295 296 296 296 297 297 300 302 302 301 302 302 304
281 284 291 295 294 291 286 283 287 281 280 278 281 281 285 286 286 286 287 288 288 289 291 292 293 293 293 293 293 294 295 295 295 296 297 295 295 300 301 301 302 303 303 305
284 278 286 291 293 290 287 289 282 280 274 273 276 277 280 282 283 286 287 286 288 289 290 291 292 293 293 293 293 294 294 294 295 295 295 298 297 300 300 301 301 303 303 302
284 281 282 285 284 282 284 282 282 281 278 273 271 276 283 283 284 286 287 289 290 287 290 290 291 292 293 293 292 293 294 295 296 295 296 296 298 299 299 300 302 303 302 302
285 281 277 279 285 289 285 282 281 275 275 276 272 275 287 285 288 289 288 289 288 290 291 292 292 291 291 292 292 292 293 293 294 295 295 296 298 299 297 298 301 303 302 302
284 278 273 276 283 286 283 284 284 282 278 273 271 277 287 289 289 289 286 287 288 290 291 291 291 291 291 292 292 293 294 294 294 295 295 295 296 296 297 298 301 303 302 301
289 280 276 274 277 281 280 282 283 281 270 276 278 280 285 286 287 286 287 288 288 290 291 292 292 291 291 291 291 292 293 293 294 295 295 294 295 296 297 298 300 301 302 301
285 279 280 282 283 283 283 282 283 280 281 276 280 280 284 286 284 286 288 289 290 291 292 292 292 291 291 290 291 291 292 292 294 294 294 295 295 296 296 297 300 300 301 303
285 278 280 278 283 282 281 283 283 283 283 282 282 281 287 286 287 287 288 289 289 290 291 292 293 294 294 294 294 293 292 292 294 293 294 295 295 295 295 296 297 300 303 302
282 280 276 272 280 279 275 280 282 282 283 282 278 283 285 286 287 287 288 288 288 290 291 292 293 294 294 295 296 292 293 293 293 293 294 295 295 294 295 296 300 299 299 298
281 280 277 272 276 268 279 285 285 283 285 285 285 285 287 287 288 289 290 289 290 291 292 293 293 294 295 296 296 294 294 294 294 293 293 294 294 294 295 295 296 295 295 296
284 280 274 269 270 277 280 284 283 281 281 286 285 286 287 288 289 288 291 291 291 291 293 294 294 295 295 295 295 295 294 293 293 293 292 293 294 292 293 293 294 295 295 296
284 282 277 274 266 266 278 285 288 285 276 285 285 285 285 287 280 284 290 291 291 292 293 293 293 293 293 294 295 294 293 293 292 293 292 294 293 292 292 293 293 295 295 296
278 277 276 275 268 275 283 286 287 274 276 285 286 286 286 283 285 288 290 290 291 291 290 290 290 290 290 292 292 291 292 291 293 294 293 293 294 292 292 291 293 294 294 295
277 273 273 274 269 271 287 285 280 282 285 287 287 287 286 287 288 289 288 287 287 287 288 289 288 289 290 290 290 289 289 292 292 292 293 292 291 292 293 291 292 293 294 295
277 280 276 277 277 284 286 285 287 288 287 287 286 287 287 287 285 286 286 286 287 287 288 289 288 288 289 290 291 289 290 292 291 291 290 291 290 291 291 290 290 292 295 293
283 284 280 280 282 284 286 287 288 289 288 289 288 287 286 284 285 285 286 286 286 287 287 288 288 288 288 290 291 291 292 292 291 290 290 289 288 289 290 292 293 294 293 292
284 283 280 280 283 284 285 286 288 289 289 287 286 286 286 285 285 286 285 286 287 287 288 289 289 289 289 290 291 292 292 292 291 290 289 288 289 288 290 291 293 295 294 294
286 283 279 280 284 283 283 286 289 287 285 285 285 285 286 286 286 287 286 286 287 288 289 288 289 289 289 290 290 291 292 291 291 290 289 289 290 291 290 291 294 297 298 299

GFSCGP_sfc_thetae_033.txt.gz
Theta_e
298 293 288 291 293 292 290 288 288 291 296 293 289 288 290 291 291 290 290 290 292 293 295 296 297 298 298 298 298 299 302 302 304 305 304 304 304 307 310 311 310 309 307 310
293 289 295 297 296 294 292 289 288 292 297 293 288 287 290 291 290 291 290 290 291 292 293 294 296 296 297 296 296 297 299 301 302 302 302 302 302 306 310 311 313 313 311 307
290 294 299 297 294 293 291 288 288 289 293 293 289 286 287 289 289 290 290 291 291 291 292 292 292 294 295 295 295 297 298 299 301 301 302 302 301 302 303 304 308 309 312 311
292 297 297 294 293 293 287 294 294 293 289 284 290 280 285 285 285 286 285 286 289 291 292 293 293 293 294 295 295 296 297 298 302 299 299 298 298 298 301 301 303 304 307 308
290 293 293 292 293 296 292 296 293 292 288 285 286 283 283 284 283 284 286 287 287 290 292 293 294 294 295 295 294 295 296 297 298 297 296 296 295 297 300 301 301 302 303 305
294 298 296 294 296 296 294 290 288 288 285 280 283 285 282 283 283 284 285 288 288 288 290 293 294 294 294 295 294 295 295 296 297 296 296 294 293 294 296 299 299 300 301 302
289 293 295 295 291 293 291 284 278 278 279 279 286 283 280 283 285 286 285 287 288 288 288 291 292 292 293 294 294 295 295 295 295 294 294 294 294 294 294 299 299 298 299 300
282 282 289 294 290 286 286 284 278 275 275 277 284 279 280 285 287 287 288 288 288 289 288 290 292 292 292 293 293 293 294 293 294 294 294 294 294 295 298 300 299 298 299 301
280 281 289 292 291 289 285 281 285 280 278 276 279 281 282 285 285 285 286 287 287 288 288 291 292 292 291 292 292 293 293 294 294 294 294 294 294 294 297 298 298 299 300 303
282 277 284 289 291 289 285 288 281 278 274 273 275 276 279 281 282 285 285 285 287 288 288 290 291 291 292 291 292 292 292 293 293 293 293 295 294 294 295 296 296 298 300 302
283 280 280 283 282 281 282 280 281 280 277 274 271 275 282 282 284 284 285 286 287 287 288 289 290 291 292 293 293 293 292 293 293 294 293 293 294 296 295 296 297 297 298 301
284 280 276 279 284 286 283 280 280 275 274 274 271 274 285 285 285 286 286 287 288 289 290 291 291 292 292 293 293 293 293 293 294 294 293 294 295 296 294 295 296 297 297 301
283 277 273 276 282 284 282 283 283 280 277 272 271 275 284 284 285 288 285 286 288 290 290 291 291 291 292 293 293 293 293 294 295 294 293 293 292 292 293 294 296 296 298 300
288 278 276 276 277 280 278 281 282 280 270 274 277 280 285 286 285 287 287 286 288 289 290 291 291 291 291 292 292 293 294 294 294 294 292 291 291 292 293 294 295 296 297 298
284 277 279 280 281 281 281 281 282 279 278 275 278 278 283 285 286 287 286 288 289 289 290 291 291 292 293 293 294 294 294 295 295 293 292 292 293 293 293 293 295 296 296 297
283 277 279 278 281 281 280 282 282 282 282 281 281 281 287 288 284 286 287 287 287 289 290 291 292 292 292 293 294 295 295 296 296 292 292 292 293 294 293 293 294 294 295 299
281 279 276 271 278 278 275 279 281 281 282 282 278 283 284 284 285 285 286 287 289 290 290 290 290 291 292 293 294 294 295 296 295 294 292 294 293 293 293 294 293 294 295 295
280 279 277 271 275 269 280 283 284 283 283 284 284 285 285 285 287 287 289 289 288 289 289 290 290 291 292 293 293 293 294 294 294 293 294 293 293 293 293 292 292 292 292 293
283 280 273 269 269 276 280 282 282 280 280 285 284 284 285 286 287 286 289 288 288 289 290 290 290 290 290 290 291 291 291 291 291 292 292 293 293 293 292 291 291 291 291 292
282 281 276 274 266 267 278 284 286 284 276 284 284 284 284 285 278 283 287 289 289 289 288 288 288 289 289 289 290 289 289 289 289 290 291 293 293 292 292 292 290 291 291 293
277 277 275 274 268 275 283 285 286 274 276 285 285 285 285 281 283 286 289 287 288 288 288 289 288 288 289 289 290 288 288 288 290 291 291 292 293 292 292 293 291 289 290 291
277 274 273 274 269 271 286 284 280 282 283 286 286 286 285 285 286 286 286 286 286 286 287 288 288 288 289 290 290 289 289 290 291 291 291 291 291 292 292 290 288 289 289 288
277 282 276 278 278 284 285 284 285 286 286 286 286 286 286 284 284 285 285 285 286 286 287 288 288 289 290 291 291 289 290 292 292 292 291 291 290 290 290 288 287 288 289 290
282 285 279 282 282 284 285 286 286 288 287 288 287 285 284 283 284 284 284 285 285 286 287 288 289 288 289 291 291 291 292 292 292 290 291 290 290 288 288 289 289 289 291 291
284 284 282 281 283 284 285 285 286 288 288 285 285 285 285 284 284 284 284 285 286 286 288 289 288 289 289 291 291 292 293 292 290 290 290 290 290 289 288 289 289 290 291 294
284 282 282 281 284 283 282 285 289 287 285 284 284 284 285 285 284 285 284 286 286 287 288 288 289 290 290 291 292 293 293 292 290 289 289 290 290 290 290 290 289 295 296 299

GFSCGP_sfc_thetae_036.txt.gz
Theta_e
296 292 287 289 291 291 289 287 286 289 294 289 286 286 288 290 289 289 288 289 290 291 294 295 296 295 295 295 295 295 299 299 300 300 300 300 301 304 306 308 310 309 308 308
292 287 293 295 295 293 291 287 286 291 295 289 286 285 288 289 289 289 289 288 289 291 292 293 294 294 294 293 294 295 296 299 299 299 299 299 299 302 304 305 306 308 311 311
289 293 298 295 293 291 289 287 287 288 292 289 286 284 285 287 288 289 289 290 291 291 291 292 292 293 294 293 293 295 296 298 298 298 299 299 298 298 300 301 302 303 305 307
291 296 295 293 291 292 286 293 293 291 288 282 288 280 283 284 284 285 285 285 287 290 291 292 293 293 293 294 294 294 295 296 299 296 296 294 294 293 297 298 301 301 303 303
289 291 292 291 292 294 291 293 291 290 287 283 284 283 283 283 282 283 285 286 287 287 289 292 292 293 294 294 293 293 294 295 296 295 294 293 292 293 295 297 298 300 300 301
292 296 294 293 295 294 293 289 287 286 284 279 281 283 281 280 282 283 284 287 287 288 288 289 292 293 293 293 293 294 293 295 295 294 294 293 292 292 293 295 297 299 299 300
288 291 292 294 289 291 289 281 277 277 278 279 284 282 282 284 284 285 285 285 287 288 288 288 290 291 292 292 293 294 294 293 294 293 293 293 293 292 292 294 297 297 297 298
282 283 288 292 288 285 285 283 278 275 274 276 283 279 282 284 286 287 286 286 287 287 288 287 289 291 291 291 292 292 292 292 293 293 293 293 293 293 293 295 296 296 296 297
279 280 287 289 289 288 283 281 284 279 277 275 277 281 282 283 284 285 284 286 286 287 287 288 290 290 290 291 291 292 292 293 293 294 294 293 292 292 293 294 295 295 296 299
281 277 283 287 289 287 284 287 279 278 274 273 274 275 278 280 282 284 284 284 286 287 288 288 289 290 291 292 292 291 292 292 293 293 293 294 293 293 293 294 293 294 296 297
281 279 279 282 281 280 281 280 280 279 277 274 271 275 281 283 284 283 284 285 286 287 288 289 289 291 292 292 292 294 294 293 294 294 294 293 294 293 293 292 293 294 295 295
282 278 275 278 282 284 282 279 280 276 274 273 271 274 284 283 285 285 285 286 286 288 289 290 291 292 292 292 293 294 294 293 294 295 294 295 295 294 292 292 293 293 293 294
282 277 274 277 280 283 280 282 281 278 276 272 271 275 284 282 283 284 285 285 286 288 289 290 291 290 291 292 293 293 294 294 295 295 295 294 294 293 293 292 293 293 293 294
287 277 277 277 277 279 279 280 281 279 271 274 276 279 283 283 283 284 286 285 286 288 289 289 289 291 291 292 292 293 293 295 294 295 294 293 293 293 292 293 293 293 294 293
283 277 277 279 280 279 279 279 280 278 278 276 280 277 282 283 283 285 285 286 287 287 289 290 291 291 290 290 291 292 293 294 295 294 295 295 295 294 294 293 293 293 294 294
282 277 278 277 280 279 279 281 281 281 281 280 281 280 287 287 282 284 284 285 286 288 289 290 289 289 290 290 290 291 291 292 293 293 293 294 295 295 293 292 292 293 293 294
280 278 275 271 277 277 275 278 280 280 281 281 277 282 283 282 284 284 284 286 287 288 288 287 288 289 289 289 289 289 289 290 290 290 291 292 293 293 293 294 293 292 292 293
279 278 277 271 274 269 280 282 283 282 283 284 284 284 284 284 285 285 287 287 287 287 287 288 288 288 288 289 289 289 289 289 289 289 289 290 291 291 293 293 292 292 292 292
282 279 273 269 269 276 280 281 281 280 280 285 284 285 284 285 285 284 288 286 286 287 287 287 287 288 288 288 289 290 289 290 289 288 289 290 290 290 291 291 291 291 291 291
281 280 276 273 265 268 279 283 285 283 276 283 284 283 283 284 278 283 284 287 286 286 287 287 287 288 288 289 290 290 289 289 289 290 290 291 291 291 290 291 292 293 293 292
276 276 274 273 268 275 282 284 285 274 280 283 284 283 284 281 283 285 287 286 287 286 286 288 287 287 288 290 291 289 290 289 291 292 292 291 292 291 291 291 291 292 292 291
277 274 273 273 269 271 285 283 280 283 282 284 284 285 285 285 286 285 285 285 285 285 286 287 287 288 289 291 291 290 290 292 293 293 292 291 292 292 292 291 289 288 287 286
276 281 276 277 277 284 287 285 285 285 284 285 285 286 285 284 283 284 284 284 285 285 286 288 288 288 289 291 291 289 291 293 293 293 291 291 291 291 291 289 288 287 287 286
280 283 279 279 282 285 287 287 286 287 286 287 287 285 284 282 283 283 283 284 284 285 286 288 288 288 288 290 291 291 293 294 293 291 290 289 289 290 291 288 288 287 287 286
282 282 280 279 284 285 286 285 285 287 288 287 285 284 284 283 283 283 283 284 285 285 287 288 288 288 289 290 291 292 293 293 291 291 290 289 289 289 290 291 290 289 290 289
282 281 279 283 289 285 283 284 287 287 287 285 283 283 284 284 283 284 283 284 286 286 287 287 288 289 290 290 291 292 293 292 291 290 290 289 290 290 291 289 289 294 295 296

GFSCGP_sfc_thetae_039.txt.gz
Theta_e
300 297 294 295 296 295 294 292 292 294 297 293 290 290 292 293 293 293 294 294 295 296 298 300 301 301 301 301 302 303 305 306 306 307 306 307 306 308 310 311 312 313 313 313
296 294 298 298 297 297 295 293 292 294 296 294 289 289 291 293 293 294 294 294 295 296 297 299 299 301 300 300 300 302 303 305 305 306 306 307 306 308 308 310 310 312 311 312
294 297 299 298 296 295 293 292 291 292 294 291 289 288 289 292 293 294 295 295 296 296 297 298 299 300 301 301 300 300 302 303 304 304 305 305 306 306 306 307 308 309 310 310
296 298 297 296 295 295 291 295 295 293 292 289 291 285 287 288 289 290 292 291 292 293 296 298 299 299 300 301 301 301 301 301 303 303 303 302 301 300 303 304 306 307 310 309
295 295 295 295 295 298 294 294 293 293 291 289 288 287 290 287 285 288 290 291 292 293 293 294 295 298 300 300 300 300 300 301 302 302 302 301 300 301 302 303 304 307 309 309
295 298 297 296 297 296 294 291 290 290 288 284 286 288 289 284 286 288 291 291 292 293 294 295 296 296 299 300 300 301 300 301 302 302 302 301 300 300 300 301 302 304 306 306
291 293 294 296 293 294 292 286 284 283 283 284 288 286 291 289 288 290 290 291 293 293 294 294 295 295 298 299 300 300 301 300 301 301 301 301 301 301 300 300 301 302 303 303
285 287 291 293 292 289 289 287 284 280 280 281 284 284 289 289 290 291 292 292 292 292 293 294 295 295 297 298 299 300 300 299 300 300 300 300 301 301 301 301 301 301 302 302
283 284 289 290 291 291 288 285 289 282 281 280 283 285 288 287 287 288 290 290 291 292 293 294 294 296 297 298 298 298 298 298 299 299 299 299 300 300 300 300 301 301 302 301
285 282 286 289 291 290 289 289 283 283 279 277 280 280 284 284 286 287 288 290 291 292 292 294 295 296 297 297 298 298 298 297 298 299 299 299 299 299 299 300 299 300 301 301
286 283 284 286 285 285 286 285 283 284 282 280 277 282 286 287 288 288 289 290 291 291 292 293 295 296 296 297 297 297 297 297 298 298 299 299 299 299 299 298 299 300 300 300
286 281 280 283 285 287 286 284 285 283 279 278 278 280 288 288 288 289 289 290 291 291 292 294 295 295 295 296 296 296 296 296 297 298 298 298 299 299 298 298 299 299 298 299
286 281 280 283 284 287 284 284 282 282 281 278 279 283 287 287 287 288 289 289 291 291 292 293 294 294 294 294 294 294 295 295 296 297 297 297 297 298 298 298 298 298 297 297
288 280 281 282 283 283 282 283 283 283 279 280 281 285 288 287 287 289 289 290 290 291 291 292 293 293 293 293 293 293 294 294 295 295 295 295 296 297 298 298 298 298 297 297
286 281 280 280 281 281 281 281 282 281 283 281 285 282 286 287 287 288 289 289 289 290 291 292 292 291 291 292 292 292 292 293 293 292 293 293 294 295 296 297 297 297 297 297
284 281 281 279 281 281 280 283 282 282 283 281 283 283 289 290 288 287 288 288 288 290 291 291 290 290 290 290 290 291 291 291 292 291 291 293 293 293 294 295 295 296 296 296
283 281 278 277 278 279 278 280 283 282 283 284 280 286 287 286 287 288 288 289 289 290 289 288 289 289 289 289 290 290 291 292 292 291 291 292 292 292 293 293 294 294 295 296
281 281 280 277 278 275 285 286 285 284 285 286 286 287 288 288 288 289 290 289 289 288 288 288 288 289 289 290 290 291 292 292 292 292 292 292 292 291 292 293 293 293 294 295
284 282 279 276 274 279 283 283 283 282 284 287 286 288 288 287 288 288 290 289 289 289 288 288 289 289 289 289 291 291 291 292 291 291 291 292 292 292 292 291 291 293 293 293
283 282 280 275 272 273 283 285 287 286 280 287 287 287 286 287 283 287 288 290 289 288 288 288 289 289 289 290 291 290 291 291 290 291 292 293 293 293 291 290 291 292 293 294
278 279 277 277 274 278 284 287 288 279 285 286 287 287 287 286 289 289 290 288 288 288 288 289 289 288 289 290 291 290 290 290 291 292 294 294 294 293 292 292 291 292 293 292
278 276 275 277 274 274 286 285 283 288 286 287 288 288 288 289 289 288 287 286 287 286 287 288 288 288 290 291 291 290 290 292 292 293 293 293 293 293 292 291 291 291 291 290
278 282 279 280 279 287 287 288 290 288 288 288 288 289 289 287 286 286 285 286 286 286 287 288 288 288 290 291 291 289 290 292 292 292 291 292 293 291 291 291 291 290 291 290
281 284 282 281 284 286 288 290 289 288 288 289 290 289 287 285 285 285 285 285 285 286 286 287 287 288 288 290 291 291 292 293 292 291 291 292 292 291 292 291 291 291 290 289
283 283 282 281 285 287 288 288 289 288 289 289 289 287 286 285 285 285 285 285 285 286 287 287 287 288 288 290 290 292 292 293 291 290 291 291 291 290 290 292 292 292 292 292
283 285 282 285 289 287 288 288 288 287 288 289 287 285 286 286 285 285 285 285 285 286 286 287 288 288 289 290 290 291 292 292 291 290 291 291 291 291 291 291 291 295 295 296

GFSCGP_sfc_thetae_042.txt.gz
Theta_e
306 303 300 301 302 301 300 299 298 300 301 300 298 298 298 299 299 299 300 300 300 300 302 304 305 305 305 306 306 307 307 308 308 308 307 307 307 308 308 310 310 311 313 313
303 300 302 302 301 300 300 298 298 299 300 300 299 298 299 298 298 299 299 300 300 300 301 303 304 305 304 305 305 306 306 307 308 308 308 308 307 308 309 310 310 310 311 312
300 301 302 301 300 299 299 297 297 296 299 298 297 297 296 297 298 299 299 300 300 300 300 302 303 304 305 305 306 305 306 306 307 308 308 308 307 307 306 307 308 309 310 311
301 302 301 300 299 300 296 299 298 297 296 294 296 291 295 297 295 297 298 299 299 300 301 301 302 304 305 306 306 306 306 306 306 307 306 305 304 303 305 306 307 308 309 309
299 299 299 298 299 300 298 298 297 297 296 294 294 292 297 296 293 295 297 298 299 299 300 300 301 302 303 306 306 307 306 306 306 306 306 305 305 305 306 306 306 307 308 308
300 302 300 300 300 299 298 296 295 296 295 290 293 293 297 293 295 296 297 297 298 299 299 300 302 303 303 306 307 307 306 305 305 305 304 304 303 303 304 305 305 305 306 307
297 298 298 299 297 298 297 294 291 290 290 291 293 292 296 298 296 298 296 297 298 299 299 299 300 301 302 304 305 304 303 302 303 303 303 303 303 303 303 303 304 304 304 305
293 292 296 296 296 294 294 293 290 285 288 290 291 289 296 295 297 298 298 298 298 298 299 299 300 301 302 302 302 302 301 301 302 302 302 302 302 302 303 303 304 303 303 304
291 290 293 293 295 295 293 292 294 289 288 287 292 293 296 293 294 295 296 297 297 297 298 299 300 301 301 301 301 301 301 301 301 301 301 301 301 301 302 302 303 304 303 304
290 288 290 292 294 295 294 295 290 291 285 284 289 289 292 291 292 294 295 296 297 297 298 299 300 301 301 301 301 301 300 299 300 300 300 300 300 301 301 301 301 302 303 303
291 288 288 290 291 292 291 291 290 290 289 286 286 290 296 295 295 295 296 297 298 297 297 298 299 300 300 301 300 299 299 299 298 299 299 299 300 300 301 301 301 302 302 301
290 289 288 289 290 291 291 290 292 288 287 288 286 288 295 295 295 296 297 298 298 298 298 298 299 299 299 299 298 298 297 297 298 299 298 298 299 299 299 299 300 301 300 301
291 289 288 288 289 291 289 290 289 289 289 287 286 290 294 294 295 295 295 297 297 297 298 298 298 298 298 297 296 296 297 297 297 297 297 297 297 297 297 298 299 299 299 300
292 289 289 289 289 290 288 288 289 289 287 288 288 291 295 295 295 295 295 296 296 297 296 297 297 297 296 295 295 295 296 297 297 297 296 296 296 296 296 297 297 297 298 297
292 288 287 289 288 286 286 287 288 286 289 286 290 290 293 295 296 296 296 295 295 295 295 296 296 295 294 294 294 295 296 296 296 295 295 295 296 296 296 295 296 297 297 297
291 288 287 286 286 286 285 288 288 288 288 288 289 288 295 296 295 294 294 294 293 294 295 295 294 293 293 293 294 294 295 295 296 295 295 296 296 297 296 295 295 295 295 295
289 288 286 285 284 284 284 288 289 289 290 289 287 293 294 293 293 294 294 294 293 294 294 293 292 292 292 293 294 293 294 295 294 293 294 294 294 295 295 294 294 294 295 295
288 287 287 284 285 282 290 292 290 289 291 292 291 292 295 295 295 295 295 294 294 293 293 292 292 292 293 294 294 294 292 293 293 293 293 295 294 293 294 294 294 294 294 294
290 289 285 283 283 287 291 289 288 286 289 294 292 294 295 294 293 294 295 294 294 294 292 292 293 293 293 293 293 292 292 292 292 291 293 293 293 292 293 293 293 293 294 292
288 289 286 283 280 281 290 289 291 290 286 294 293 293 293 292 288 292 294 294 294 293 292 292 292 293 292 293 293 292 291 290 291 292 292 293 293 294 292 293 293 293 293 293
285 285 283 284 282 286 292 291 291 284 290 294 293 293 292 291 293 295 295 294 293 292 292 292 292 291 292 292 291 290 290 290 293 293 294 294 294 293 293 293 293 293 292 293
287 285 284 284 281 280 292 290 287 295 295 293 294 294 293 294 295 294 293 292 291 290 290 291 291 291 291 291 291 290 290 293 294 294 293 292 293 293 294 293 292 292 292 292
285 290 290 288 288 294 294 295 297 296 294 295 294 295 294 293 293 292 291 290 290 290 290 291 291 290 290 292 291 290 292 293 293 292 292 292 293 293 293 292 292 292 292 291
289 291 287 288 293 293 295 297 297 297 295 296 296 295 295 293 292 291 290 290 289 290 289 291 290 289 289 291 291 291 292 293 291 291 291 292 292 293 293 293 293 293 292 291
290 289 290 291 294 294 295 297 297 297 296 294 294 294 294 292 291 290 289 289 289 289 290 290 289 289 289 290 291 292 292 292 290 291 290 291 292 292 292 293 293 292 294 294
292 291 289 289 295 294 294 296 297 294 294 295 294 293 292 291 290 290 289 289 289 289 289 289 290 289 289 290 291 291 292 291 290 290 290 291 291 291 292 292 292 296 297 297

GFSCGP_sfc_thetae_045.txt.gz
Theta_e
308 304 301 304 305 304 302 300 300 303 304 301 301 302 303 303 303 303 303 303 303 304 305 306 306 307 307 306 307 308 307 308 308 308 307 307 307 308 309 310 310 310 311 311
304 301 305 304 304 303 302 301 301 303 303 301 302 302 305 304 302 303 303 303 303 303 304 305 305 306 306 307 307 307 307 307 307 308 308 307 307 307 309 311 310 310 309 309
302 304 305 303 302 301 302 300 300 299 302 304 301 300 302 304 303 303 304 304 304 303 303 304 305 306 307 307 307 307 307 307 307 308 308 307 308 308 308 309 309 310 309 309
304 305 302 302 301 302 298 302 300 299 299 295 300 292 301 301 299 300 301 302 303 303 304 304 304 305 306 307 308 307 307 307 307 307 306 305 305 304 306 307 309 308 308 308
301 301 301 301 301 302 300 301 300 300 298 297 298 293 300 301 297 299 300 302 303 303 303 303 303 304 305 306 307 307 307 307 306 306 306 306 304 305 306 306 306 307 308 309
303 305 303 303 303 302 302 300 300 299 297 291 297 295 298 298 299 301 302 302 302 302 302 303 304 304 305 306 307 308 306 305 305 305 304 305 305 303 303 304 304 305 307 308
300 300 301 302 299 302 300 298 292 292 291 292 297 294 297 302 300 302 302 301 301 302 302 302 303 303 304 305 305 305 304 303 304 303 303 303 305 304 302 302 303 303 305 306
295 294 299 300 299 298 298 297 292 287 289 292 295 291 297 299 301 301 303 302 301 301 302 302 303 303 303 304 304 304 303 302 303 302 302 302 303 303 303 303 302 303 304 305
294 294 297 297 298 298 296 293 297 292 294 290 294 297 298 297 297 299 299 300 300 301 302 302 303 303 303 304 303 303 302 302 301 301 301 300 301 301 302 302 303 303 304 304
295 290 295 295 297 297 296 298 292 293 287 287 292 294 294 295 295 297 298 299 300 301 301 301 302 302 303 303 303 303 302 300 300 300 300 300 300 301 302 302 302 303 303 304
295 292 291 293 293 295 294 293 293 293 292 288 287 292 298 297 298 298 298 300 300 301 301 301 301 302 303 302 302 301 300 299 298 299 300 299 300 300 300 300 301 301 302 303
294 293 290 292 293 294 294 294 294 290 290 292 290 290 300 298 298 298 299 300 301 302 302 301 301 302 301 301 301 299 298 298 299 299 299 299 299 299 298 298 299 299 299 301
295 293 290 290 292 293 290 294 293 294 292 288 287 291 298 297 297 298 297 299 299 300 300 300 300 300 300 300 298 297 297 297 298 298 298 298 298 298 298 298 298 298 298 298
294 293 291 289 291 292 291 292 293 292 289 290 291 294 298 299 298 299 299 299 299 299 299 299 299 299 299 298 297 296 296 297 298 298 297 297 297 298 299 299 299 298 297 296
294 290 292 292 292 292 290 290 291 290 291 288 291 291 295 297 297 297 298 297 297 297 298 298 298 298 297 296 296 296 296 297 297 297 296 297 297 298 297 296 296 297 297 296
295 290 291 289 291 289 287 290 291 291 291 291 291 291 298 297 298 297 298 298 296 297 297 297 297 296 295 294 295 295 295 296 297 295 295 297 296 295 294 295 296 296 296 297
292 291 289 287 289 289 287 292 293 293 294 293 289 294 297 296 296 297 297 297 296 296 296 296 296 294 294 294 295 294 295 296 295 294 294 294 294 293 294 294 294 294 294 295
292 290 290 286 289 283 293 298 296 291 292 294 294 295 296 296 298 298 298 297 296 296 296 296 294 294 294 295 295 295 295 295 294 293 293 293 293 293 294 294 293 294 294 294
293 291 288 285 287 291 293 291 291 289 290 296 295 295 296 297 297 297 298 297 296 296 296 295 294 294 294 294 295 294 293 293 292 291 293 293 294 293 293 292 293 294 293 294
291 292 289 289 283 282 291 292 294 293 288 295 295 295 295 296 290 295 297 297 297 297 295 294 294 294 294 294 294 292 292 291 291 292 293 294 294 292 293 293 293 294 294 293
288 289 286 288 286 289 296 294 294 286 290 297 297 296 295 293 295 298 298 297 297 295 294 294 293 293 293 294 293 291 291 290 292 293 294 293 292 293 293 293 294 293 293 293
290 289 288 289 286 283 297 293 289 295 298 298 297 297 296 297 297 297 297 296 295 294 293 293 292 292 293 293 292 291 290 293 293 292 292 292 292 293 293 293 293 294 293 293
288 292 291 292 291 299 298 296 299 299 297 297 297 298 297 296 296 296 295 295 294 293 292 293 292 291 292 293 293 290 291 292 292 292 291 291 292 292 293 293 293 292 292 291
294 296 291 292 294 296 298 300 300 300 298 298 298 297 297 295 296 295 294 294 292 292 291 292 291 290 291 293 292 291 292 292 291 291 291 291 291 292 293 293 293 292 292 291
294 293 292 292 294 296 297 298 298 298 299 298 298 298 296 296 295 295 293 293 292 291 291 292 290 290 290 291 291 291 292 292 291 291 291 291 291 292 291 292 292 293 294 294
295 293 290 290 294 294 294 297 298 297 296 297 296 296 297 296 294 294 293 292 291 291 291 290 290 290 290 290 290 291 292 293 291 290 290 291 291 291 291 291 291 296 298 298

GFSCGP_sfc_thetae_048.txt.gz
Theta_e
310 302 298 302 304 303 300 298 297 300 304 302 300 300 302 302 301 300 300 299 299 299 301 302 301 299 298 301 301 301 301 301 301 301 300 300 300 301 302 303 304 304 305 305
304 297 305 306 305 302 301 298 298 303 303 300 299 298 303 302 300 301 301 299 299 299 299 300 301 300 301 301 301 301 301 301 301 301 301 300 299 301 302 304 304 305 304 304
299 304 305 303 304 300 300 298 298 297 302 302 299 297 300 303 302 301 301 301 300 299 298 299 299 300 302 301 301 302 301 301 302 302 301 301 301 301 300 301 302 303 304 304
303 305 303 303 300 302 297 302 301 299 297 291 299 287 295 299 297 298 299 299 299 299 299 299 298 297 301 300 302 302 301 301 303 301 300 298 297 296 298 299 300 301 302 302
302 303 302 300 301 303 299 303 300 300 295 293 293 289 293 298 295 296 297 298 299 299 299 299 299 298 297 300 300 302 302 302 301 300 299 298 297 298 298 298 298 299 300 301
302 306 304 302 303 303 303 299 299 298 294 286 292 291 292 294 296 297 298 298 299 299 299 298 298 298 299 301 302 302 301 300 300 300 299 297 296 296 296 296 297 298 298 299
300 300 301 302 299 302 300 295 288 286 286 287 295 292 291 296 297 297 298 298 299 298 297 297 297 298 298 299 301 302 300 299 299 298 297 296 296 296 295 295 296 295 297 297
293 292 299 301 299 295 298 294 287 282 283 286 294 287 292 297 298 297 299 299 298 297 297 297 298 298 298 299 300 300 299 298 298 297 296 296 295 295 295 295 297 297 297 298
292 292 297 298 299 298 295 290 295 288 289 285 289 292 294 294 294 294 295 296 296 297 297 297 298 298 298 299 299 298 297 297 297 296 294 294 294 295 295 296 297 298 298 300
294 288 296 295 297 297 294 296 288 288 282 280 287 288 288 290 291 293 293 293 296 297 297 297 297 298 298 298 298 298 297 296 295 294 294 295 294 295 296 296 296 296 297 297
294 291 290 293 292 293 291 289 290 289 287 281 280 285 291 293 294 293 294 295 296 297 297 297 297 297 298 298 297 296 295 294 293 294 294 294 294 295 296 296 296 296 296 296
293 290 287 291 293 295 293 292 291 285 285 287 284 285 294 294 294 295 294 296 296 297 298 298 297 297 297 296 296 295 294 293 293 293 294 294 295 295 295 295 296 296 296 296
294 289 285 286 290 292 289 292 292 290 288 284 280 284 294 294 293 294 292 293 295 295 296 296 296 295 295 295 295 293 292 292 293 294 294 294 294 294 295 295 295 296 295 295
295 291 288 285 287 291 288 291 292 288 282 284 285 289 293 293 293 293 293 293 293 295 296 295 295 294 294 294 293 291 291 292 293 294 293 293 293 294 294 294 294 294 295 295
293 288 290 291 292 291 290 289 290 287 288 283 287 288 291 292 291 291 292 294 293 294 295 295 294 293 293 292 290 291 292 293 293 293 292 292 293 293 293 293 294 294 295 295
294 288 290 287 292 289 287 289 289 289 290 289 289 288 293 293 293 292 292 294 294 294 294 295 294 294 292 290 290 291 291 292 292 292 292 293 292 292 292 293 293 293 293 294
292 289 286 284 289 289 285 290 291 290 292 290 285 290 293 292 294 293 293 294 294 293 293 293 293 291 290 290 291 290 291 292 292 291 291 291 292 292 292 293 293 293 293 294
291 289 287 283 286 279 290 294 293 292 292 292 292 293 294 293 294 293 295 294 292 293 293 292 291 290 290 291 291 291 291 291 291 290 290 291 292 292 292 292 292 292 293 293
292 289 285 281 282 288 290 290 290 287 287 294 292 293 294 295 294 293 294 294 292 292 293 291 291 290 290 290 291 290 290 290 290 289 289 291 292 291 292 291 291 292 292 293
291 290 285 284 278 277 289 291 294 292 282 295 294 293 293 293 285 289 295 294 293 293 293 291 290 290 289 290 290 289 289 289 289 289 291 292 292 291 291 291 291 292 293 293
285 284 281 283 282 286 294 293 294 281 285 294 294 293 292 289 291 294 296 294 294 293 293 291 290 288 289 290 290 288 288 288 289 291 292 291 292 292 292 292 292 292 292 293
286 285 284 284 281 279 294 291 286 291 294 295 294 294 293 294 295 295 295 294 294 292 291 291 289 288 289 289 289 288 288 290 291 291 291 291 292 292 292 292 292 293 293 291
285 289 286 288 288 295 295 294 297 296 293 293 293 294 295 294 293 294 293 292 292 291 290 290 288 288 288 288 289 287 288 290 291 291 290 291 292 292 292 292 292 291 292 291
292 294 288 288 291 293 294 295 295 295 294 295 295 295 295 293 293 293 293 292 291 290 289 289 289 287 287 288 289 288 290 291 291 290 290 291 291 292 292 292 292 291 291 291
291 292 289 288 291 292 293 294 295 295 296 296 296 295 294 294 293 293 292 291 291 289 289 289 288 287 287 288 288 288 291 291 290 290 290 290 291 291 291 292 292 292 294 297
292 290 287 285 291 289 290 294 295 294 294 294 294 294 294 294 292 292 291 292 290 288 289 288 288 287 287 287 288 289 291 291 290 290 289 290 291 290 291 290 290 295 299 300

GFSCGP_sfc_thetae_051.txt.gz
Theta_e
304 296 292 295 298 298 295 292 291 294 301 298 295 296 298 299 297 296 296 294 295 296 297 298 299 298 298 297 297 297 299 297 298 297 296 296 296 297 299 300 302 302 302 302
297 292 299 303 301 299 297 293 293 297 301 297 295 296 298 299 298 299 297 295 295 295 295 296 298 298 299 299 298 297 298 298 298 298 297 297 296 297 298 300 300 302 301 301
293 300 304 302 299 298 296 293 293 293 298 298 295 293 295 297 297 299 299 298 296 295 295 295 295 297 297 298 297 298 299 299 298 298 298 297 296 296 296 297 298 300 300 301
297 302 301 299 298 298 292 299 299 297 292 286 294 283 290 293 293 296 296 295 296 295 295 295 295 295 296 297 298 298 299 299 301 298 296 294 293 293 295 295 297 297 299 299
294 298 297 297 299 300 296 300 297 296 290 287 288 285 287 293 291 293 294 295 296 296 297 297 297 297 297 297 298 299 299 300 298 297 296 295 294 294 295 295 295 295 296 297
298 302 299 298 301 300 300 296 294 293 289 282 287 287 286 290 293 293 293 295 297 296 296 297 296 297 297 298 299 299 298 298 298 297 296 294 292 292 293 293 292 293 294 296
295 296 298 300 295 298 296 289 282 282 282 282 290 287 288 292 293 295 295 294 296 296 295 295 295 295 296 297 298 299 298 297 297 295 295 294 293 291 291 291 292 292 293 293
288 287 294 298 294 291 293 290 283 279 280 282 290 284 287 291 293 294 296 295 295 295 294 294 295 295 296 297 297 297 297 295 296 295 294 292 291 292 292 292 292 292 293 294
285 287 294 295 295 294 290 285 289 284 282 279 283 286 290 291 291 292 292 293 293 293 294 295 296 296 296 296 296 296 295 295 294 293 291 291 291 292 292 292 292 293 293 296
287 282 292 293 294 294 290 292 285 284 278 276 281 282 285 287 288 290 291 291 293 294 295 295 296 296 295 295 295 295 294 293 292 291 291 292 291 292 292 292 292 292 293 295
287 285 285 289 287 288 287 285 286 285 283 278 276 281 288 288 289 289 288 291 294 295 295 295 295 294 295 295 294 294 293 291 291 291 291 291 291 292 292 292 292 293 294 293
288 285 282 285 288 291 289 287 286 281 280 281 278 281 289 290 291 292 291 293 293 295 295 295 294 294 293 293 293 292 291 290 290 291 291 291 291 291 291 291 293 293 293 294
289 283 279 282 287 289 284 287 288 285 283 279 276 281 290 289 290 291 290 292 292 293 293 294 293 292 291 291 291 290 289 289 290 291 290 290 291 291 291 290 292 293 293 293
292 285 283 280 282 286 283 288 288 285 276 279 281 283 288 289 289 289 289 289 290 292 293 293 292 290 290 291 289 289 289 290 290 291 290 289 289 290 290 292 292 292 293 292
289 284 285 287 289 288 287 287 287 284 284 280 283 285 287 288 287 288 289 292 291 292 293 292 291 290 290 288 288 288 289 289 290 289 289 289 290 291 291 291 291 292 294 293
288 283 285 283 288 287 285 287 287 287 287 285 286 285 289 290 289 290 290 291 292 292 292 292 292 291 289 288 287 288 288 289 289 289 290 290 290 290 291 291 292 293 293 293
287 284 281 278 286 286 281 287 288 287 288 287 282 286 290 289 291 290 291 291 291 291 291 291 290 289 288 288 289 288 288 288 288 288 289 289 290 290 290 292 292 291 292 292
286 284 282 276 281 275 285 290 290 289 289 290 289 290 291 290 291 291 290 289 289 291 290 290 288 288 288 288 288 288 289 288 288 287 288 289 290 290 291 291 291 291 292 292
287 284 279 275 274 282 286 287 287 285 285 291 289 291 291 292 290 289 292 292 291 290 290 289 288 288 288 288 288 288 287 287 287 287 287 289 290 290 290 290 290 291 291 292
288 285 280 278 272 272 285 288 291 289 278 291 291 290 290 290 284 285 293 293 292 291 291 289 289 289 287 287 288 287 286 286 286 288 289 290 291 290 290 291 291 292 292 292
280 279 276 275 273 280 289 290 291 278 281 292 292 290 290 287 288 291 294 293 292 291 290 289 288 287 287 288 287 286 285 285 288 289 290 291 291 291 291 292 292 292 292 292
281 277 277 277 274 276 291 289 284 287 290 291 290 290 291 291 292 293 293 293 291 289 289 289 287 287 288 288 286 285 284 288 289 289 290 290 291 292 292 291 292 292 292 291
281 286 282 283 282 291 291 290 291 292 290 290 290 292 292 291 292 292 291 290 290 288 288 288 287 286 287 286 286 284 286 288 288 289 290 290 291 291 292 292 291 291 291 291
288 289 283 284 287 288 290 291 292 291 290 292 292 292 292 291 291 291 291 290 289 288 288 288 287 285 285 286 286 286 287 288 289 289 290 290 290 291 292 292 291 291 290 291
288 287 285 284 287 289 289 290 290 292 292 292 292 292 292 291 291 291 290 289 288 287 287 287 286 285 285 286 286 286 287 288 288 290 290 290 290 291 290 291 291 291 294 296
290 287 283 282 287 286 286 290 291 291 291 291 291 291 292 291 290 290 289 288 287 286 287 286 286 285 285 285 285 286 288 289 288 289 289 290 291 290 290 290 289 295 299 300

GFSCGP_sfc_thetae_054.txt.gz
Theta_e
302 296 291 293 297 295 294 291 291 293 300 297 295 295 296 298 296 295 293 293 293 294 296 296 297 297 296 295 295 296 297 296 297 296 295 294 295 295 296 298 299 299 300 300
295 292 296 301 300 298 295 292 291 296 300 296 295 295 297 297 297 298 296 294 294 293 293 294 296 296 297 296 295 295 297 297 296 296 295 295 294 295 296 298 298 299 299 299
292 298 302 300 298 297 295 292 291 292 296 295 293 292 293 296 296 297 296 296 295 294 294 293 294 295 296 296 295 296 297 297 297 296 296 295 295 295 295 295 296 297 298 298
295 300 300 297 296 296 290 298 297 296 291 286 292 282 289 291 292 294 295 294 294 293 294 295 294 294 294 296 296 297 297 298 299 296 295 293 292 292 293 293 295 295 296 296
293 296 296 296 297 298 294 299 295 294 288 286 286 284 287 290 289 292 294 294 294 293 294 294 294 295 295 295 296 297 298 299 298 296 294 294 292 292 293 293 292 292 294 295
295 300 298 297 299 298 299 294 292 290 287 281 285 285 284 288 291 291 292 294 295 294 294 295 295 295 295 295 296 297 298 298 297 296 295 293 291 290 290 290 290 292 292 293
293 295 296 298 293 296 294 287 280 280 281 281 287 284 285 290 290 292 294 294 294 294 294 294 293 293 294 296 297 298 297 296 296 295 293 292 291 289 289 290 290 290 291 292
287 286 293 296 293 291 291 288 282 279 279 282 286 283 287 290 292 291 294 294 294 294 293 293 293 293 294 296 296 296 296 295 294 293 292 290 290 290 290 291 291 291 291 292
284 287 293 294 293 293 289 285 288 283 280 278 281 286 290 289 290 291 291 292 293 294 293 293 293 294 294 295 295 295 295 293 293 291 290 289 290 290 290 291 291 291 292 294
285 282 290 292 293 292 288 291 284 282 276 276 280 280 283 286 286 288 289 289 291 293 292 293 293 294 294 293 294 293 293 291 290 290 289 291 290 290 291 290 290 291 291 292
286 284 283 287 286 286 286 284 284 284 281 277 275 279 286 286 288 288 288 291 292 292 292 292 292 293 293 293 292 291 290 289 289 290 290 289 290 290 290 290 291 291 291 291
286 284 281 283 287 289 288 285 284 280 279 278 276 280 288 286 290 291 290 291 291 292 294 294 293 292 291 291 291 289 288 288 289 290 289 289 289 290 289 289 289 290 291 292
287 281 278 281 286 288 283 285 286 284 281 278 275 279 288 287 288 289 288 288 291 291 292 293 291 290 290 289 288 288 288 288 289 289 289 289 289 289 288 289 290 291 291 291
291 283 282 280 282 285 283 286 286 283 275 278 279 281 286 288 287 288 288 289 290 291 292 291 290 289 288 287 287 287 288 288 289 289 288 288 288 288 289 289 290 291 291 291
287 281 283 285 287 287 286 286 286 283 282 280 281 283 286 287 285 287 288 291 291 291 292 291 289 288 287 286 287 287 288 288 288 288 288 288 289 289 289 290 290 291 292 292
287 281 283 282 287 286 285 286 287 285 285 284 284 283 288 289 288 289 289 290 290 290 290 290 290 288 288 287 286 287 287 287 288 287 288 289 289 289 289 290 290 291 292 292
286 283 280 278 284 284 279 285 286 286 286 285 281 284 288 288 290 289 289 288 289 289 290 290 290 288 287 287 288 286 286 287 286 286 287 288 288 288 289 290 291 290 290 291
285 283 281 275 280 274 283 288 288 287 288 288 288 288 289 289 291 290 290 289 290 290 290 290 288 287 287 287 287 287 287 286 286 285 286 287 288 288 290 290 290 290 291 291
286 283 278 274 273 280 284 285 285 284 284 289 287 289 290 291 289 287 291 291 291 290 290 288 288 288 287 287 287 286 286 285 286 286 286 288 288 288 290 289 290 291 291 291
286 283 280 276 271 271 282 287 289 288 278 289 290 289 289 289 283 285 291 292 292 292 290 288 288 287 286 287 286 285 285 285 284 286 287 288 288 289 290 290 290 291 292 292
280 278 276 275 272 278 287 290 290 278 279 289 289 289 288 286 287 290 292 292 292 290 290 288 286 286 286 286 285 284 284 284 286 287 288 288 289 290 291 291 291 291 292 292
280 276 275 275 273 275 291 287 284 286 288 289 288 289 289 290 291 292 292 291 291 289 288 287 286 285 286 285 284 283 283 286 287 287 287 288 290 291 291 291 292 292 291 291
281 284 281 282 281 289 289 288 291 290 289 288 288 290 290 290 290 290 290 290 289 287 287 287 286 285 285 285 285 283 285 286 287 287 287 288 290 290 291 291 291 290 291 290
287 288 283 284 286 287 289 290 290 290 289 290 290 290 290 289 290 289 289 289 288 287 286 287 285 284 284 285 285 284 285 286 286 286 287 289 289 291 291 292 291 290 290 291
288 287 284 283 285 287 288 288 289 290 290 290 290 290 290 289 289 289 289 288 287 286 286 286 285 284 284 285 284 284 286 286 286 286 289 289 290 290 290 291 291 292 293 297
288 287 283 283 287 286 285 288 290 290 290 290 289 289 290 290 289 289 288 288 286 286 286 285 285 285 284 284 284 284 286 286 286 288 289 289 290 290 290 290 290 295 298 298

GFSCGP_sfc_thetae_057.txt.gz
Theta_e
301 295 290 294 295 294 293 290 290 291 297 296 294 294 296 297 295 294 293 292 292 292 294 294 295 295 295 294 294 294 296 295 295 295 294 293 294 294 295 296 297 297 298 298
295 291 295 298 299 297 294 291 290 294 298 296 293 294 296 296 296 297 296 293 293 292 293 293 294 294 294 294 294 294 295 295 295 295 294 294 293 294 294 296 296 297 297 297
291 296 300 299 296 295 293 291 290 291 295 294 293 291 292 295 295 297 296 296 295 293 293 292 292 294 294 293 294 295 295 296 296 296 295 294 293 293 294 294 294 296 295 295
294 298 298 296 294 295 289 296 296 295 290 286 292 283 289 290 292 293 293 292 293 292 293 293 293 293 293 294 294 295 296 296 297 295 294 292 292 291 292 292 293 293 294 294
292 295 295 294 295 297 293 298 294 293 288 286 286 283 286 290 290 291 291 292 293 293 294 293 293 294 294 294 294 295 296 297 297 295 294 293 291 291 291 291 291 291 292 293
294 298 296 296 297 297 298 293 290 289 286 280 284 283 285 287 289 291 291 293 294 293 293 293 294 292 294 294 295 295 296 297 296 295 293 292 290 290 289 289 289 290 291 292
292 293 295 297 293 295 293 286 281 279 280 279 286 283 285 288 289 290 292 294 294 293 292 293 293 292 293 293 294 296 296 295 295 293 292 291 289 288 288 289 289 289 290 290
285 285 292 294 291 289 289 286 281 278 279 282 285 282 286 288 290 290 292 293 293 293 292 292 293 292 292 294 295 295 295 294 293 291 290 289 289 289 289 289 290 289 289 290
283 285 291 293 292 292 287 285 287 282 279 277 280 284 288 289 289 290 291 292 292 293 293 293 292 292 292 292 293 294 294 292 290 289 289 289 289 289 289 289 289 289 290 293
284 281 288 291 291 291 288 290 283 281 276 275 278 279 283 285 287 289 290 291 291 293 292 291 291 292 292 291 292 291 290 289 288 289 289 290 289 289 289 289 289 289 290 290
285 283 282 286 284 284 286 284 283 282 280 277 275 278 284 284 287 286 288 289 290 291 291 291 291 291 292 291 290 289 288 288 289 289 289 289 289 289 289 289 289 289 290 291
285 282 280 283 286 288 286 284 283 279 277 277 275 280 287 285 287 288 288 290 290 291 292 292 292 290 289 289 288 287 287 288 289 289 288 288 288 288 288 288 288 289 290 291
286 280 277 280 284 286 282 285 285 283 280 277 275 279 287 287 288 288 288 288 289 290 292 291 289 288 288 287 286 287 287 288 288 288 288 288 288 287 287 288 289 290 290 290
290 282 281 279 281 284 282 284 284 282 275 277 278 280 285 286 286 286 288 288 289 290 291 290 289 287 287 286 286 287 287 287 288 288 288 287 287 287 288 289 289 289 290 289
286 280 281 283 285 285 284 285 285 282 281 279 281 282 284 284 285 286 287 289 289 290 290 289 289 288 287 286 286 286 287 287 287 287 287 287 288 288 288 288 289 289 290 290
285 280 282 281 286 285 284 286 285 285 283 282 282 282 285 287 286 288 287 288 288 289 290 290 290 289 287 286 286 286 286 287 286 286 286 287 288 288 288 288 289 289 290 291
284 282 280 278 282 283 280 283 285 284 284 284 281 283 286 286 288 288 288 288 289 289 290 290 290 288 287 286 287 286 286 286 285 285 286 286 287 287 288 288 289 290 290 291
284 282 280 275 279 274 281 286 287 286 286 287 287 287 288 288 289 290 290 288 289 290 290 289 288 287 287 287 286 286 286 285 285 285 285 286 286 287 288 288 288 290 291 290
285 282 277 274 273 279 282 285 285 284 284 289 286 288 288 290 288 287 290 290 290 290 290 289 287 287 286 286 286 285 285 285 284 285 285 286 287 287 287 287 289 290 291 291
284 282 279 276 270 270 280 286 288 287 278 288 288 287 287 287 280 283 290 291 292 292 291 288 287 286 285 286 285 284 284 283 283 285 286 287 287 287 287 288 290 291 291 292
279 277 275 274 271 278 285 288 288 278 279 288 288 287 286 285 286 289 291 291 292 291 289 287 285 285 285 285 284 283 283 282 284 286 287 287 287 287 289 290 291 291 292 292
280 275 274 274 273 274 289 286 283 285 287 288 287 287 287 288 289 290 290 290 290 289 288 286 285 285 285 284 283 283 281 284 285 286 286 286 287 289 290 290 292 292 291 291
280 283 279 280 280 287 287 287 289 289 288 286 286 288 288 288 288 289 289 289 289 288 287 286 285 284 284 284 284 282 283 284 285 285 285 286 289 290 291 290 291 290 291 290
285 286 282 283 285 286 287 288 289 289 288 289 288 289 289 287 288 288 288 288 287 287 286 286 285 284 283 284 284 283 283 285 285 284 285 288 289 290 290 291 292 291 290 291
286 285 283 282 284 285 286 287 288 289 289 289 289 289 288 288 288 288 287 288 287 286 286 285 284 284 284 284 284 284 284 285 284 284 285 288 289 289 289 291 291 291 292 295
286 285 283 282 286 285 285 288 290 289 288 288 288 288 289 288 288 288 287 287 286 285 285 284 284 284 284 284 283 284 285 285 284 285 287 288 289 289 290 290 290 294 296 297

GFSCGP_sfc_thetae_060.txt.gz
Theta_e
299 293 292 300 296 293 291 290 289 291 295 294 292 293 295 295 294 294 293 292 292 292 293 294 295 295 294 294 293 294 295 294 294 294 293 293 293 293 294 295 295 296 296 296
294 290 294 297 297 296 293 290 289 293 297 295 293 293 296 295 294 296 295 294 293 292 292 292 293 293 293 294 293 293 294 294 294 294 293 293 292 292 293 295 294 296 295 295
291 294 299 298 295 294 292 289 289 290 294 293 292 290 292 293 294 295 295 294 294 293 292 291 291 292 292 292 293 293 294 294 295 295 294 293 292 292 292 293 293 294 294 294
293 297 297 295 294 294 288 295 295 293 290 285 291 282 288 290 292 292 293 292 293 293 292 292 292 292 292 292 293 293 294 294 295 294 293 292 291 291 291 291 292 292 292 292
290 294 294 293 294 295 292 296 293 292 287 285 285 283 286 290 290 291 292 292 292 293 293 292 292 294 292 292 293 293 294 294 296 293 293 292 291 290 290 290 289 290 291 292
293 297 295 294 296 296 296 291 289 288 286 280 283 282 284 286 289 289 290 293 293 293 292 292 292 292 292 293 293 294 294 295 295 294 293 291 290 289 288 288 288 289 290 291
290 292 293 296 292 294 291 287 281 279 280 279 285 283 285 288 289 288 289 290 293 293 292 292 292 292 292 293 293 295 295 294 293 292 291 289 288 287 287 288 288 288 289 289
285 284 290 293 290 288 287 286 280 277 278 280 284 281 286 288 289 289 291 291 292 292 292 291 292 291 291 291 292 294 294 293 291 289 288 288 288 288 289 289 289 288 288 289
283 283 290 291 291 291 287 284 286 281 278 277 280 282 287 288 289 289 290 292 292 293 292 291 290 291 291 291 292 293 293 290 288 288 288 288 288 288 288 288 288 288 289 291
284 281 287 290 291 290 287 289 282 280 276 274 277 278 281 284 286 288 287 287 289 290 290 290 291 291 291 290 290 289 289 288 288 288 288 289 288 288 288 288 288 288 289 289
283 283 281 285 284 284 285 283 282 281 279 277 275 278 283 283 286 285 286 288 289 289 290 290 290 289 289 289 288 287 287 288 288 288 288 288 287 288 288 287 288 288 289 289
284 282 279 281 284 287 285 283 283 279 276 276 274 279 286 284 285 287 286 288 288 289 290 290 289 288 288 287 286 286 287 287 288 288 287 287 287 288 286 286 287 288 288 290
285 280 277 279 283 285 281 283 283 281 280 277 275 279 286 285 286 286 286 287 289 290 290 289 288 287 287 286 286 286 287 287 287 287 287 287 287 286 286 287 288 288 289 289
289 280 280 278 280 283 280 283 283 281 274 276 278 279 283 285 284 286 287 287 287 289 290 290 289 288 287 286 285 286 286 286 287 287 286 286 286 286 287 288 288 288 288 288
284 279 279 282 283 283 283 284 283 281 280 279 280 281 282 283 284 285 286 288 288 289 290 290 289 289 287 285 285 286 286 286 286 286 285 285 286 286 286 287 288 288 288 289
284 280 281 279 284 284 283 285 284 283 282 281 281 281 285 285 286 286 286 288 288 288 289 290 290 289 288 286 285 286 285 286 285 284 285 286 286 286 287 287 287 288 288 289
283 282 280 278 281 282 280 282 284 283 283 283 280 283 286 285 287 287 287 288 288 288 289 289 289 289 287 286 286 285 285 285 284 284 285 285 286 286 286 287 287 287 287 290
283 281 280 275 278 274 281 285 285 284 285 285 285 286 287 287 288 289 288 287 287 289 289 289 289 287 286 286 286 285 285 284 284 283 284 284 285 285 286 286 286 287 289 290
284 281 277 274 272 278 280 283 284 282 283 287 286 287 287 288 286 286 289 289 289 289 289 289 288 286 285 285 285 284 284 283 283 283 283 284 285 285 286 286 288 289 290 290
283 282 279 275 270 270 279 284 287 286 279 288 288 286 285 286 279 282 288 290 290 291 290 289 287 286 284 285 284 283 283 282 282 283 285 285 286 286 286 288 289 290 291 292
278 276 275 275 271 278 283 286 288 278 280 288 287 285 285 283 285 288 290 290 290 289 289 287 285 284 284 284 283 283 282 281 283 284 285 285 286 286 288 289 290 291 291 292
279 275 274 274 272 274 287 286 283 285 286 287 286 286 286 287 288 289 289 289 289 288 288 286 285 284 284 284 283 282 281 283 284 284 285 285 285 288 290 290 290 290 291 291
279 282 279 279 279 285 287 285 287 287 287 286 286 286 287 287 287 288 287 287 287 287 286 286 284 284 284 283 283 281 282 283 284 284 284 285 286 289 290 290 290 290 291 290
283 285 281 282 284 285 286 287 288 288 287 288 287 287 287 286 287 286 287 287 287 287 286 285 284 283 283 284 284 283 283 283 283 283 283 285 288 289 289 290 291 290 290 290
284 284 282 282 283 284 285 287 288 288 289 288 288 287 287 287 287 286 286 286 287 286 285 285 284 283 283 284 283 283 283 284 283 283 285 287 287 288 289 290 291 291 292 294
285 284 282 281 285 285 284 287 289 288 287 288 287 287 287 287 287 287 286 286 286 286 285 284 284 283 283 283 283 283 284 284 283 282 286 287 287 288 289 289 289 294 295 296

GFSCGP_sfc_thetae_063.txt.gz
Theta_e
302 299 296 300 301 298 297 295 294 295 298 298 297 297 300 301 299 299 300 299 298 298 301 300 301 301 301 301 302 302 302 302 303 303 303 304 304 304 304 305 303 304 304 304
299 295 300 302 300 299 297 294 294 296 299 298 296 296 300 299 299 299 300 299 298 298 298 299 299 300 300 301 301 301 302 302 303 304 304 304 304 304 303 304 303 304 303 303
294 298 300 299 297 296 296 294 294 294 296 296 295 294 296 297 298 299 300 300 300 299 298 298 299 300 301 300 301 301 302 302 303 303 303 302 302 302 302 303 303 303 301 301
297 300 298 297 296 297 293 298 297 296 294 290 294 287 292 293 297 296 297 297 298 299 299 299 299 298 299 300 301 301 301 301 302 303 302 302 302 301 302 301 301 300 299 300
295 297 297 297 297 298 295 298 296 294 291 291 290 288 291 293 294 295 295 297 297 298 299 298 298 299 299 299 300 300 300 301 302 302 302 302 300 300 300 299 298 299 299 300
297 300 298 298 297 298 297 293 292 291 289 285 287 287 289 290 292 293 294 295 297 297 297 298 297 298 299 300 300 300 300 301 302 302 301 301 300 298 297 297 297 298 298 299
294 295 297 299 295 297 294 292 287 284 284 283 288 286 290 292 293 292 292 295 297 298 297 297 297 297 298 299 300 300 300 301 301 300 299 298 297 296 296 297 296 296 296 297
287 287 294 295 295 293 292 292 286 281 282 284 287 285 289 292 293 293 294 296 297 297 297 297 297 298 298 299 300 300 301 300 298 297 295 296 296 297 297 296 296 295 296 296
288 288 293 293 294 295 291 289 290 284 282 282 285 287 292 292 292 292 292 293 293 295 296 296 297 296 297 298 298 299 299 297 295 295 296 296 296 295 295 295 296 296 296 296
289 285 290 292 294 293 293 292 287 285 281 279 282 283 287 289 290 290 291 291 293 294 295 295 295 296 296 296 295 295 295 294 294 295 295 296 295 295 295 295 295 295 295 295
288 288 287 290 290 289 289 287 285 286 284 282 281 284 288 289 289 289 290 291 292 293 294 294 294 294 294 294 293 293 294 294 294 295 295 294 294 295 295 294 294 294 294 294
288 286 283 286 288 291 290 288 287 285 282 281 281 285 290 289 289 290 290 291 293 294 294 294 294 294 294 293 293 293 293 294 294 294 294 293 294 294 293 293 293 293 292 293
288 284 281 284 287 289 287 287 285 284 284 281 283 285 288 289 289 290 291 292 293 294 295 294 294 294 294 293 292 292 293 293 293 292 292 293 293 292 292 292 292 292 292 292
291 283 283 282 286 287 285 285 286 286 283 282 284 285 287 288 289 291 291 292 293 294 294 295 296 296 294 293 292 292 292 292 292 292 292 291 292 292 291 292 292 291 292 291
287 283 284 285 286 286 286 286 284 284 284 284 285 283 287 288 289 291 291 292 293 294 294 294 295 295 295 294 292 291 291 291 291 291 291 291 291 291 291 291 291 291 291 292
287 284 285 284 286 286 285 286 286 285 285 284 284 285 288 290 291 291 292 292 292 292 293 293 294 295 294 294 292 291 291 291 290 290 289 290 290 290 290 290 290 291 291 292
286 284 284 284 283 284 283 285 286 287 286 287 284 288 290 289 290 291 292 291 291 292 292 293 293 293 293 291 291 290 290 290 289 289 289 289 289 289 289 290 290 290 291 291
285 284 283 282 282 278 286 289 289 287 288 288 288 289 290 291 292 292 292 292 292 292 292 293 293 294 292 290 290 290 289 289 288 288 288 288 288 288 289 289 289 290 291 291
286 284 280 281 279 281 283 286 287 286 286 290 289 290 291 291 290 290 293 293 292 292 293 293 293 291 290 289 289 289 289 288 288 287 287 288 288 288 288 289 289 290 290 291
285 284 283 279 276 275 283 287 290 290 283 289 290 290 289 289 286 288 291 292 293 293 293 292 292 290 289 289 288 288 288 287 287 287 287 288 288 288 288 289 289 290 291 291
281 280 280 279 278 281 285 289 290 283 285 290 290 290 289 288 290 291 292 292 292 292 292 292 289 289 289 288 287 287 287 287 288 288 288 288 289 288 289 290 291 291 291 291
282 279 278 278 277 277 289 288 286 289 290 290 290 290 290 290 290 291 291 291 291 291 291 290 289 289 289 288 287 287 286 288 287 287 287 287 288 289 289 290 291 291 290 290
282 284 282 282 283 287 289 290 291 290 290 290 290 291 290 289 289 289 289 290 290 290 290 289 288 288 289 288 287 286 288 287 287 287 287 287 288 289 290 289 289 290 290 290
285 286 285 285 286 286 289 290 291 291 290 291 291 291 291 289 289 289 289 289 289 290 290 289 288 288 288 288 288 288 287 287 287 286 286 287 288 289 289 290 290 290 290 289
285 286 284 284 286 287 288 289 290 290 291 291 291 291 291 290 289 289 289 289 289 290 290 289 288 287 287 288 288 288 287 287 287 286 286 287 288 288 288 289 290 291 291 293
286 286 284 284 287 288 288 289 290 290 290 290 290 290 291 290 289 289 289 289 289 289 290 289 288 287 288 287 287 287 287 287 287 286 286 287 289 289 289 289 289 294 295 296

GFSCGP_sfc_thetae_066.txt.gz
Theta_e
308 310 308 310 309 308 306 302 301 300 302 302 303 303 305 308 307 307 309 309 308 309 311 310 309 309 309 309 309 310 309 309 309 309 308 309 309 309 310 310 309 309 309 308
304 303 312 310 304 302 301 299 300 300 302 302 302 302 306 305 305 306 307 308 308 309 308 308 307 308 308 308 309 309 309 309 309 310 311 311 310 311 311 311 309 309 308 307
307 306 303 303 303 304 302 300 300 297 300 301 300 299 301 302 304 304 306 307 309 308 306 307 306 307 308 308 309 309 309 309 310 310 311 310 310 310 308 309 309 308 306 306
302 303 302 301 300 301 298 300 300 298 297 294 299 291 299 300 302 302 303 305 306 308 308 308 307 307 307 308 310 309 309 308 309 310 309 309 309 308 310 309 309 307 305 305
299 301 301 300 300 301 299 302 300 298 298 296 295 293 297 300 299 300 302 303 304 306 308 307 307 308 308 309 309 308 308 307 308 308 310 310 308 309 309 307 305 305 306 306
301 303 303 301 301 302 302 300 299 298 297 291 293 293 294 297 296 299 302 303 303 304 306 307 307 307 307 307 308 308 307 307 308 309 309 309 308 307 305 304 303 304 304 304
300 299 301 303 300 301 300 298 292 290 290 289 293 291 296 297 297 298 299 302 303 304 305 305 305 305 306 306 307 307 307 307 308 308 308 307 306 304 303 303 303 302 302 302
295 292 298 299 299 298 298 298 292 285 288 291 292 290 295 296 298 299 301 303 304 304 305 304 304 306 306 306 307 307 306 307 307 306 304 303 302 304 303 303 302 301 301 301
294 292 296 297 299 299 296 295 296 291 290 289 293 293 296 297 297 298 299 301 300 301 302 302 303 304 304 305 304 304 305 305 303 302 303 302 303 302 302 302 301 301 301 300
296 291 294 295 298 298 298 298 292 294 286 285 289 290 294 294 295 296 297 298 299 301 301 302 302 303 303 303 303 302 303 302 301 301 303 302 302 301 301 301 300 299 299 299
296 295 291 294 295 295 294 294 293 293 291 287 286 290 296 296 296 296 297 298 299 300 301 301 302 302 302 302 301 301 301 300 301 301 301 301 301 300 300 299 299 298 298 297
293 296 292 291 292 294 295 294 295 291 288 290 290 290 295 296 296 296 296 298 299 300 300 301 301 302 302 301 301 301 301 300 301 300 300 300 300 299 298 298 297 297 296 297
295 292 289 288 291 293 292 293 293 292 293 290 288 291 295 295 295 296 297 298 299 299 300 301 301 301 302 301 301 300 299 299 299 299 299 299 298 298 297 296 296 296 295 295
296 292 290 290 291 293 290 290 292 293 290 291 290 292 292 294 294 296 297 298 299 299 299 300 301 301 301 302 301 300 299 299 298 298 298 297 297 296 296 295 295 295 295 294
294 290 290 290 290 291 291 291 290 290 293 289 291 290 293 295 296 297 298 298 298 298 299 299 299 300 300 301 301 300 298 298 297 297 296 296 296 295 295 294 294 294 294 295
293 291 291 289 290 290 289 292 291 291 291 290 291 291 297 296 297 296 297 297 297 297 298 298 298 298 299 299 299 298 297 297 297 296 295 295 294 294 294 293 293 294 294 295
292 292 291 290 289 290 289 292 292 292 293 293 290 294 295 294 295 296 297 297 296 296 296 297 297 298 298 298 296 296 296 297 296 295 294 293 293 293 293 293 293 293 294 295
293 293 293 292 289 283 289 293 293 293 293 294 293 293 295 295 296 298 298 297 296 296 296 297 297 298 299 296 296 296 296 295 294 293 293 293 292 292 292 292 293 293 294 293
294 294 290 289 287 290 289 289 290 290 291 295 294 294 295 296 296 296 297 296 296 296 297 297 298 298 297 295 295 295 295 295 293 293 292 292 292 291 292 292 292 294 293 293
292 293 292 288 287 285 288 292 294 295 288 295 296 295 295 295 291 295 296 296 296 297 297 297 297 296 295 295 295 294 294 293 292 292 291 292 292 291 291 292 292 292 292 293
289 289 288 288 287 289 293 294 295 286 290 296 297 297 295 293 295 295 296 295 296 296 297 297 296 295 295 296 295 293 293 292 293 292 292 292 292 291 292 292 291 291 291 292
289 288 287 287 286 284 294 292 291 295 296 297 296 296 295 295 294 294 294 294 295 295 296 297 295 295 296 295 294 293 292 294 293 292 292 292 291 291 292 291 290 291 291 291
288 292 292 291 292 293 296 295 296 297 297 296 296 296 294 293 293 293 294 294 295 295 296 296 295 295 296 296 294 292 293 293 292 291 292 291 291 292 292 290 290 291 291 290
292 293 292 291 294 293 295 297 296 296 297 297 296 295 294 292 293 293 294 295 295 295 295 296 295 295 295 295 294 293 293 293 291 291 291 290 290 291 291 291 292 291 290 289
294 292 292 292 294 293 295 296 297 296 296 295 295 295 294 294 293 294 294 295 295 295 296 296 295 294 294 295 294 294 293 292 291 290 290 290 290 289 289 291 291 291 292 293
294 294 292 291 295 296 295 297 297 295 294 295 294 294 295 295 294 295 295 296 296 296 296 295 295 295 295 294 293 293 293 292 291 290 289 290 289 288 289 290 290 293 294 295

GFSCGP_sfc_thetae_069.txt.gz
Theta_e
312 310 307 312 313 312 310 309 307 308 303 302 304 307 308 310 310 309 310 310 311 312 316 316 314 314 312 312 311 311 310 310 310 310 309 309 309 310 311 311 310 309 310 309
307 306 313 316 314 311 308 307 307 307 303 302 306 305 307 308 308 308 309 310 311 312 313 313 312 312 311 310 311 311 310 310 310 311 311 312 311 312 312 313 311 310 309 308
306 309 311 314 307 305 306 305 304 302 303 304 301 299 303 305 306 306 307 309 310 312 311 311 311 310 311 310 310 310 310 310 311 312 312 312 311 312 310 310 310 310 309 308
310 307 306 307 308 308 305 308 304 302 298 294 301 292 300 303 304 304 306 307 309 310 312 311 310 310 310 311 312 311 311 310 311 312 311 310 309 309 311 311 311 310 309 307
302 302 303 304 304 308 305 304 302 302 299 298 297 294 298 302 301 302 304 306 307 309 311 310 310 310 310 311 311 311 311 310 311 310 311 311 310 311 311 310 309 308 308 308
304 308 306 304 304 304 305 303 302 301 299 292 296 295 296 299 298 300 304 305 306 307 309 311 310 311 310 311 312 311 310 309 310 311 310 311 310 310 309 308 307 306 307 307
301 301 303 305 301 303 303 300 293 292 292 291 296 294 297 299 299 301 302 304 305 307 307 308 307 307 308 309 310 310 310 309 309 309 310 310 310 309 307 306 305 305 304 304
296 293 301 302 302 300 300 300 293 287 289 293 296 292 296 299 302 303 304 305 306 306 307 307 308 308 309 309 309 309 308 308 309 309 309 309 307 306 305 305 304 303 303 303
298 294 299 300 302 302 299 295 300 295 295 291 294 296 298 299 300 302 302 303 303 304 305 305 306 306 307 307 307 307 307 308 308 307 306 305 305 304 304 304 304 303 303 302
299 293 298 298 301 301 300 301 294 295 287 287 292 292 294 295 297 299 300 300 302 303 303 304 304 304 305 305 305 305 305 304 304 304 304 304 304 304 304 303 302 302 301 301
300 298 294 297 297 298 297 296 296 296 294 289 288 292 300 298 299 299 300 301 302 302 302 303 303 304 304 304 304 303 303 302 303 303 303 303 303 303 303 302 301 301 300 299
298 299 293 294 296 297 298 298 298 292 291 292 291 291 299 300 300 300 300 301 302 302 302 303 303 303 303 304 304 303 303 302 303 303 302 301 302 302 301 301 300 299 298 298
299 296 290 290 293 295 294 296 297 296 295 291 289 291 299 299 298 300 300 301 301 302 302 302 303 303 303 303 303 302 302 302 302 302 301 301 301 301 300 299 298 297 297 296
299 296 294 291 293 296 292 294 295 295 291 292 293 294 295 297 297 298 300 301 301 301 300 302 302 302 302 302 302 302 302 302 301 300 300 300 300 300 298 297 297 296 296 295
298 293 293 293 293 293 293 293 293 292 294 291 294 292 296 297 298 299 300 300 300 300 300 300 300 300 300 300 301 301 301 301 300 299 299 299 299 298 296 296 296 295 295 295
296 293 293 291 293 293 291 294 294 294 294 294 294 293 300 301 300 299 299 299 299 299 299 299 299 298 299 299 300 300 300 299 299 299 298 298 296 295 295 295 294 294 294 295
294 295 293 291 293 293 291 295 296 296 296 295 291 295 298 296 297 298 299 299 298 298 298 297 297 298 298 299 299 298 299 299 298 297 296 295 295 294 294 294 293 294 294 294
295 295 296 293 293 285 292 296 296 295 295 297 296 296 297 298 299 300 301 299 298 297 297 297 297 298 299 299 299 299 298 298 297 295 295 295 294 293 293 293 293 293 293 294
298 297 294 291 290 293 291 292 293 292 292 298 297 297 298 298 299 298 300 298 297 296 297 297 298 298 298 298 298 297 297 297 295 294 294 294 293 292 292 292 292 293 293 291
295 297 294 291 290 285 291 294 297 296 289 297 298 298 297 298 292 294 298 297 296 297 297 297 298 298 298 298 298 297 296 295 294 295 294 293 293 293 292 292 292 293 292 291
291 292 290 290 289 291 295 296 298 287 291 298 299 299 299 296 297 297 296 296 297 297 297 298 298 297 298 298 297 295 295 294 295 295 294 293 293 293 292 292 293 293 291 291
292 291 289 291 288 286 297 295 291 297 299 299 299 299 298 298 296 295 295 295 296 296 296 297 297 297 298 298 297 295 294 295 295 294 293 293 293 292 292 292 293 291 291 292
290 294 294 293 294 297 299 299 300 300 298 299 299 299 298 295 294 294 294 295 295 296 296 297 297 297 297 298 297 295 295 295 294 293 293 293 292 292 292 291 291 291 292 291
295 296 293 294 296 297 298 300 299 299 299 300 300 298 296 294 294 294 294 295 295 296 296 297 297 296 296 297 297 297 296 295 294 292 292 292 291 291 292 291 291 292 290 290
296 295 293 294 297 297 298 299 300 299 299 298 298 297 295 295 294 294 294 295 296 296 297 297 296 296 296 297 297 297 296 295 293 292 292 291 291 290 290 290 291 291 292 292
297 295 293 292 298 298 298 300 301 298 297 297 296 295 296 295 294 295 295 296 297 296 297 297 297 297 297 297 296 296 296 294 292 291 291 290 290 289 289 290 290 293 294 295

GFSCGP_sfc_thetae_072.txt.gz
Theta_e
310 307 304 306 310 311 309 307 305 305 307 309 307 306 309 311 307 306 304 305 305 309 313 314 312 310 307 306 305 305 304 303 303 302 302 302 302 303 303 305 304 304 304 304
306 303 310 313 311 309 309 306 306 306 304 303 304 305 309 311 306 305 304 303 305 305 309 309 309 307 305 304 305 304 304 303 304 304 304 304 304 305 305 307 305 304 304 303
304 307 312 311 310 308 308 304 305 303 302 306 303 298 301 304 305 305 304 305 305 305 306 307 306 305 305 304 304 304 304 304 304 305 305 305 305 305 304 304 304 305 305 303
306 309 309 311 307 308 302 308 307 305 299 295 299 288 297 300 301 302 302 303 304 305 307 308 306 305 304 305 305 305 305 304 305 306 304 303 303 301 304 305 305 305 304 302
305 304 306 305 307 309 303 306 305 305 298 295 295 290 293 299 298 298 300 302 302 305 306 306 305 305 305 306 305 305 304 304 304 304 305 304 304 305 305 304 302 302 302 302
304 308 308 307 304 305 305 302 301 300 295 287 293 292 290 293 294 297 300 301 302 302 304 305 306 306 305 306 306 306 304 304 304 304 304 304 303 303 303 303 301 301 301 301
300 301 304 306 301 305 303 297 290 288 287 286 294 291 291 295 297 299 299 299 301 301 303 303 303 303 304 304 305 306 305 304 304 303 303 303 304 303 301 300 299 298 298 298
294 291 300 305 302 298 298 297 290 284 285 288 295 287 289 297 299 300 301 300 301 301 302 302 302 302 302 303 304 305 304 303 303 303 302 302 302 300 299 298 298 297 297 297
295 293 299 301 302 300 298 293 298 291 291 286 290 291 293 297 297 299 298 299 299 300 300 300 301 301 301 301 301 301 302 302 302 301 301 299 298 298 298 297 297 297 297 299
297 290 298 298 301 301 299 299 291 291 283 282 288 288 288 292 294 296 296 296 297 299 299 299 299 299 299 299 299 299 299 299 299 298 298 298 297 298 297 297 296 296 296 296
298 296 293 297 296 296 295 294 294 292 291 284 282 285 293 293 295 294 295 297 297 298 297 297 298 299 299 299 298 298 298 298 297 298 297 297 296 297 296 296 296 296 295 294
299 295 290 292 295 297 296 295 295 288 286 288 285 284 295 295 296 297 296 298 298 298 298 298 298 298 298 298 298 297 297 296 297 297 296 296 296 296 295 295 294 294 292 293
296 293 287 288 291 293 292 295 296 293 291 286 282 285 295 295 295 296 295 296 297 298 298 298 298 297 296 296 296 296 297 296 297 296 295 295 295 295 294 293 293 292 291 291
297 294 291 287 290 293 290 292 293 291 285 286 287 288 291 293 294 294 295 297 296 298 298 298 296 295 295 295 295 295 296 296 296 296 294 294 294 294 293 292 292 291 291 291
295 291 291 291 292 292 292 292 292 289 290 285 289 290 292 293 294 295 296 297 297 297 298 296 295 294 293 293 294 295 295 295 295 294 294 294 293 292 291 291 291 291 291 291
295 291 291 289 292 292 290 292 292 292 292 291 291 289 295 295 295 294 295 296 295 295 296 296 295 294 294 293 293 294 294 294 294 293 293 293 292 291 291 291 290 290 289 289
292 291 290 287 293 292 288 292 293 293 293 292 287 291 294 292 294 293 293 296 295 295 294 294 293 293 293 294 294 293 293 294 293 292 292 291 291 291 290 290 289 288 288 288
293 292 292 288 290 281 290 294 295 295 295 294 294 295 295 294 294 295 297 295 294 294 293 293 292 293 294 294 294 293 293 293 292 291 290 291 290 289 289 289 288 288 288 288
295 294 289 286 285 290 289 291 291 289 290 295 293 295 295 296 294 292 295 295 293 292 292 292 293 293 293 293 293 293 292 292 291 290 290 290 289 289 289 288 287 287 288 287
295 294 290 286 283 280 289 292 296 294 283 294 295 295 294 294 286 288 294 294 293 293 294 293 293 294 292 293 293 292 291 290 290 290 290 290 290 289 289 288 287 288 288 289
288 288 285 286 284 288 292 294 296 282 286 295 295 295 295 291 291 292 294 293 293 293 293 293 293 292 292 293 293 291 290 289 291 291 291 290 290 289 288 287 288 287 288 290
288 287 285 286 283 280 295 293 288 293 294 296 294 295 296 294 294 293 293 292 293 292 293 293 292 292 293 293 292 291 290 292 291 291 290 289 289 290 290 286 287 287 289 289
286 291 289 290 290 295 295 295 297 298 296 294 295 295 296 294 292 292 292 291 292 291 292 293 292 292 292 293 292 290 291 292 291 290 289 288 289 289 287 286 286 287 289 289
292 294 289 289 292 293 295 296 297 297 296 297 297 295 295 292 292 291 291 291 291 292 292 293 292 292 291 293 293 292 292 292 290 288 288 288 288 288 286 287 288 288 289 289
292 292 290 289 292 293 295 296 297 297 297 296 296 295 293 292 292 291 291 292 292 292 293 293 292 292 292 293 292 293 293 291 289 288 288 288 288 286 285 287 288 290 291 291
294 292 288 288 293 294 293 297 298 296 295 295 293 292 293 292 292 292 291 292 293 292 293 293 293 292 292 293 292 292 293 291 289 287 288 288 287 285 286 287 289 293 293 294

GFSCGP_sfc_thetae_075.txt.gz
Theta_e
305 300 298 304 306 306 304 301 300 304 312 309 307 307 308 308 307 305 304 302 300 307 311 314 309 307 304 304 303 303 301 299 300 299 299 299 299 300 300 302 302 302 302 302
300 297 305 309 310 307 306 302 301 302 304 301 303 302 306 309 308 304 304 303 302 300 306 308 306 304 303 301 302 302 301 300 300 301 300 300 299 301 301 302 302 303 302 302
297 302 309 308 306 305 304 301 300 301 302 301 301 297 299 303 302 303 303 304 304 304 303 303 302 302 301 300 300 301 301 300 302 302 302 302 302 302 301 301 301 302 302 302
301 307 306 305 304 307 300 306 305 299 296 291 299 286 291 296 297 298 299 299 301 302 303 304 302 301 301 301 301 301 301 301 303 302 302 301 300 299 300 301 302 302 303 301
301 303 303 303 306 307 302 305 303 300 295 290 291 286 288 294 293 294 296 299 300 301 302 303 302 302 302 302 301 302 301 301 301 301 302 301 300 301 302 301 301 300 300 301
304 308 305 301 304 306 304 299 298 294 291 284 289 288 286 289 291 293 295 297 299 301 301 301 302 302 301 301 302 301 301 301 301 300 301 301 300 300 300 300 298 298 298 298
299 299 302 306 298 302 299 293 285 284 282 282 290 287 287 291 294 295 295 296 298 298 298 299 299 300 301 301 302 303 302 301 301 300 299 300 300 299 299 298 296 295 295 295
290 288 297 304 300 294 295 292 286 282 281 285 291 284 287 294 296 297 297 297 297 298 298 298 299 298 299 300 300 301 301 301 301 299 299 300 299 299 298 296 295 294 295 295
292 289 298 299 301 299 294 290 295 287 286 282 286 286 290 294 295 295 295 296 296 296 296 296 297 297 296 297 297 298 299 299 298 296 296 295 295 296 295 295 294 295 295 297
295 286 295 297 298 297 294 296 287 286 279 278 284 283 284 289 292 293 293 293 294 295 295 295 295 296 296 296 296 296 296 296 295 295 295 295 294 294 294 294 293 294 294 294
294 293 290 293 291 291 291 290 290 289 287 281 279 282 289 290 293 292 292 294 294 294 294 294 295 295 296 295 295 295 295 295 295 296 295 294 294 294 294 293 293 293 292 291
295 291 285 288 291 293 292 291 290 284 283 284 281 282 291 293 294 294 293 295 294 295 295 295 294 294 294 294 294 294 294 294 295 295 294 293 293 293 292 292 291 291 290 290
293 289 282 284 287 289 288 291 292 290 286 283 280 283 292 291 292 293 293 293 295 295 295 294 294 292 292 292 292 293 293 293 294 294 293 292 292 292 291 290 290 290 289 289
296 289 286 283 285 288 285 289 291 287 281 281 283 284 288 290 291 292 293 293 294 295 295 294 292 291 291 291 292 292 293 293 293 293 292 291 291 291 290 289 289 289 289 288
291 286 287 287 289 289 289 290 289 286 286 283 286 286 289 290 291 292 293 294 293 294 294 293 292 291 290 290 291 292 292 292 292 292 291 291 291 290 289 289 289 289 288 289
291 287 287 286 290 289 288 290 290 289 289 287 287 286 291 291 291 291 292 293 293 293 293 293 292 292 291 291 291 291 291 291 291 290 291 291 290 289 288 288 288 288 287 287
288 287 286 283 290 289 285 289 290 290 290 290 285 289 291 290 292 291 291 293 292 291 291 291 291 291 291 291 292 290 290 291 291 290 290 289 289 288 288 288 287 287 286 286
289 288 288 282 286 279 288 291 292 292 293 292 292 292 293 292 292 292 292 291 290 291 290 290 290 291 291 291 292 291 291 290 290 289 289 288 288 288 288 287 287 286 286 285
291 290 285 282 281 286 287 289 288 287 287 293 292 293 293 294 292 289 291 291 290 290 290 290 291 291 290 290 291 291 290 290 290 289 287 288 288 287 287 286 286 286 284 284
292 290 287 282 278 277 286 290 293 290 279 292 293 292 292 291 284 286 290 291 291 291 292 291 291 291 290 291 290 290 290 289 288 289 289 289 288 288 287 286 286 284 285 286
285 284 281 281 277 284 290 291 293 278 280 291 293 292 292 289 288 290 291 291 291 291 292 291 290 289 290 291 290 289 289 288 290 290 290 289 288 287 287 286 284 285 285 286
284 280 280 281 278 278 291 290 284 287 291 293 292 292 291 290 291 291 291 291 291 291 291 291 290 290 291 291 289 289 288 290 290 289 289 288 287 288 289 284 284 284 284 285
283 288 285 284 284 291 291 290 293 294 293 291 292 293 292 291 290 291 289 290 290 290 291 291 290 290 290 291 290 289 290 291 290 288 287 287 287 287 285 284 284 284 285 286
287 290 286 286 288 291 292 293 295 294 294 294 294 293 292 289 290 289 289 289 290 290 290 291 290 290 290 290 291 290 290 291 289 287 286 286 286 287 284 285 286 285 286 289
288 288 286 285 287 289 291 292 294 294 295 294 293 293 291 290 290 289 289 290 290 290 291 291 290 290 290 291 291 291 291 290 288 286 286 286 287 284 283 284 285 288 290 291
289 288 284 284 289 289 290 293 295 293 293 293 291 290 291 291 290 290 290 290 290 290 291 291 290 290 290 291 291 291 291 290 288 286 286 286 286 284 284 285 286 292 293 293

GFSCGP_sfc_thetae_078.txt.gz
Theta_e
302 297 296 301 305 303 301 300 299 302 309 305 301 304 308 311 310 309 307 302 301 307 310 314 315 308 304 303 303 301 300 299 300 298 297 297 298 298 299 300 302 301 301 301
300 295 303 308 309 306 303 299 298 299 309 304 305 305 309 310 307 307 304 302 300 300 308 306 308 302 304 302 302 300 300 299 299 299 298 298 298 298 299 300 300 301 300 300
296 300 307 306 306 304 303 300 298 297 301 300 299 296 299 303 302 302 302 301 301 300 305 302 302 302 300 300 300 300 299 299 299 300 300 300 300 300 300 300 299 300 300 300
299 304 305 303 303 305 299 305 304 301 297 293 298 288 290 295 295 298 298 297 298 299 303 302 300 299 300 300 301 301 300 299 300 300 300 300 299 298 298 299 300 301 301 300
297 301 301 301 303 306 302 305 304 302 295 290 290 286 288 292 291 294 294 296 296 298 301 301 299 299 299 299 299 299 299 299 300 299 301 300 298 299 300 300 300 299 299 299
300 306 304 301 304 305 304 298 297 295 291 285 289 288 286 289 291 292 293 295 296 298 298 300 299 299 299 298 299 299 298 299 299 299 299 299 299 299 299 298 298 297 297 297
298 299 303 306 298 302 300 295 286 284 282 282 288 287 289 289 292 294 294 294 295 294 296 297 298 298 299 299 299 300 300 300 299 298 299 298 298 297 297 297 295 294 294 294
291 288 297 303 299 296 296 296 286 280 280 283 288 284 287 291 294 295 296 295 295 295 295 296 296 297 297 298 299 300 299 298 298 298 297 297 298 297 296 295 294 294 294 294
293 290 298 300 302 299 293 291 293 286 284 282 284 285 289 292 292 293 293 294 294 294 294 294 295 295 295 295 296 298 297 296 295 294 294 293 294 294 294 293 293 293 293 296
292 286 294 297 298 300 295 297 287 285 279 277 281 281 284 288 290 292 292 292 293 293 293 293 294 294 294 294 294 294 295 295 294 294 294 293 292 293 293 292 292 292 292 292
292 290 289 293 292 293 292 292 291 289 285 280 278 282 287 290 292 291 291 292 293 293 293 293 293 294 294 294 294 294 294 294 294 294 293 292 292 292 292 291 291 290 290 289
293 290 285 288 291 293 292 290 289 284 282 281 279 281 289 291 294 294 292 293 293 294 294 294 293 293 293 292 292 292 293 292 293 293 292 292 292 292 291 290 290 289 289 289
292 288 282 284 287 288 287 290 290 287 285 281 278 282 290 289 291 292 291 292 293 293 293 292 291 290 290 290 291 291 292 292 292 292 292 291 291 290 290 289 289 288 288 288
297 290 285 282 284 286 283 287 289 286 281 281 282 283 286 289 290 291 291 292 293 294 293 291 290 289 289 290 290 291 291 292 292 292 290 290 290 289 288 288 288 288 288 287
291 286 285 287 288 288 287 288 288 285 284 282 284 285 288 289 290 292 293 292 292 292 293 291 290 288 288 289 290 290 290 290 290 290 290 290 289 288 287 287 288 287 287 287
289 286 286 284 288 288 286 288 288 288 287 285 286 286 289 290 289 290 291 292 291 291 291 291 290 290 290 289 289 290 290 290 290 289 290 290 288 288 287 287 287 286 286 286
286 286 285 281 288 288 285 288 288 288 288 288 284 287 289 288 290 290 290 291 291 290 290 289 289 290 290 290 291 290 290 290 289 289 289 288 287 288 287 287 286 286 285 285
287 288 286 281 284 278 287 290 290 290 291 290 290 290 291 290 289 289 289 290 289 289 289 289 289 289 290 290 290 290 290 289 289 289 288 287 287 287 287 286 286 285 285 284
290 288 284 280 280 285 287 288 287 288 287 292 291 291 291 290 289 287 290 290 288 288 289 289 289 290 289 289 290 289 289 289 289 288 287 287 287 287 286 286 285 285 283 283
290 289 286 281 278 277 284 289 291 286 279 290 292 291 290 290 283 285 288 289 289 290 290 290 290 290 289 290 289 288 288 288 288 288 288 288 287 287 286 286 285 283 284 285
284 282 281 281 278 283 289 289 290 278 280 290 292 290 290 288 287 288 289 289 290 290 290 290 289 289 289 289 289 288 288 287 289 289 288 288 287 286 286 285 283 284 284 284
284 280 279 280 278 279 290 289 283 285 289 291 290 290 290 288 289 289 289 289 290 290 291 290 289 289 290 290 288 288 287 290 289 289 288 287 286 287 288 283 283 283 282 283
283 287 284 284 284 290 290 287 289 292 291 290 291 290 290 289 288 289 288 289 289 289 289 290 289 289 289 289 288 288 289 290 289 287 286 286 286 286 285 283 283 282 284 284
287 289 286 285 287 289 291 291 292 293 292 292 292 291 290 288 289 288 288 288 288 289 289 290 289 289 288 289 290 289 289 290 288 286 285 285 285 287 284 284 284 283 284 287
287 287 286 284 287 287 291 291 293 293 294 292 292 291 289 289 288 288 288 288 289 289 290 290 289 288 289 290 290 290 290 289 287 286 285 285 286 284 283 283 284 286 287 291
288 287 284 285 288 288 287 291 293 292 292 291 290 289 289 289 289 289 288 289 289 289 289 289 289 289 289 289 289 290 290 289 287 286 285 285 284 283 283 283 285 290 292 293

GFSCGP_sfc_thetae_081.txt.gz
Theta_e
299 295 293 296 301 301 300 298 297 299 305 302 302 303 305 311 311 310 310 306 302 305 312 319 319 311 305 303 302 301 300 298 299 296 296 296 297 297 297 298 300 299 300 301
296 291 299 303 307 303 301 300 297 299 307 302 301 301 306 309 308 307 308 304 300 304 310 313 309 303 306 302 302 300 300 298 298 298 296 297 296 296 297 299 300 300 299 299
293 298 305 306 306 303 300 298 296 298 301 299 300 297 300 303 305 302 300 300 300 301 307 306 303 301 299 299 300 300 298 298 298 298 299 299 300 299 298 298 298 299 299 299
297 303 303 301 301 304 297 304 302 300 297 292 298 289 292 294 297 296 296 296 297 299 303 303 302 299 299 299 299 299 298 298 298 299 299 299 298 297 298 298 299 299 299 298
295 300 299 299 301 305 300 305 303 300 295 292 291 288 291 290 291 293 294 295 296 297 300 299 298 301 298 298 298 298 297 297 297 298 298 298 297 297 297 299 299 299 298 299
298 304 302 300 302 305 304 298 296 295 292 286 291 291 290 289 291 291 292 294 295 296 297 298 297 298 297 297 297 297 296 296 297 297 298 298 297 297 298 297 297 296 296 296
297 298 301 304 297 300 299 294 284 284 286 285 289 288 292 290 291 293 294 292 293 293 294 296 296 296 297 297 297 298 297 297 297 297 297 297 297 295 296 296 295 294 293 293
291 289 296 302 298 295 295 294 285 281 280 283 288 284 288 290 293 293 294 293 293 293 293 295 296 296 297 297 298 298 297 297 297 296 296 296 297 297 295 294 293 292 293 292
291 290 300 300 300 300 294 291 297 286 283 282 283 285 288 291 291 292 292 292 292 292 293 294 294 294 295 295 296 297 295 294 294 293 293 293 293 293 293 292 292 292 292 295
294 288 295 298 299 298 295 300 289 287 280 278 280 281 284 287 289 291 291 290 291 291 292 292 293 293 293 293 293 294 294 294 293 293 292 292 291 292 291 291 291 291 290 290
292 291 289 292 292 293 291 289 288 287 284 279 278 282 287 289 291 290 291 291 291 291 292 292 292 292 292 292 292 292 293 293 292 292 291 291 291 291 291 291 290 290 289 288
293 288 285 287 292 293 293 289 290 285 283 280 279 282 287 288 292 292 291 292 292 293 293 292 291 291 291 291 291 291 291 292 292 292 291 291 291 290 290 289 289 288 288 288
292 289 282 283 286 289 289 291 289 287 284 280 278 282 289 288 291 292 291 291 292 293 292 291 290 290 289 289 290 290 291 291 291 291 290 290 290 289 289 288 287 287 287 287
295 289 285 282 284 286 283 287 288 286 281 281 281 283 285 287 290 290 290 292 291 292 292 290 289 287 288 288 289 290 290 290 291 290 289 289 289 288 287 287 287 287 286 286
291 287 285 286 288 286 285 286 287 285 284 283 284 284 287 289 290 292 292 291 291 291 291 290 288 287 287 288 288 289 289 289 289 290 289 289 289 287 287 287 287 287 286 286
288 285 285 284 287 287 286 287 287 286 285 285 285 285 289 288 289 290 290 291 291 290 291 290 289 288 288 288 288 289 289 289 289 289 289 289 288 287 286 286 286 286 286 285
286 285 283 281 287 288 285 288 287 287 287 287 283 287 288 287 289 289 290 291 291 290 289 288 288 289 289 289 289 288 288 289 288 288 289 288 287 287 287 286 286 285 285 284
285 286 285 280 284 278 286 289 289 289 290 289 289 289 290 289 288 288 289 290 289 288 288 288 288 288 289 289 289 289 289 288 288 288 288 287 286 286 286 286 285 284 284 283
289 287 282 279 279 284 286 287 286 286 287 291 290 289 289 289 288 287 288 288 287 287 288 288 288 289 288 289 289 289 288 288 288 288 287 287 286 286 286 285 284 284 283 282
289 288 285 280 278 277 283 288 290 286 280 289 291 289 288 288 283 284 286 288 288 289 289 289 288 289 288 289 288 288 288 287 287 288 288 287 286 286 285 285 284 283 283 284
283 282 281 281 277 283 288 289 289 278 281 288 291 289 288 287 287 287 288 288 289 289 289 289 289 288 288 288 288 288 287 287 288 289 288 287 287 286 285 284 282 283 283 283
283 280 279 280 278 279 290 288 283 286 289 289 288 289 289 288 287 288 288 288 289 289 290 289 288 288 288 288 287 287 286 289 289 288 287 286 286 286 287 283 282 282 282 282
282 286 283 284 284 290 290 287 288 290 290 290 290 289 289 287 287 288 288 288 288 288 289 289 288 288 288 288 287 287 288 289 289 287 286 285 285 285 285 282 282 282 283 283
286 288 286 286 287 288 290 289 291 292 291 291 291 289 289 287 288 287 287 287 287 288 288 289 288 288 287 288 289 288 289 289 287 286 285 285 284 286 284 283 283 283 283 284
287 287 286 284 287 286 289 290 292 292 292 292 290 289 288 289 287 287 287 287 287 288 289 289 288 287 288 288 289 289 289 288 287 285 285 284 285 283 282 283 283 285 286 288
288 287 284 285 289 287 286 289 292 291 291 291 289 288 288 289 288 288 287 288 288 288 288 288 288 288 288 288 288 289 289 288 286 285 284 284 284 282 282 282 284 290 291 292

GFSCGP_sfc_thetae_084.txt.gz
Theta_e
297 293 291 293 297 299 298 297 295 297 303 302 301 302 305 309 311 309 306 305 305 307 312 320 321 323 323 317 310 307 306 304 300 297 297 296 296 295 296 297 298 299 300 299
293 289 296 300 300 299 300 299 297 298 304 300 300 301 305 307 309 310 310 309 308 302 309 316 312 307 313 312 309 306 304 299 298 298 296 296 295 296 296 298 298 298 298 299
291 295 300 300 300 300 301 298 298 297 300 298 299 297 299 305 307 306 302 305 303 301 306 310 305 303 304 306 306 304 301 299 298 297 297 297 298 297 297 297 297 298 298 298
295 300 300 300 299 301 295 302 301 300 297 292 297 289 294 296 299 297 296 297 298 298 304 307 304 300 300 304 303 299 298 297 298 298 298 297 297 296 297 297 297 298 297 297
292 297 297 298 299 303 297 304 300 299 293 291 290 289 292 290 292 294 294 296 296 296 298 302 302 300 298 298 298 298 297 296 296 296 297 297 296 296 296 297 297 297 297 297
297 303 301 298 301 303 302 298 297 293 291 285 292 291 291 289 291 291 292 295 295 295 296 297 297 297 296 297 297 296 296 295 295 296 296 296 295 295 296 296 296 296 295 295
295 296 300 304 296 299 299 294 285 284 284 285 288 289 295 291 290 292 294 293 292 292 294 294 294 295 296 296 296 296 295 295 295 295 296 296 296 295 296 295 295 294 293 292
289 287 295 299 296 294 294 294 286 281 281 284 288 286 291 292 292 293 293 292 292 292 293 293 294 295 295 296 296 297 296 295 295 295 295 295 296 296 295 294 293 292 292 292
288 289 297 299 299 298 293 290 293 284 281 281 284 285 288 291 291 292 291 291 291 292 293 293 294 295 295 295 296 296 295 294 293 293 293 293 293 293 293 291 291 291 291 294
294 286 295 300 298 295 294 297 292 288 279 277 279 280 285 287 289 290 289 290 290 290 291 292 292 292 292 294 294 293 293 293 292 292 292 292 291 291 291 290 290 290 289 289
293 291 289 296 292 291 290 288 289 292 287 282 279 282 287 288 290 290 290 290 290 291 291 291 290 291 291 291 291 291 292 292 292 292 291 290 290 290 290 290 289 289 288 288
292 289 285 288 292 292 293 290 290 285 282 280 281 283 287 287 290 292 291 291 291 291 291 291 290 290 290 290 291 291 291 291 291 291 290 290 290 290 289 289 288 288 287 287
290 287 281 283 288 291 291 291 289 288 285 279 279 283 289 287 289 291 291 290 291 291 291 290 290 289 289 289 289 290 290 290 290 290 289 289 289 289 288 287 286 286 286 286
295 289 284 281 283 285 284 288 288 286 282 280 281 284 285 287 290 290 290 291 290 291 291 289 288 287 287 288 288 289 289 290 290 289 289 288 288 287 287 286 286 286 286 285
289 285 284 285 287 285 285 285 286 284 284 283 284 284 287 288 289 290 291 290 290 290 290 289 287 286 286 287 288 288 289 289 289 289 289 289 288 287 286 286 286 286 286 286
288 284 284 283 288 286 285 287 286 285 284 284 283 284 288 286 288 289 290 290 290 289 290 289 288 287 287 287 287 288 288 289 289 288 289 289 288 287 286 286 286 285 285 285
285 284 283 281 287 287 285 287 287 285 286 286 283 286 287 286 288 288 289 290 290 289 289 287 287 288 288 288 288 288 288 288 287 287 288 288 287 286 286 286 285 285 284 284
284 285 283 279 284 278 286 288 289 288 289 288 288 288 288 288 287 287 288 290 289 289 287 287 287 287 288 288 288 288 288 287 287 287 287 287 286 286 286 285 285 284 283 283
287 286 282 278 279 284 284 286 285 285 286 290 289 288 288 288 287 287 287 288 288 287 287 287 287 288 287 288 288 288 288 287 287 287 287 287 286 285 285 285 284 284 283 282
288 288 284 281 278 277 284 287 289 285 279 285 290 288 288 287 283 284 285 286 287 288 288 288 288 288 288 288 288 287 287 286 286 287 288 287 286 285 285 284 284 283 281 283
281 281 281 281 278 283 288 288 288 278 281 287 290 288 287 286 286 286 287 287 288 288 288 288 288 287 287 287 287 287 286 286 288 288 288 287 286 285 285 284 282 281 282 282
282 278 278 280 278 278 289 287 282 286 287 288 288 288 288 287 286 287 287 287 288 288 289 288 287 287 287 287 286 286 286 288 288 288 287 285 285 286 287 283 282 282 281 281
282 285 282 283 284 289 289 287 287 289 290 289 289 289 289 286 286 287 287 287 287 288 288 288 287 287 287 287 287 286 287 288 288 286 285 284 285 285 285 282 281 281 282 282
285 287 285 286 287 288 290 289 289 291 290 290 290 289 288 287 287 286 286 286 287 287 287 288 288 287 287 287 288 287 288 288 287 285 284 284 284 286 283 283 282 282 282 283
287 286 285 284 287 287 288 289 290 291 291 290 289 288 288 287 287 286 286 286 287 287 288 288 287 287 287 287 288 288 289 288 286 284 284 284 284 283 282 282 282 284 284 287
286 288 285 287 289 287 287 288 290 291 291 290 288 287 287 288 287 287 286 286 287 287 287 287 287 287 287 287 288 288 289 287 285 284 284 284 284 282 282 281 282 289 290 291

GFSCGP_sfc_thetae_087.txt.gz
Theta_e
299 295 293 295 296 297 299 299 299 301 305 305 304 305 307 311 313 311 311 313 315 319 320 321 328 332 335 334 331 327 321 314 309 304 304 304 305 305 305 307 307 308 308 308
296 292 297 300 298 297 294 295 298 303 304 304 303 304 308 310 311 313 312 310 310 309 314 321 324 328 329 329 326 321 320 311 309 306 305 306 305 305 307 307 306 307 308 308
293 295 300 297 298 295 294 294 298 300 302 303 302 301 304 308 310 312 313 314 314 314 309 315 317 320 323 323 319 318 313 310 308 305 304 304 305 305 305 305 306 306 306 307
295 299 297 297 296 299 293 302 302 300 300 295 300 293 300 303 305 306 309 305 309 307 307 313 315 312 314 318 315 313 311 307 305 305 306 306 306 305 307 307 307 307 306 306
295 298 298 296 297 302 297 304 302 300 298 297 295 296 299 295 297 301 302 301 303 303 305 310 312 310 310 309 310 311 307 304 305 305 307 307 305 305 306 306 305 306 306 305
299 303 302 300 302 303 302 300 298 296 296 291 296 296 296 296 298 297 298 300 301 301 301 305 307 304 304 306 306 305 304 303 304 304 304 305 305 305 305 306 306 306 305 304
296 297 301 303 298 302 301 298 289 288 289 288 291 293 298 296 295 297 298 299 299 299 301 300 301 301 301 303 303 303 303 301 302 303 303 304 305 304 305 305 306 304 303 302
288 288 296 300 298 296 297 297 289 283 286 289 291 289 296 295 296 296 297 298 297 298 298 299 300 301 302 302 301 301 301 300 301 302 302 303 304 304 304 303 303 301 301 301
288 288 298 300 300 300 295 293 297 287 285 286 289 291 293 294 294 294 295 296 296 296 297 298 299 300 300 300 301 301 301 301 301 302 302 302 302 302 301 300 300 300 300 299
294 288 296 300 299 298 298 300 293 293 283 281 284 285 292 291 293 294 294 295 295 295 296 297 297 298 299 300 299 300 301 300 299 299 299 298 298 299 298 299 298 299 298 297
296 292 291 298 295 292 294 292 292 295 290 285 283 288 292 292 294 294 295 295 295 295 295 295 295 296 297 297 298 298 298 298 298 298 297 297 297 297 297 298 297 297 296 296
294 291 286 291 298 294 295 292 294 291 285 285 284 289 292 292 292 296 295 295 295 295 294 294 294 295 296 296 297 297 297 297 297 296 296 296 297 297 297 297 296 295 295 294
292 290 284 285 291 294 294 294 291 290 289 283 284 289 291 293 292 295 296 295 294 294 294 293 294 294 295 295 295 295 295 295 295 296 296 296 296 296 296 295 294 294 293 293
295 290 287 284 287 289 289 290 291 290 286 285 286 289 292 293 293 293 295 295 294 294 293 293 293 293 293 294 294 294 294 295 295 295 295 295 295 295 295 294 293 293 293 292
291 286 287 287 288 288 287 287 288 287 288 287 289 287 291 292 293 295 296 294 293 293 293 293 291 291 292 292 293 294 294 294 295 295 295 295 295 294 293 293 293 292 292 292
289 286 286 285 290 288 286 288 287 287 288 287 287 288 292 291 292 293 294 293 293 293 293 292 291 291 292 292 293 294 294 294 295 294 294 294 294 293 293 292 292 292 292 292
287 286 285 283 287 288 285 289 289 288 288 289 287 292 292 291 291 293 293 294 294 293 292 291 291 291 292 293 293 293 293 294 293 293 293 293 293 293 293 292 291 292 292 292
286 287 285 283 285 281 289 291 291 290 290 291 290 292 291 291 289 290 291 293 293 293 292 291 291 292 292 293 293 293 293 293 293 293 293 293 292 292 292 291 291 291 291 291
288 287 284 282 281 286 287 289 288 288 289 288 291 291 290 290 291 291 290 292 292 292 291 291 292 292 292 293 293 293 292 292 292 293 293 293 292 291 291 290 291 291 290 290
289 288 286 283 281 280 287 289 292 289 283 288 292 290 290 291 289 290 289 290 290 291 291 291 292 292 293 292 293 293 292 292 292 292 293 292 291 290 290 291 290 290 289 288
283 283 283 283 283 286 290 291 291 283 285 290 293 291 290 291 290 289 289 289 291 291 291 292 292 292 292 292 292 292 291 292 292 292 292 292 291 290 291 290 290 289 288 288
284 282 282 282 282 281 292 290 287 289 291 292 292 292 291 290 288 289 289 290 290 291 291 291 291 291 291 292 292 291 291 292 292 292 291 291 291 290 290 289 289 288 288 287
284 287 285 286 287 292 292 291 292 291 293 293 293 292 292 289 288 289 289 290 290 291 291 291 291 291 291 291 291 292 292 292 292 291 290 290 290 290 290 289 288 287 287 287
288 289 287 288 289 290 292 292 291 293 293 294 294 292 291 289 289 289 289 289 290 290 290 291 291 291 291 291 292 292 292 292 291 291 290 290 289 291 290 288 288 287 287 287
289 288 287 286 289 290 291 291 292 293 294 293 292 291 291 290 289 289 289 289 290 290 291 291 291 291 291 291 292 292 292 292 291 290 289 289 289 289 288 288 287 287 289 289
288 289 287 288 291 291 291 291 293 292 293 292 290 289 290 290 289 289 289 289 290 290 291 290 290 290 291 291 291 292 292 291 289 289 288 289 289 288 287 286 286 289 290 291

GFSCGP_sfc_thetae_090.txt.gz
Theta_e
302 298 296 297 298 298 296 294 294 300 305 308 308 309 311 314 314 316 320 322 323 323 325 327 328 334 334 338 339 341 338 335 326 322 313 311 311 311 312 313 312 312 313 313
299 296 301 302 299 297 296 294 295 301 305 307 306 309 313 313 314 315 316 319 321 322 326 327 328 331 333 336 339 340 336 332 325 321 316 316 314 313 313 313 313 314 314 313
298 300 304 300 298 296 296 295 294 297 305 308 305 303 309 313 314 316 317 318 318 319 321 325 328 330 334 336 338 338 334 327 325 320 315 313 313 312 311 312 312 313 313 313
300 303 300 299 297 298 293 299 297 300 300 296 307 293 304 310 311 313 316 317 317 316 318 318 325 327 333 335 337 335 333 327 322 319 314 313 311 309 310 311 312 313 312 312
299 301 300 298 297 300 296 301 298 299 300 301 301 297 303 308 308 312 314 317 317 318 318 316 319 322 325 331 331 331 327 324 320 315 314 313 312 313 313 312 312 312 312 312
301 306 303 302 304 304 304 301 301 301 300 292 298 299 299 303 307 310 312 313 313 312 311 313 318 320 320 324 325 325 326 320 314 312 314 314 313 311 310 311 311 311 312 312
297 299 303 303 300 305 303 298 290 288 286 289 299 298 302 306 304 305 304 307 309 308 308 310 313 315 316 318 321 322 317 311 310 312 311 311 312 311 310 311 311 311 311 310
290 289 298 302 300 298 298 298 291 285 288 291 296 294 299 303 302 302 302 306 306 305 307 308 310 313 314 318 318 312 309 307 308 309 309 310 311 311 311 311 311 311 310 309
290 291 300 302 303 302 298 296 297 290 292 294 296 298 302 299 300 300 302 303 303 303 305 305 308 311 312 312 308 306 304 305 306 308 308 309 310 310 310 309 309 308 307 306
295 289 298 300 303 301 300 302 291 292 287 286 291 292 297 298 299 300 300 302 301 302 303 304 306 307 307 307 305 305 305 306 308 308 308 308 307 307 307 306 305 305 305 304
300 294 292 300 297 295 298 296 298 298 294 290 289 291 298 298 298 300 301 302 302 302 303 304 305 306 305 306 305 304 306 306 306 306 305 305 304 305 304 304 304 304 304 303
299 294 288 294 301 301 295 295 299 295 291 292 292 293 297 298 298 302 301 301 301 301 301 302 303 303 304 305 305 305 305 304 304 304 304 304 304 303 303 303 303 303 302 301
297 294 289 289 295 297 296 298 296 295 297 292 291 293 298 300 299 302 301 300 300 300 300 301 302 303 303 303 303 303 303 303 303 303 303 302 302 302 303 302 302 300 300 299
299 294 291 288 289 291 291 295 296 296 293 292 293 296 299 299 299 300 301 301 301 301 300 301 301 301 302 302 301 301 302 302 302 302 302 301 301 302 302 301 300 299 299 298
296 292 292 293 293 292 292 291 293 292 294 291 293 293 297 299 298 302 303 301 300 300 300 300 300 300 300 300 300 301 300 301 301 300 300 300 300 301 300 299 299 298 298 298
296 292 292 289 292 293 290 292 292 291 292 293 294 293 297 297 299 301 302 300 300 300 299 299 299 299 299 299 300 300 300 300 300 299 299 300 300 300 299 299 298 298 298 298
293 292 291 288 291 292 290 292 293 292 293 293 291 295 297 297 297 300 301 301 301 301 300 299 298 298 299 299 300 299 299 299 299 299 299 299 299 298 299 298 298 297 298 298
293 292 293 290 292 285 293 295 294 293 294 294 295 296 296 296 296 297 298 302 302 301 300 299 298 298 299 299 299 299 299 299 298 298 298 298 298 298 298 298 298 297 298 297
295 293 291 289 289 291 291 293 292 291 291 293 294 295 295 296 297 296 296 298 301 301 300 299 299 299 299 299 298 298 298 298 298 298 298 298 298 297 297 297 297 297 296 296
293 295 292 290 287 285 292 294 296 293 288 294 296 296 296 296 295 296 296 297 297 298 298 298 298 298 298 298 298 298 297 298 297 298 298 298 297 297 296 297 296 296 296 294
290 291 290 290 289 292 296 296 295 288 290 295 298 297 297 297 296 295 296 296 298 298 297 298 298 297 298 298 298 297 297 297 297 298 298 297 297 297 297 296 296 295 294 293
291 290 291 290 289 288 296 295 291 295 297 297 298 298 298 296 295 295 296 295 296 296 296 297 297 297 298 298 298 297 297 298 298 297 297 297 297 296 295 295 295 294 293 292
291 294 293 293 294 297 298 297 298 296 298 299 298 299 299 296 295 295 295 295 296 296 296 297 297 297 297 298 298 297 297 298 297 297 296 296 296 296 296 294 293 292 292 290
295 294 294 294 295 297 298 299 298 299 298 299 300 299 298 297 296 295 295 295 295 296 296 297 296 295 296 297 297 298 298 298 297 296 295 295 294 294 294 293 293 290 290 289
297 295 294 295 298 298 298 297 297 298 299 298 298 298 298 297 296 295 295 295 295 296 296 297 296 296 296 297 297 297 297 297 296 295 294 294 294 293 292 291 290 290 291 290
297 296 294 294 297 297 299 300 298 298 298 299 297 296 297 297 296 296 295 296 295 296 296 296 296 296 296 296 296 296 296 295 294 293 292 292 291 290 290 289 289 291 290 291

GFSCGP_sfc_thetae_093.txt.gz
Theta_e
306 300 298 301 301 300 297 295 294 297 301 300 303 305 309 312 318 317 320 321 321 322 330 334 336 338 338 340 336 341 340 335 327 322 316 314 313 314 314 315 313 313 314 313
303 298 304 304 303 300 297 294 294 297 300 300 301 303 309 312 316 317 319 321 321 322 326 331 334 336 336 332 331 340 340 335 332 326 321 318 315 315 315 318 314 314 314 313
299 302 305 302 300 298 297 294 294 294 298 301 302 300 305 310 316 317 319 322 322 321 323 326 329 332 332 330 335 339 337 334 332 329 322 320 319 316 315 314 313 313 314 314
302 305 303 301 299 299 293 299 297 296 294 292 303 293 301 306 312 315 317 318 318 320 322 325 327 328 330 333 338 339 338 334 332 328 322 318 313 312 313 313 313 313 313 313
299 301 301 299 299 302 296 301 298 297 294 296 298 295 299 305 306 311 316 318 318 318 320 321 325 329 332 335 336 338 337 333 331 325 321 318 316 314 313 312 312 312 313 313
302 307 305 303 304 304 304 299 298 298 297 288 293 296 296 300 304 309 315 318 319 320 319 319 321 324 328 334 337 336 334 332 327 324 320 318 316 313 312 312 312 312 313 313
300 300 305 305 301 304 303 296 286 286 288 289 297 293 298 306 310 310 312 316 319 319 316 315 318 320 322 326 329 331 329 326 323 318 316 315 316 314 312 312 311 312 312 312
293 290 300 304 301 298 299 296 289 282 285 289 299 294 298 306 307 307 308 313 313 311 312 313 316 318 319 323 325 327 326 318 316 314 313 313 315 313 312 312 312 312 312 312
293 292 303 303 305 302 298 293 298 287 290 287 293 299 302 304 304 306 307 307 308 308 310 310 314 317 320 322 323 321 315 313 311 310 310 310 311 312 312 312 312 311 310 309
298 291 300 303 305 303 300 301 291 292 287 285 291 292 293 300 302 303 304 306 305 306 306 308 312 314 318 315 314 313 309 307 308 309 309 310 311 311 310 309 308 307 307 306
300 297 296 301 298 297 298 297 296 298 295 288 287 289 298 298 302 303 304 305 304 305 306 307 309 310 310 309 309 308 307 307 307 308 309 308 307 307 307 306 306 305 305 304
300 296 292 294 302 303 299 295 298 291 290 295 292 290 302 302 304 305 303 304 304 305 306 307 307 307 307 306 306 306 306 306 307 307 307 306 306 305 305 304 304 304 303 302
299 295 290 292 297 299 295 300 299 299 297 292 290 291 302 303 304 304 303 303 303 303 304 305 306 306 306 306 306 306 306 306 306 306 305 304 304 304 303 303 302 302 301 300
302 296 293 288 291 295 292 294 300 298 294 293 293 295 299 300 301 303 303 303 302 303 303 304 305 304 305 305 305 305 304 304 304 304 303 303 303 303 302 302 301 300 300 299
299 291 295 295 295 295 294 293 294 293 294 290 294 294 297 298 300 303 304 303 302 302 303 303 303 303 304 303 303 303 303 303 303 302 302 302 302 301 301 300 300 300 299 299
299 292 295 293 294 295 293 296 296 295 294 293 294 294 299 300 302 303 303 303 302 302 302 303 303 302 302 302 302 302 302 301 302 301 300 301 300 300 300 300 299 299 299 299
295 294 293 291 294 294 292 293 294 295 296 295 292 296 300 299 300 302 303 303 303 303 303 302 302 302 302 302 302 301 301 301 300 300 300 299 299 299 299 299 299 299 298 299
294 294 294 291 294 287 294 298 296 294 294 295 294 298 298 299 299 301 303 304 304 304 303 302 302 301 301 302 302 301 300 300 299 299 298 299 298 298 299 298 298 298 298 298
297 295 292 289 291 293 294 295 293 292 291 298 297 298 298 299 301 298 300 302 305 304 304 302 301 302 301 301 300 300 299 298 298 298 298 298 298 298 298 297 298 298 297 297
297 297 293 293 288 287 293 296 297 295 289 298 299 298 298 299 296 296 299 301 302 302 301 301 301 301 300 299 300 299 298 298 297 298 298 299 298 298 297 298 297 297 297 296
293 294 291 292 291 294 297 298 298 289 291 299 300 300 299 298 298 298 300 299 300 300 300 300 300 299 299 299 299 297 297 297 298 298 298 298 298 298 298 297 297 297 296 295
293 292 292 293 291 290 299 297 293 297 300 300 300 301 300 298 298 298 298 298 298 298 298 299 298 298 299 299 298 297 297 298 298 298 298 298 298 297 297 296 296 295 295 293
292 296 294 295 296 300 301 300 302 301 300 301 301 301 302 299 298 298 297 298 298 297 298 299 298 297 298 298 298 296 298 298 298 298 297 297 297 296 296 295 294 293 293 290
298 298 296 297 299 300 300 301 301 301 301 302 302 302 302 299 299 298 298 297 297 297 297 298 297 296 296 297 298 298 298 298 297 296 296 296 295 295 295 294 293 291 289 289
298 298 297 297 300 301 301 301 301 302 302 301 301 302 301 301 299 298 297 297 297 297 297 297 297 296 296 297 297 298 298 298 296 296 295 294 294 293 292 291 291 290 290 290
296 296 294 294 301 300 301 303 304 302 301 302 301 300 301 301 299 299 297 298 297 297 297 297 297 296 296 297 297 297 297 297 295 293 293 293 292 291 290 289 289 292 292 291

GFSCGP_sfc_thetae_096.txt.gz
Theta_e
307 300 296 299 302 301 299 296 294 296 299 297 295 297 301 306 309 309 313 317 317 323 328 331 333 333 334 333 335 339 336 327 322 318 318 317 312 311 309 310 309 307 308 309
302 297 303 303 303 301 299 295 294 296 298 296 295 294 299 306 309 311 315 316 317 318 325 329 329 328 329 334 335 337 332 325 322 320 320 318 311 310 310 310 309 308 308 308
298 301 305 303 300 297 297 295 294 293 296 297 295 292 295 303 308 314 316 317 319 318 319 326 325 328 333 330 327 336 332 327 324 322 321 317 312 311 309 308 307 307 308 308
300 305 302 301 298 299 293 299 297 295 293 286 295 285 294 301 303 310 313 314 316 317 319 325 328 329 330 329 329 338 334 331 328 326 319 314 310 307 307 308 308 307 307 307
298 300 299 298 299 301 296 300 297 297 292 290 290 288 294 301 300 308 311 313 315 317 317 321 326 327 330 328 333 336 333 331 330 326 320 313 309 309 309 310 307 306 306 306
301 307 304 301 303 303 304 299 297 296 293 284 289 291 292 297 300 307 311 313 314 315 316 317 320 326 326 332 334 335 332 330 328 325 317 313 313 307 308 305 307 305 306 306
298 300 304 305 300 303 301 295 284 283 284 283 294 290 292 300 304 305 308 310 314 314 314 314 315 319 323 328 331 332 330 327 326 319 316 314 309 308 308 307 308 306 305 306
290 289 298 303 300 297 298 294 286 278 283 286 294 288 294 305 306 308 310 314 316 314 310 312 316 317 320 322 325 326 326 322 321 314 313 312 309 307 307 309 308 308 305 305
291 292 301 303 303 302 296 293 296 287 289 287 288 294 300 304 303 304 305 306 306 306 307 310 313 314 317 319 321 323 318 315 311 309 308 306 306 308 308 308 308 305 303 305
296 289 299 302 305 304 300 300 290 289 283 281 288 287 289 296 299 301 301 300 302 303 304 307 310 314 317 319 317 313 309 306 305 305 305 306 308 309 307 305 302 301 300 300
297 294 293 299 298 295 296 294 296 294 292 286 283 286 295 296 299 299 299 300 301 302 303 305 307 307 308 307 305 304 304 303 303 307 305 305 305 305 303 300 300 299 299 298
298 293 288 293 300 302 299 295 297 290 288 290 288 286 297 300 300 300 300 304 303 303 303 303 303 302 303 303 304 304 305 304 305 305 303 302 301 300 298 298 298 298 297 297
296 291 286 289 294 296 293 295 299 297 296 290 287 290 298 299 299 300 298 299 300 302 301 301 301 300 300 303 301 303 302 302 302 302 301 299 298 297 296 296 296 296 295 294
301 293 289 285 289 292 290 293 294 296 291 290 290 291 293 297 299 299 299 299 299 300 301 301 300 299 299 300 300 299 299 299 299 299 298 297 296 296 295 295 295 295 294 293
296 289 292 293 294 293 292 292 292 290 289 285 289 290 293 295 297 300 300 300 299 299 300 300 298 297 297 297 297 297 298 297 297 297 297 295 296 295 295 294 294 294 293 293
296 290 292 290 295 294 292 294 294 294 293 291 292 291 296 297 299 298 298 299 298 298 299 299 299 298 297 296 296 297 296 296 296 296 295 296 296 295 295 294 294 294 293 293
293 292 290 287 294 294 289 291 293 293 292 290 288 292 296 295 298 297 298 299 299 299 299 298 298 297 297 296 297 295 295 295 295 294 295 295 295 294 294 294 294 293 292 292
292 291 291 286 291 282 291 295 295 293 293 294 293 296 296 296 295 296 297 298 299 300 299 298 297 296 296 296 296 295 295 294 294 293 294 294 294 294 294 293 292 292 291 291
295 292 288 285 285 290 292 293 292 290 290 296 295 296 296 296 295 292 297 300 300 299 298 296 296 296 296 295 295 294 293 293 293 293 293 294 294 293 293 292 291 292 291 290
296 294 289 288 284 282 291 294 296 293 284 296 296 295 295 296 290 289 295 298 297 297 297 297 296 296 294 294 294 294 293 292 292 293 294 294 294 293 292 291 291 291 291 291
290 290 286 287 286 291 294 295 297 284 286 296 297 296 296 293 292 294 296 296 297 296 296 296 295 293 293 294 294 293 292 292 294 295 294 294 293 292 292 291 291 290 290 290
290 288 287 289 285 284 297 295 290 293 295 296 296 297 296 294 295 295 296 295 295 294 295 295 293 293 293 293 292 292 292 293 294 294 294 293 292 293 293 290 290 290 289 288
288 292 289 291 291 297 297 296 298 298 296 296 295 297 297 295 295 295 294 294 294 294 294 294 293 292 292 293 292 291 293 294 294 293 292 291 292 291 291 289 288 288 287 285
294 297 292 293 296 297 297 297 298 298 297 298 298 298 298 296 295 295 294 294 293 294 293 294 293 292 291 293 293 293 294 295 293 291 290 290 289 290 289 289 288 285 284 284
293 295 293 293 296 298 298 298 298 298 299 298 298 298 298 297 296 295 294 293 293 293 293 293 292 292 292 293 293 294 294 294 292 290 290 289 289 288 286 286 285 286 285 288
293 291 289 289 296 295 297 299 300 298 297 298 298 296 298 298 296 295 294 294 293 293 293 293 293 292 292 293 293 293 294 292 290 289 288 288 287 286 285 284 284 292 292 292

GFSCGP_sfc_thetae_099.txt.gz
Theta_e
302 298 293 296 297 298 296 294 293 296 299 294 293 293 295 298 300 302 304 309 317 319 323 329 330 330 330 333 336 334 331 325 321 319 317 317 320 318 310 308 307 307 306 306
296 292 299 302 302 299 296 293 291 295 298 294 292 292 295 296 299 302 304 306 311 317 325 327 329 329 330 330 336 332 329 324 322 322 321 322 320 311 309 309 307 307 305 306
293 297 304 302 299 297 295 293 293 293 296 295 291 289 291 296 297 303 308 312 315 318 320 324 327 328 328 331 336 331 327 324 323 323 322 320 315 308 307 306 305 306 306 306
297 303 301 299 298 299 292 299 298 295 291 284 290 282 288 292 295 299 306 310 316 318 317 322 326 326 325 330 333 330 326 324 324 322 320 316 312 307 307 306 306 305 306 305
293 298 298 298 298 300 296 301 297 296 291 287 289 283 286 292 295 298 303 309 315 317 317 319 326 325 327 331 334 331 328 326 324 321 320 316 311 310 313 309 305 304 306 305
295 303 303 300 302 302 302 299 297 295 292 281 287 286 285 292 295 299 304 310 313 314 315 319 324 329 327 328 334 332 330 328 327 323 318 314 311 309 310 305 304 305 303 305
292 297 301 303 297 301 301 293 282 279 281 282 292 287 288 298 302 303 304 307 310 312 312 316 319 322 324 330 330 331 329 327 327 324 316 315 312 310 308 304 304 305 303 305
284 285 295 300 297 295 296 293 284 276 280 284 289 285 293 301 305 306 308 310 310 311 311 313 316 318 322 325 329 329 327 326 324 319 317 315 309 307 306 305 307 305 307 306
286 288 298 299 301 299 294 293 294 285 287 285 287 291 299 302 303 304 305 305 305 306 310 311 313 316 318 320 322 321 323 321 316 311 311 305 304 305 305 306 305 305 303 304
291 285 294 299 301 300 296 300 290 289 283 277 286 286 288 297 299 300 300 304 305 307 308 310 312 314 316 314 311 313 312 308 307 307 306 307 306 305 305 303 301 300 301 300
291 287 287 293 293 291 292 291 295 294 289 285 281 284 296 295 297 296 296 299 301 301 303 303 304 303 302 303 305 305 305 303 304 306 306 305 303 303 301 301 300 300 299 297
293 288 283 288 295 298 293 290 296 288 287 290 288 285 295 296 297 298 297 299 299 300 300 300 300 300 299 299 301 300 302 305 304 303 301 301 301 298 300 298 297 297 295 295
292 286 281 284 288 291 288 291 292 295 293 286 281 285 295 295 295 296 295 299 301 299 299 298 297 297 298 298 300 300 302 301 301 301 297 297 297 296 294 293 293 293 293 293
299 289 285 281 285 288 287 290 290 290 283 284 286 286 290 293 294 295 295 296 297 298 298 297 296 295 296 298 298 298 297 299 298 297 297 295 293 293 292 293 292 293 292 291
290 285 287 289 291 291 289 290 291 287 286 282 286 287 290 292 296 296 297 297 297 297 298 297 295 294 294 294 294 295 295 295 295 294 293 293 293 293 293 293 292 292 292 292
290 285 288 286 292 291 289 291 291 290 289 288 289 288 294 296 296 296 295 296 296 297 297 297 296 294 294 293 293 294 293 294 294 293 293 294 294 294 293 293 292 292 291 291
286 286 285 282 289 290 286 288 289 288 289 287 285 290 292 292 294 293 294 297 296 296 296 295 295 294 294 294 294 292 292 292 292 293 293 293 293 293 292 292 291 291 290 289
286 286 286 282 286 279 288 292 292 290 292 292 292 293 293 292 292 292 294 296 296 297 295 294 293 293 293 293 293 292 292 291 291 291 292 292 292 292 291 291 290 290 289 289
289 287 283 280 280 287 288 290 289 287 288 293 292 293 294 293 293 291 295 296 296 295 294 293 293 292 292 292 292 292 291 291 291 291 291 291 291 291 291 290 289 289 289 289
291 289 285 282 279 279 287 291 293 290 282 293 294 292 293 293 288 288 293 294 294 294 295 294 293 292 291 291 292 291 290 291 291 291 292 292 292 291 290 289 289 289 289 289
285 285 282 281 278 287 291 293 294 281 285 293 295 293 293 290 291 292 294 294 294 294 294 293 292 290 291 291 292 290 290 290 292 293 293 292 291 291 290 289 288 288 288 288
286 282 281 283 279 281 294 292 287 291 292 294 294 294 292 291 292 293 293 293 293 292 292 292 290 290 290 291 290 290 289 291 292 293 292 291 289 291 291 287 287 287 286 284
284 288 286 287 287 294 294 293 295 295 293 293 294 294 294 293 292 293 292 292 292 292 292 292 290 290 290 290 291 290 290 292 292 291 289 289 289 288 288 286 285 284 283 283
288 293 289 289 291 293 294 294 295 295 294 295 296 296 295 293 293 292 292 291 291 291 291 291 290 290 289 290 292 291 292 292 290 288 287 287 287 287 286 285 285 283 283 283
288 288 289 289 292 293 294 294 296 297 297 296 296 297 296 294 293 292 291 291 291 291 291 291 290 290 290 291 291 291 291 290 288 287 286 286 286 285 284 284 284 285 284 288
289 287 286 287 293 291 292 295 297 295 295 296 296 295 296 295 294 293 291 291 291 290 291 290 290 290 290 290 290 290 290 289 287 286 286 286 285 283 283 283 283 290 291 291

GFSCGP_sfc_thetae_102.txt.gz
Theta_e
300 294 291 294 296 296 294 292 291 295 299 295 294 293 294 296 295 295 297 300 307 316 325 327 328 328 330 331 332 331 328 325 322 320 317 316 315 318 313 307 305 305 307 306
295 291 297 301 301 298 296 292 291 294 297 295 294 292 294 295 295 295 296 299 305 312 317 325 326 327 329 330 332 331 330 324 322 321 321 320 320 320 311 308 306 306 305 306
291 296 302 301 298 296 295 292 292 292 296 295 291 290 291 294 295 296 297 300 304 309 321 325 325 326 327 331 332 331 325 324 324 324 322 321 316 314 313 308 307 305 305 306
294 301 300 299 297 298 291 298 297 296 293 286 290 282 287 290 292 294 299 301 309 318 323 325 326 325 327 331 334 330 325 324 324 323 323 320 319 314 312 309 307 304 304 304
290 294 296 297 297 299 295 301 298 297 293 290 290 284 285 290 292 297 299 302 306 318 323 324 325 326 329 331 331 327 325 325 324 324 323 321 317 313 311 311 311 306 303 304
293 299 301 298 301 300 302 299 295 293 291 282 288 285 283 291 295 298 303 305 305 315 319 324 326 328 328 331 329 326 325 326 324 323 320 319 314 311 311 310 309 307 303 303
290 293 299 301 295 299 299 293 283 278 281 282 289 286 285 295 299 301 302 304 307 309 314 319 322 323 325 329 329 327 326 325 324 322 319 317 314 312 311 311 309 305 302 302
283 283 293 298 294 293 295 294 285 275 280 282 290 284 291 298 302 304 304 306 309 310 313 316 323 323 324 329 330 329 328 326 325 320 318 317 317 315 313 311 308 304 304 304
284 285 296 296 297 297 293 290 294 286 287 282 287 292 296 302 302 304 304 305 305 309 311 314 318 321 325 327 327 326 325 324 321 318 317 316 313 309 308 308 308 305 305 303
288 283 292 295 298 298 294 297 289 289 281 275 284 285 287 297 298 301 304 304 305 307 309 311 314 313 314 316 318 322 320 318 315 311 306 305 306 306 305 304 301 301 299 300
289 285 286 291 289 289 289 288 294 291 290 283 278 282 293 293 296 296 301 306 304 303 303 300 300 302 303 304 304 304 308 307 307 307 305 304 303 302 301 300 300 298 299 297
291 286 282 286 292 294 290 288 292 286 285 289 286 284 293 293 295 297 297 298 299 301 301 299 299 299 299 300 304 304 305 304 303 303 302 301 300 298 299 298 296 298 295 294
290 285 280 282 286 290 287 289 291 293 290 285 280 285 294 293 294 295 297 298 298 298 298 298 298 296 296 297 299 300 300 298 299 299 298 297 296 296 293 294 294 293 292 292
297 287 284 280 283 286 285 289 290 289 280 281 283 284 290 292 292 294 295 295 296 298 296 295 294 294 294 296 295 295 296 297 297 296 295 293 293 293 291 291 291 291 290 290
289 283 285 287 289 289 288 288 289 285 284 280 283 285 288 292 293 294 295 296 296 296 296 295 294 293 293 293 296 296 296 296 294 293 292 291 291 291 291 291 291 291 291 290
286 282 285 285 289 289 288 289 288 287 285 285 287 286 291 292 294 293 294 295 294 294 294 294 294 293 292 292 291 292 292 292 293 292 291 292 292 292 291 291 291 290 290 289
283 284 283 280 287 287 284 286 287 286 288 286 284 287 291 291 292 291 292 294 294 294 293 293 293 292 292 291 292 291 291 292 291 291 291 292 292 291 291 290 290 289 288 288
283 284 284 280 284 278 287 290 290 290 290 290 290 291 291 291 291 290 292 294 294 294 293 292 291 291 291 291 290 290 291 290 290 290 290 291 291 290 290 290 289 288 288 288
286 284 281 278 280 285 287 289 288 286 286 291 291 291 291 292 290 290 292 295 294 293 292 291 291 290 290 290 290 290 289 290 290 290 290 290 290 290 290 289 288 288 288 288
287 287 284 281 278 278 287 289 291 289 281 291 292 291 291 290 286 287 291 293 292 292 292 291 290 290 290 289 290 290 290 289 289 290 290 290 290 290 289 288 288 288 287 288
284 284 281 280 278 284 291 291 292 279 283 291 293 292 291 289 290 291 292 292 292 292 291 291 290 289 289 290 290 289 289 289 290 291 291 291 290 289 288 287 287 286 286 286
285 281 280 281 279 281 293 291 287 290 290 292 292 293 291 290 291 291 292 291 291 291 291 290 289 288 288 289 290 288 288 290 291 291 290 289 288 289 289 286 285 285 283 282
284 288 285 286 287 294 294 293 293 293 293 292 293 293 292 291 291 291 290 290 290 290 290 289 289 288 289 290 290 289 289 290 289 288 287 286 287 286 286 284 283 282 282 282
287 290 288 288 290 292 293 293 294 295 294 295 295 294 293 291 291 291 290 290 289 290 289 289 289 288 288 289 290 290 290 289 287 286 285 285 285 285 283 284 284 282 282 283
286 287 287 287 289 292 294 293 294 295 295 294 295 295 294 293 291 291 290 289 290 290 289 289 289 288 289 289 289 289 289 288 286 285 285 285 284 282 282 283 283 284 284 286
288 288 287 286 291 291 291 294 295 295 295 295 295 294 294 294 292 291 290 290 290 289 289 289 289 289 288 288 288 288 289 287 286 285 285 284 282 281 281 281 281 288 289 290

GFSCGP_sfc_thetae_105.txt.gz
Theta_e
299 293 290 293 295 295 293 291 290 293 297 294 293 293 294 296 295 293 294 294 298 311 324 328 328 330 328 328 329 331 333 335 329 321 317 314 312 313 311 307 307 305 305 304
294 289 296 299 300 297 295 292 291 294 297 294 293 293 294 294 294 295 294 294 295 300 310 323 326 326 327 327 330 332 333 331 327 323 320 317 316 319 316 309 305 307 306 305
290 295 301 300 298 295 294 292 291 292 297 295 292 289 291 293 294 295 295 296 300 299 305 322 324 325 327 327 329 331 332 329 323 321 321 318 318 317 316 311 305 305 306 306
292 298 296 297 296 296 290 297 297 296 294 288 294 283 290 292 291 293 299 299 302 305 313 322 324 324 326 327 330 330 329 324 322 322 320 317 316 313 317 315 309 307 305 305
289 291 294 295 295 297 293 299 297 295 291 290 289 286 285 290 293 297 301 303 305 305 317 321 323 325 326 331 330 326 326 326 324 323 322 320 319 315 313 312 310 306 304 304
291 296 298 297 299 298 299 297 294 291 288 281 288 287 282 291 295 298 301 303 305 306 318 320 324 325 326 331 329 326 325 325 326 325 324 323 317 314 311 311 310 311 307 303
289 291 295 299 293 296 297 291 282 277 278 282 289 287 285 293 298 301 300 302 308 310 314 323 321 323 325 326 329 327 326 323 324 324 322 320 317 315 312 310 309 310 308 303
282 282 291 296 292 290 293 290 286 275 278 281 290 284 291 299 302 306 306 307 311 313 317 318 321 322 322 327 326 326 325 325 324 320 319 319 317 313 313 313 311 310 308 304
283 283 293 295 294 295 291 287 291 286 287 281 286 292 296 301 302 305 305 304 305 310 313 315 318 322 324 327 326 327 326 324 322 321 321 318 315 315 315 312 308 308 305 304
287 282 289 293 296 296 293 294 287 287 280 278 282 283 286 292 297 299 304 302 302 304 306 308 311 314 316 319 323 323 322 320 319 318 317 315 313 313 308 305 305 303 300 300
288 284 285 289 287 286 287 285 291 289 289 282 278 282 290 292 295 295 299 300 301 300 300 302 302 304 306 308 313 314 315 312 307 305 304 303 302 302 301 301 300 298 297 296
289 285 281 285 290 291 289 285 289 283 280 287 286 283 292 291 295 297 297 300 299 300 299 299 299 301 301 304 306 305 304 303 302 302 301 300 299 299 296 296 297 296 294 295
289 283 278 281 285 288 286 288 287 291 287 283 278 283 294 292 293 294 296 297 298 298 297 296 296 296 297 298 299 298 297 297 298 299 298 297 295 294 295 293 293 293 292 291
294 285 281 278 281 285 284 287 288 286 279 279 281 284 288 292 292 294 293 295 295 295 295 294 294 293 294 294 294 294 294 295 295 295 294 293 291 290 290 290 290 290 289 289
287 282 282 285 287 287 287 287 287 283 283 280 282 284 288 290 290 291 294 295 294 294 293 293 292 292 292 294 294 293 292 292 293 292 291 290 290 290 290 290 290 290 290 289
284 279 283 283 287 287 286 288 288 285 284 284 285 285 290 291 291 292 291 293 293 292 293 293 292 292 291 290 290 291 291 291 292 290 290 291 291 291 290 290 289 289 289 289
282 281 281 279 285 286 283 285 286 285 286 285 283 286 290 289 291 290 291 293 292 292 292 292 292 291 290 290 291 290 290 290 290 290 290 291 291 290 289 289 289 289 288 287
282 283 282 279 283 278 286 289 289 288 289 289 289 289 291 291 290 290 292 292 292 292 291 291 290 290 290 290 290 290 290 289 289 289 289 290 289 289 289 289 288 287 287 287
285 283 280 278 278 284 287 287 287 285 285 291 290 290 289 291 289 289 291 293 293 291 291 290 290 289 288 289 289 289 288 289 289 289 288 289 289 289 289 288 287 287 287 286
285 286 283 280 277 278 286 288 289 288 281 291 291 290 289 289 285 288 289 292 291 291 291 290 289 288 288 288 289 289 288 288 288 289 289 289 289 289 288 287 287 286 286 287
282 282 278 280 277 283 290 291 290 279 283 291 292 291 290 288 289 290 290 290 290 290 290 289 289 288 288 288 289 288 288 288 289 290 290 289 288 287 287 286 285 285 285 284
283 280 279 280 277 279 293 289 286 288 289 291 292 292 291 290 290 290 290 290 290 290 290 289 288 287 287 289 289 287 287 289 289 289 288 287 286 288 287 284 283 283 282 281
282 287 284 285 285 292 293 291 292 292 292 292 292 293 292 290 290 290 289 289 289 289 288 288 287 287 287 288 289 288 288 288 287 286 285 285 286 285 284 282 281 281 281 281
286 289 287 287 291 291 293 293 294 294 293 294 294 294 292 291 290 290 289 288 288 288 288 288 288 287 287 288 289 288 288 287 286 285 284 284 283 283 282 283 283 282 282 282
286 286 285 286 288 291 293 293 294 294 294 294 294 294 293 292 291 290 289 288 289 288 288 288 288 288 288 288 287 287 287 287 285 284 284 283 282 281 281 281 281 283 283 284
286 285 284 285 289 289 291 292 295 294 295 295 294 293 293 293 292 290 289 289 289 288 288 288 288 288 287 287 286 287 287 286 285 284 283 283 281 280 280 280 281 287 289 290

GFSCGP_sfc_thetae_108.txt.gz
Theta_e
297 293 289 292 294 294 292 291 289 294 297 294 293 293 295 297 295 294 293 293 294 295 318 327 329 329 328 328 328 328 330 334 330 322 319 316 315 311 308 308 311 312 307 303
292 288 294 298 299 296 294 291 290 294 297 294 294 293 297 297 296 295 295 294 293 294 297 317 326 327 326 326 327 329 331 333 333 331 325 318 316 316 314 314 307 306 306 304
289 293 299 297 296 294 292 290 290 291 296 296 295 289 291 295 294 294 297 299 301 302 303 304 322 325 326 325 327 329 331 333 334 327 322 319 318 317 313 311 306 306 306 306
291 295 294 294 294 294 289 295 295 294 290 285 295 282 289 292 292 297 299 300 302 303 305 307 320 323 325 325 327 329 331 331 327 323 321 317 317 312 317 314 311 311 309 306
287 290 291 293 294 295 292 297 295 293 289 285 289 284 284 292 292 296 300 302 304 306 305 310 320 323 326 326 327 329 330 327 322 322 321 318 317 317 315 312 311 310 309 307
291 294 294 295 298 296 298 295 291 289 286 281 289 285 283 290 294 296 301 303 307 309 310 316 319 323 323 326 328 328 326 325 323 323 321 319 318 316 313 312 310 308 308 306
287 289 293 297 291 293 296 289 280 278 277 276 290 287 288 296 300 303 303 305 309 311 315 316 316 319 322 325 327 326 325 323 323 324 322 321 318 317 315 312 311 309 308 304
280 280 289 294 290 288 292 289 282 279 279 281 289 284 290 298 302 305 306 306 309 312 314 317 321 321 322 326 326 325 324 323 324 323 320 320 320 321 319 315 313 311 311 311
282 282 291 293 293 293 288 286 290 285 282 281 280 290 296 297 297 300 304 304 304 305 310 311 316 320 326 323 324 325 325 323 321 321 321 320 319 315 314 314 314 313 310 307
285 281 287 291 294 293 293 293 285 284 276 277 280 281 286 291 294 298 301 300 300 300 302 306 307 311 317 322 323 322 322 320 321 322 322 317 316 316 316 313 309 306 305 304
287 284 284 287 286 284 286 284 288 287 286 277 280 281 291 291 294 297 300 301 300 300 299 301 304 306 312 313 314 315 313 311 310 308 310 307 308 305 304 302 301 299 298 297
288 283 280 283 288 289 287 284 287 282 281 284 282 284 291 291 295 298 297 299 298 298 297 299 299 300 302 301 302 301 301 300 301 301 300 299 299 298 296 296 295 296 296 295
287 282 277 279 283 286 285 286 286 288 284 280 276 280 290 293 292 295 295 294 295 296 295 296 296 295 296 297 297 296 297 297 298 298 297 296 295 295 292 291 291 292 291 291
293 284 280 276 279 283 283 286 286 284 278 278 280 282 287 289 291 292 293 294 294 294 295 295 295 294 294 295 294 294 293 294 295 294 293 291 290 290 289 289 289 289 289 289
285 280 281 283 285 285 285 285 286 283 282 279 281 282 287 288 290 291 293 293 293 293 294 293 292 291 291 291 291 291 291 291 292 291 290 289 290 290 290 290 289 289 289 289
283 278 281 280 285 285 284 287 286 285 283 283 284 284 289 290 291 291 291 292 291 292 292 292 291 291 291 290 290 290 290 290 291 290 290 290 290 290 289 289 289 289 288 288
282 280 280 278 283 284 282 285 285 283 285 284 282 286 289 289 291 290 291 292 291 291 291 291 290 290 290 289 290 288 288 289 289 289 289 289 289 289 288 289 288 288 287 287
280 281 281 278 281 278 285 288 288 286 288 288 287 289 290 290 290 290 291 292 291 291 291 290 289 289 289 289 289 289 289 288 288 288 288 289 289 288 288 288 287 287 286 286
284 282 279 277 278 283 286 286 286 285 284 290 289 289 289 290 289 289 292 293 292 291 291 290 289 288 288 288 288 288 288 288 288 288 288 288 288 288 288 287 286 286 286 285
284 284 281 279 277 277 285 287 288 287 281 289 290 289 289 288 284 287 290 292 291 291 290 289 288 287 287 287 288 288 288 288 287 288 288 288 288 287 287 286 285 285 284 286
279 280 277 278 277 282 288 290 288 278 284 289 291 290 289 288 289 289 290 289 290 290 289 288 288 287 287 288 288 287 287 287 288 289 288 287 287 286 285 284 284 283 283 282
282 279 278 279 277 278 291 288 284 287 288 290 291 290 290 290 289 289 290 289 289 289 289 288 287 286 287 288 288 287 287 287 287 287 286 285 284 286 285 282 281 281 281 280
282 286 283 284 284 291 291 290 290 291 291 290 291 292 292 291 290 290 289 288 288 288 288 287 287 286 287 287 288 287 287 287 286 285 284 284 284 283 282 281 281 281 281 281
286 288 286 287 289 291 292 294 293 293 292 292 293 293 292 290 290 289 289 288 287 287 287 287 287 286 286 287 288 287 286 286 285 284 283 282 282 281 281 281 281 281 281 280
286 287 285 285 288 289 292 292 294 293 293 293 293 294 293 291 290 290 289 288 287 287 287 288 288 287 286 287 286 286 286 286 284 283 283 281 281 279 279 280 280 282 282 284
285 285 284 284 291 289 288 291 293 293 293 293 293 292 292 292 291 290 289 289 288 287 287 287 287 287 286 286 286 286 286 285 284 282 281 282 280 279 279 280 280 287 289 289

GFSCGP_sfc_thetae_111.txt.gz
Theta_e
300 296 293 296 296 297 295 293 292 296 300 297 296 297 299 302 302 301 302 302 301 301 303 313 330 333 332 331 332 333 333 335 337 328 324 323 322 321 323 323 321 311 309 306
295 292 297 298 299 298 296 293 293 296 299 297 296 295 299 299 299 299 299 302 304 306 306 308 322 330 330 329 330 331 332 335 334 332 331 327 323 321 320 316 311 311 307 306
293 295 299 297 297 295 294 292 292 293 297 298 295 293 295 299 300 302 305 305 308 308 309 311 312 328 330 328 329 330 332 334 334 331 324 321 321 318 316 311 307 307 308 306
294 296 294 295 294 296 290 296 296 295 292 287 295 284 291 297 298 300 304 305 307 309 311 312 312 321 329 329 330 331 332 334 334 328 325 322 320 315 316 311 310 310 311 310
290 291 292 294 294 297 293 298 296 294 291 290 290 286 290 296 294 295 301 305 308 311 313 314 313 317 330 330 329 330 332 332 330 327 328 324 320 316 312 311 310 310 311 312
293 296 295 298 298 298 299 296 293 291 289 285 288 287 288 291 293 296 303 304 308 313 317 320 320 324 327 329 329 330 330 329 326 325 323 320 315 312 310 310 309 310 311 312
288 291 294 298 293 295 298 292 285 284 283 283 290 288 289 294 297 299 303 304 308 312 316 321 323 324 326 327 328 328 328 323 324 322 321 319 318 318 314 312 311 310 311 310
284 283 291 295 293 291 294 292 285 278 280 283 289 285 290 296 300 303 306 305 305 307 311 314 321 324 326 326 325 324 323 322 324 323 322 321 321 320 320 316 315 312 311 311
285 284 292 294 295 296 292 289 294 286 285 283 286 291 295 297 297 300 304 303 302 303 305 308 313 321 323 323 324 323 323 322 321 320 320 320 322 321 318 318 316 315 313 313
290 283 289 292 297 294 294 296 288 287 279 279 285 285 285 290 293 299 301 300 301 302 303 305 308 314 318 321 322 323 324 322 322 322 322 320 321 318 317 315 313 313 312 309
290 287 286 289 289 287 289 288 290 291 289 283 281 286 293 292 296 297 299 300 300 300 301 303 303 306 310 310 310 312 311 311 310 312 315 313 311 309 308 306 305 304 303 303
291 286 282 286 290 290 291 288 289 285 284 288 287 286 294 294 297 298 297 298 299 298 298 299 303 303 302 302 300 301 302 302 303 302 302 301 300 298 298 297 298 300 298 298
290 285 280 281 287 289 287 289 289 289 288 285 283 285 293 294 295 296 296 296 297 298 297 297 299 299 299 297 298 298 298 299 299 298 297 296 296 296 295 295 296 297 297 297
294 286 283 279 282 286 284 286 288 287 283 283 284 286 290 292 294 295 295 295 296 296 297 297 297 296 296 296 296 295 295 296 296 296 295 294 294 294 294 294 294 294 295 295
287 282 284 285 286 285 285 285 286 286 286 284 285 286 291 293 294 295 295 295 295 295 295 295 295 295 295 294 295 295 294 295 295 294 294 293 294 295 295 295 295 295 295 295
285 281 283 282 286 286 285 287 287 287 287 286 286 287 294 295 295 295 295 294 294 294 294 294 294 294 294 294 293 294 294 294 295 294 294 294 295 295 294 294 294 295 294 294
284 283 283 280 284 285 284 287 287 287 288 287 285 291 293 293 294 295 295 295 294 294 294 294 294 293 293 293 294 293 293 294 295 294 294 294 294 294 294 294 294 294 294 294
283 283 283 281 284 280 288 292 290 288 288 290 290 291 294 295 295 296 296 296 295 295 294 293 293 293 293 293 293 293 294 293 293 293 293 294 294 293 293 294 293 293 294 294
285 284 282 281 280 284 288 289 289 287 288 292 291 292 293 294 294 295 295 297 297 296 295 294 294 293 293 293 293 293 292 293 293 292 293 293 294 293 293 293 293 293 293 293
285 285 283 282 280 280 287 291 292 291 285 291 293 292 292 293 290 292 295 296 296 295 295 293 293 292 292 291 293 293 292 293 292 292 292 293 293 293 292 292 292 292 291 291
281 282 280 280 281 284 290 292 291 285 289 292 294 293 292 293 295 294 294 294 295 294 293 292 292 292 292 292 293 292 292 292 292 292 292 291 291 291 291 290 290 289 289 288
282 281 280 280 280 280 292 291 287 291 293 294 294 293 293 294 293 293 293 292 292 292 292 291 290 290 291 292 293 291 291 291 291 291 290 289 289 289 288 288 287 287 287 287
285 287 285 285 286 292 293 293 293 294 294 295 295 295 295 293 293 293 292 291 291 291 290 291 290 290 291 292 293 291 290 290 290 290 289 289 287 287 287 287 287 287 287 287
287 289 288 288 291 291 293 295 295 295 295 296 295 296 295 294 293 292 291 290 290 290 290 290 290 290 290 291 292 291 290 290 289 288 288 287 288 286 285 286 286 287 287 286
288 288 287 287 290 291 293 294 295 295 295 295 295 296 295 294 292 292 291 290 290 290 290 291 291 290 290 290 290 290 289 289 288 288 286 286 285 285 285 285 286 287 288 288
287 287 287 288 292 292 291 294 295 294 295 296 295 295 295 295 294 293 292 291 290 290 290 290 290 290 289 289 289 289 289 289 288 287 286 287 285 285 285 285 285 286 287 288

GFSCGP_sfc_thetae_114.txt.gz
Theta_e
306 302 297 299 301 301 299 297 297 300 303 301 300 300 302 305 305 304 306 308 309 308 310 310 320 335 338 339 338 338 338 337 337 335 330 331 332 333 332 330 329 319 317 313
301 298 301 302 301 300 299 297 297 300 302 301 299 298 300 305 305 306 307 308 310 312 312 313 315 329 334 336 337 338 338 337 337 337 332 333 329 331 331 330 329 320 315 312
297 298 301 299 299 297 298 295 296 297 300 301 299 296 298 303 306 306 308 311 312 312 313 314 316 322 331 333 335 336 338 338 338 336 328 325 323 323 321 317 316 315 313 311
298 299 297 298 297 298 294 299 299 298 296 291 298 290 296 300 301 303 306 308 311 314 315 316 318 319 328 331 335 337 336 337 338 335 330 328 326 320 319 311 310 311 311 311
295 296 295 296 296 299 296 302 299 298 296 295 295 291 294 298 294 298 302 306 310 314 317 317 318 320 323 332 333 334 333 334 333 330 327 327 321 316 314 310 310 311 312 314
296 299 298 299 300 299 302 300 298 297 296 291 292 290 291 291 293 296 301 305 307 311 318 322 324 323 323 332 332 333 333 333 332 331 329 320 315 311 309 309 309 310 312 313
295 295 298 299 297 300 301 298 294 291 291 288 294 292 291 295 297 299 303 304 306 309 313 320 325 326 328 328 330 331 330 324 325 324 320 317 313 311 310 309 310 311 311 312
290 289 294 298 296 295 297 297 291 283 285 289 295 289 293 297 302 306 306 305 305 306 310 314 323 325 327 328 328 326 323 321 322 320 319 321 320 315 315 313 312 313 313 314
290 290 296 297 299 300 295 293 298 290 290 288 292 294 298 300 303 304 304 303 302 304 307 310 315 323 323 324 323 323 323 322 323 321 321 321 322 322 320 319 317 317 315 313
294 288 293 295 300 299 297 299 292 295 285 283 288 289 289 296 298 301 303 301 300 302 304 306 309 312 316 319 323 323 325 324 323 323 323 323 322 322 321 318 316 314 314 313
295 291 291 294 292 292 295 294 294 295 293 287 285 288 296 297 299 299 301 302 300 299 303 304 305 305 307 308 309 312 313 316 316 315 315 312 310 308 308 308 308 309 310 308
295 292 288 289 294 295 295 293 292 290 287 293 290 290 299 299 300 301 301 302 300 300 302 304 303 303 305 306 305 304 305 304 305 305 303 301 301 300 300 300 301 302 302 304
296 291 287 288 292 293 291 292 292 293 294 289 288 290 298 300 300 300 300 302 299 301 302 303 303 303 301 300 300 301 302 302 303 302 300 300 299 299 299 300 300 301 302 302
298 293 289 286 288 290 288 289 291 291 290 289 290 291 296 297 299 300 299 302 301 301 300 302 303 300 301 301 300 299 299 300 301 300 300 299 299 299 299 299 299 300 300 300
295 289 289 290 290 290 289 288 290 289 293 289 290 290 294 298 300 300 301 301 301 301 299 300 301 301 301 300 300 300 300 299 299 298 299 299 299 300 300 299 299 300 300 300
291 288 288 288 290 290 289 292 292 292 293 292 292 291 298 300 301 301 301 301 301 300 300 300 301 301 300 300 300 299 299 300 301 300 299 300 300 300 300 300 299 299 299 299
290 290 287 287 289 290 289 292 293 294 294 292 289 295 300 299 299 301 301 302 301 300 300 300 300 300 300 300 300 299 300 301 300 299 299 300 300 299 299 299 299 298 298 299
290 289 289 287 290 284 292 296 295 293 294 295 294 296 300 301 302 303 304 302 302 301 300 300 300 300 300 300 300 300 300 300 299 298 298 299 299 298 299 298 298 298 298 298
292 290 287 287 287 291 293 294 294 292 294 297 296 297 299 300 300 301 303 304 303 302 302 302 302 301 300 300 300 299 299 299 298 298 298 298 298 297 298 298 298 298 298 297
290 291 288 288 285 284 292 295 296 295 290 296 299 298 298 299 295 300 303 304 303 303 302 301 301 300 300 299 300 299 298 298 297 298 297 298 297 297 297 297 297 297 297 295
287 287 286 288 287 291 297 296 295 288 293 297 300 300 299 298 301 302 303 303 304 303 301 301 300 299 299 299 299 298 298 297 297 297 297 297 297 296 296 297 296 295 294 293
289 287 286 288 286 285 298 296 292 299 299 299 300 301 300 302 300 300 301 302 301 301 300 299 299 299 298 299 299 298 297 297 297 297 296 295 295 294 294 294 294 293 292 291
290 294 292 293 294 299 299 301 301 301 301 301 302 303 302 301 300 300 299 300 300 300 299 299 299 297 298 299 299 297 297 297 296 296 295 294 293 293 293 292 291 291 291 290
294 295 293 294 299 297 298 301 301 301 301 303 303 303 303 301 302 300 300 299 299 299 297 298 297 296 296 298 298 298 297 296 295 294 294 293 292 291 291 291 291 291 290 289
296 295 294 295 298 298 299 300 303 303 303 302 303 303 302 302 302 301 299 298 298 297 297 297 297 297 296 297 297 296 296 296 294 293 292 291 290 290 290 290 290 290 290 289
294 295 293 294 300 301 301 302 303 302 302 302 302 301 302 303 302 301 299 299 297 296 296 296 297 297 296 296 295 295 296 295 293 292 291 290 290 289 290 290 289 287 287 288

GFSCGP_sfc_thetae_117.txt.gz
Theta_e
307 303 299 300 302 301 300 298 298 302 304 302 301 301 302 306 307 307 307 310 310 311 313 313 314 330 336 338 335 331 335 338 336 336 339 337 335 337 335 331 327 322 318 316
302 299 302 303 302 301 299 298 298 302 303 302 301 299 303 305 306 307 307 308 311 312 313 314 314 319 330 336 335 336 337 337 336 339 337 335 334 336 333 332 328 321 317 315
298 301 301 300 300 298 299 297 297 297 302 303 300 298 300 303 305 306 307 309 310 312 312 314 315 317 326 334 335 336 337 338 337 339 335 329 325 325 328 328 327 319 314 313
299 301 299 299 298 299 295 301 301 300 298 293 301 291 298 301 302 303 305 307 310 312 315 316 316 318 322 329 338 338 336 336 337 336 330 326 323 320 323 319 317 316 315 312
297 297 298 297 297 300 298 302 301 301 298 297 296 292 295 300 296 299 302 306 307 309 315 318 316 318 320 327 332 338 335 333 333 332 330 330 325 322 318 313 312 311 313 313
298 301 300 300 301 302 303 302 302 301 299 291 294 292 293 294 295 298 304 305 305 308 312 320 321 320 321 328 334 335 331 330 329 329 330 323 317 314 312 312 311 312 311 313
297 297 300 301 299 302 301 299 294 291 291 289 296 293 294 299 300 303 303 303 305 307 310 316 321 321 323 330 333 331 329 326 329 325 322 318 315 314 313 312 310 310 312 312
292 290 295 299 299 296 298 298 291 283 286 289 296 290 295 303 304 306 306 303 304 306 308 312 324 326 327 329 328 324 323 322 321 319 319 318 315 313 312 313 313 313 313 314
292 292 298 298 301 300 297 294 299 292 294 291 294 295 302 304 304 304 304 302 302 304 307 309 313 321 323 323 323 323 322 320 320 321 321 320 319 318 316 315 314 317 315 315
296 290 296 296 300 301 298 300 294 296 286 285 290 290 290 297 300 303 303 300 301 304 306 307 308 310 313 318 322 323 322 320 320 322 323 322 322 320 319 318 317 316 314 313
296 293 294 296 295 294 297 296 296 297 294 288 286 289 298 298 301 301 303 300 300 303 303 304 306 308 309 313 318 318 313 317 313 310 313 310 308 308 308 307 309 311 311 310
297 295 291 292 297 298 297 294 295 290 289 293 292 291 301 301 303 303 302 302 302 303 305 305 305 306 305 305 306 310 308 306 306 304 302 302 302 301 301 301 302 304 306 307
298 294 290 290 294 296 293 294 293 293 296 292 288 290 301 302 303 304 304 301 301 302 303 303 306 303 302 302 304 304 304 303 302 302 300 301 301 301 301 301 301 302 303 304
299 296 293 289 291 294 291 293 293 292 290 291 291 290 297 299 301 304 305 303 300 301 303 305 302 302 302 301 301 303 303 303 302 301 300 300 300 300 301 301 302 301 302 301
297 293 294 294 293 293 292 291 291 290 293 290 292 291 295 299 302 305 305 306 305 303 302 304 304 303 301 301 300 300 301 301 302 300 300 300 300 301 301 301 300 301 301 300
296 292 291 291 295 292 291 293 294 294 295 294 295 293 299 303 304 304 305 305 304 304 303 303 303 303 302 301 301 301 301 301 301 300 300 300 300 300 300 300 299 299 299 299
294 293 292 290 293 293 291 295 295 295 297 296 291 297 301 300 301 302 305 306 304 304 303 303 303 303 302 302 302 301 301 302 301 300 300 300 300 299 299 299 299 298 298 299
293 293 292 289 293 287 294 298 298 297 297 298 296 298 301 302 303 304 306 306 305 304 304 304 303 303 302 303 302 302 302 301 300 300 300 300 299 298 298 298 298 298 298 298
295 294 290 288 290 294 295 296 295 294 295 300 298 299 300 303 303 303 306 307 306 305 305 304 304 303 303 302 302 301 300 300 300 299 298 298 298 297 298 298 298 298 297 297
294 294 291 291 287 286 295 297 299 298 291 301 300 300 300 301 296 300 305 306 306 306 305 304 304 303 302 302 302 301 300 299 298 298 298 298 298 297 297 298 297 297 296 295
289 290 288 290 289 294 300 298 299 289 294 299 301 301 301 299 302 306 306 306 307 306 304 304 303 302 302 302 301 300 300 298 298 298 298 297 298 297 297 297 296 295 294 293
291 290 289 291 289 287 301 297 293 301 302 302 302 303 302 303 303 304 305 305 305 304 303 303 302 302 301 301 301 299 299 299 299 298 297 296 296 295 295 295 294 293 292 291
292 297 295 295 296 302 302 302 303 304 304 303 303 304 304 303 303 303 304 305 305 304 303 303 302 301 301 301 301 299 299 299 297 296 296 295 295 294 293 292 291 291 291 291
297 301 297 296 300 300 302 303 304 304 304 306 306 306 305 303 304 303 303 303 304 304 302 302 301 300 299 300 300 300 299 298 297 295 295 294 293 291 291 291 291 291 290 289
299 298 296 297 300 301 302 303 304 304 305 305 306 306 306 305 304 304 303 303 303 303 303 302 301 299 299 299 299 299 298 297 295 295 294 293 292 290 290 291 290 290 290 289
299 298 296 296 302 302 303 305 306 303 304 305 305 304 305 305 305 305 304 303 303 302 302 301 300 300 299 299 298 297 297 296 295 293 292 292 290 290 290 290 289 289 288 288